Wetterdaten: Montag, 25.12.2023
Datum Zeit Temp. I. Temp. A. Feuchte I. Feuchte A. Luftdruck Regen Wind Richtung Richtung Sonnenschein Solar Taupunkt Windchill Windböen
25.12.2023 00:00 21,8 °C 10,8 °C 57 % 91 % 1001,2 hPa 0,0 l/m² 24,9 km/h (4 Bft) SW 221 ° 0 min 0 W/m² 9,4 °C 2,9 °C 32,2 km/h (5 Bft)
25.12.2023 00:02 21,8 °C 10,8 °C 57 % 91 % 1001,2 hPa 0,0 l/m² 24,1 km/h (4 Bft) W-SW 252 ° 0 min 0 W/m² 9,4 °C 3,1 °C 35,4 km/h (5 Bft)
25.12.2023 00:03 21,8 °C 10,8 °C 57 % 91 % 1001,1 hPa 0,0 l/m² 26,2 km/h (4 Bft) SW 220 ° 0 min 0 W/m² 9,4 °C 2,6 °C 35,4 km/h (5 Bft)
25.12.2023 00:05 21,8 °C 10,8 °C 57 % 91 % 1001,2 hPa 0,0 l/m² 23,1 km/h (4 Bft) W-SW 238 ° 0 min 0 W/m² 9,4 °C 3,4 °C 35,4 km/h (5 Bft)
25.12.2023 00:07 21,8 °C 10,8 °C 57 % 91 % 1001,3 hPa 0,0 l/m² 23,0 km/h (4 Bft) SW 217 ° 0 min 0 W/m² 9,4 °C 3,4 °C 30,6 km/h (5 Bft)
25.12.2023 00:09 21,8 °C 10,9 °C 57 % 90 % 1001,3 hPa 0,0 l/m² 25,3 km/h (4 Bft) SW 223 ° 0 min 0 W/m² 9,3 °C 3,0 °C 35,4 km/h (5 Bft)
25.12.2023 00:11 21,8 °C 10,9 °C 57 % 90 % 1001,3 hPa 0,0 l/m² 24,2 km/h (4 Bft) SW 223 ° 0 min 0 W/m² 9,3 °C 3,3 °C 38,6 km/h (6 Bft)
25.12.2023 00:12 21,8 °C 10,9 °C 57 % 90 % 1001,1 hPa 0,0 l/m² 26,1 km/h (4 Bft) W-SW 237 ° 0 min 0 W/m² 9,3 °C 2,8 °C 32,2 km/h (5 Bft)
25.12.2023 00:13 21,8 °C 10,9 °C 57 % 90 % 1001,1 hPa 0,0 l/m² 21,8 km/h (4 Bft) SW 221 ° 0 min 0 W/m² 9,3 °C 3,9 °C 32,2 km/h (5 Bft)
25.12.2023 00:15 21,8 °C 10,9 °C 57 % 90 % 1001,1 hPa 0,0 l/m² 25,7 km/h (4 Bft) S-SW 205 ° 0 min 0 W/m² 9,3 °C 2,9 °C 32,2 km/h (5 Bft)
25.12.2023 00:17 21,8 °C 10,8 °C 57 % 90 % 1001,0 hPa 0,0 l/m² 31,0 km/h (5 Bft) S-SW 210 ° 0 min 0 W/m² 9,2 °C 1,6 °C 40,2 km/h (6 Bft)
25.12.2023 00:19 21,7 °C 10,9 °C 57 % 90 % 1000,9 hPa 0,0 l/m² 27,6 km/h (5 Bft) SW 228 ° 0 min 0 W/m² 9,3 °C 2,4 °C 35,4 km/h (5 Bft)
25.12.2023 00:21 21,8 °C 10,8 °C 57 % 90 % 1001,0 hPa 0,0 l/m² 29,0 km/h (5 Bft) SW 219 ° 0 min 0 W/m² 9,2 °C 2,0 °C 38,6 km/h (6 Bft)
25.12.2023 00:22 21,7 °C 10,8 °C 57 % 90 % 1000,8 hPa 0,0 l/m² 27,1 km/h (5 Bft) S-SW 212 ° 0 min 0 W/m² 9,2 °C 2,4 °C 43,5 km/h (6 Bft)
25.12.2023 00:23 21,7 °C 10,8 °C 57 % 90 % 1000,9 hPa 0,0 l/m² 28,5 km/h (5 Bft) SW 215 ° 0 min 0 W/m² 9,2 °C 2,1 °C 35,4 km/h (5 Bft)
25.12.2023 00:24 21,7 °C 10,8 °C 57 % 90 % 1000,9 hPa 0,0 l/m² 27,4 km/h (5 Bft) SW 221 ° 0 min 0 W/m² 9,2 °C 2,3 °C 30,6 km/h (5 Bft)
25.12.2023 00:26 21,7 °C 10,8 °C 57 % 90 % 1000,8 hPa 0,0 l/m² 26,2 km/h (4 Bft) S-SW 207 ° 0 min 0 W/m² 9,2 °C 2,6 °C 40,2 km/h (6 Bft)
25.12.2023 00:28 21,7 °C 10,9 °C 57 % 90 % 1000,7 hPa 0,0 l/m² 32,6 km/h (5 Bft) SW 222 ° 0 min 0 W/m² 9,3 °C 1,4 °C 46,7 km/h (6 Bft)
25.12.2023 00:30 21,7 °C 10,8 °C 57 % 90 % 1000,7 hPa 0,0 l/m² 29,9 km/h (5 Bft) S-SW 211 ° 0 min 0 W/m² 9,2 °C 1,8 °C 41,8 km/h (6 Bft)
25.12.2023 00:33 21,7 °C 10,9 °C 57 % 90 % 1000,6 hPa 0,0 l/m² 32,6 km/h (5 Bft) S-SW 203 ° 0 min 0 W/m² 9,3 °C 1,4 °C 43,5 km/h (6 Bft)
25.12.2023 00:35 21,7 °C 10,8 °C 57 % 90 % 1000,7 hPa 0,0 l/m² 35,7 km/h (5 Bft) S-SW 209 ° 0 min 0 W/m² 9,2 °C 0,7 °C 46,7 km/h (6 Bft)
25.12.2023 00:37 21,7 °C 10,8 °C 56 % 90 % 1000,7 hPa 0,0 l/m² 35,7 km/h (5 Bft) SW 215 ° 0 min 0 W/m² 9,2 °C 0,7 °C 45,1 km/h (6 Bft)
25.12.2023 00:39 21,7 °C 10,8 °C 57 % 90 % 1000,7 hPa 0,0 l/m² 31,0 km/h (5 Bft) SW 229 ° 0 min 0 W/m² 9,2 °C 1,6 °C 41,8 km/h (6 Bft)
25.12.2023 00:41 21,7 °C 10,8 °C 56 % 90 % 1000,7 hPa 0,0 l/m² 33,8 km/h (5 Bft) SW 218 ° 0 min 0 W/m² 9,2 °C 1,1 °C 46,7 km/h (6 Bft)
25.12.2023 00:42 21,7 °C 10,8 °C 56 % 90 % 1000,8 hPa 0,0 l/m² 35,5 km/h (5 Bft) SW 228 ° 0 min 0 W/m² 9,2 °C 0,8 °C 43,5 km/h (6 Bft)
25.12.2023 00:43 21,7 °C 10,8 °C 56 % 90 % 1000,8 hPa 0,0 l/m² 28,2 km/h (5 Bft) S-SW 213 ° 0 min 0 W/m² 9,2 °C 2,2 °C 37,0 km/h (5 Bft)
25.12.2023 00:45 21,7 °C 10,7 °C 56 % 91 % 1000,7 hPa 0,0 l/m² 40,2 km/h (6 Bft) S-SW 205 ° 0 min 0 W/m² 9,3 °C -0,1 °C 43,5 km/h (6 Bft)
25.12.2023 00:47 21,7 °C 10,7 °C 56 % 91 % 1000,8 hPa 0,0 l/m² 33,0 km/h (5 Bft) SW 222 ° 0 min 0 W/m² 9,3 °C 1,1 °C 46,7 km/h (6 Bft)
25.12.2023 00:49 21,7 °C 10,7 °C 56 % 91 % 1000,7 hPa 0,0 l/m² 29,7 km/h (5 Bft) SW 221 ° 0 min 0 W/m² 9,3 °C 1,7 °C 40,2 km/h (6 Bft)
25.12.2023 00:52 21,7 °C 10,6 °C 56 % 91 % 1001,0 hPa 0,0 l/m² 28,0 km/h (5 Bft) SW 214 ° 0 min 0 W/m² 9,2 °C 1,9 °C 38,6 km/h (6 Bft)
25.12.2023 00:53 21,7 °C 10,6 °C 56 % 91 % 1000,9 hPa 0,0 l/m² 29,1 km/h (5 Bft) SW 219 ° 0 min 0 W/m² 9,2 °C 1,7 °C 38,6 km/h (6 Bft)
25.12.2023 00:54 21,7 °C 10,6 °C 56 % 91 % 1001,0 hPa 0,0 l/m² 29,0 km/h (5 Bft) SW 217 ° 0 min 0 W/m² 9,2 °C 1,7 °C 37,0 km/h (5 Bft)
25.12.2023 00:55 21,7 °C 10,6 °C 56 % 91 % 1001,0 hPa 0,0 l/m² 30,1 km/h (5 Bft) SW 229 ° 0 min 0 W/m² 9,2 °C 1,5 °C 37,0 km/h (5 Bft)
25.12.2023 00:57 21,7 °C 10,6 °C 56 % 91 % 1001,1 hPa 0,0 l/m² 26,4 km/h (4 Bft) SW 219 ° 0 min 0 W/m² 9,2 °C 2,3 °C 35,4 km/h (5 Bft)
25.12.2023 00:59 21,7 °C 10,6 °C 56 % 91 % 1001,2 hPa 0,0 l/m² 29,9 km/h (5 Bft) SW 223 ° 0 min 0 W/m² 9,2 °C 1,5 °C 40,2 km/h (6 Bft)
25.12.2023 01:01 21,7 °C 10,5 °C 56 % 91 % 1001,3 hPa 0,0 l/m² 26,6 km/h (4 Bft) SW 221 ° 0 min 0 W/m² 9,1 °C 2,1 °C 33,8 km/h (5 Bft)
25.12.2023 01:02 21,7 °C 10,6 °C 56 % 91 % 1001,2 hPa 0,0 l/m² 21,7 km/h (4 Bft) SW 222 ° 0 min 0 W/m² 9,2 °C 3,5 °C 30,6 km/h (5 Bft)
25.12.2023 01:03 21,7 °C 10,6 °C 56 % 91 % 1001,2 hPa 0,0 l/m² 23,4 km/h (4 Bft) SW 217 ° 0 min 0 W/m² 9,2 °C 3,1 °C 33,8 km/h (5 Bft)
25.12.2023 01:04 21,7 °C 10,6 °C 56 % 91 % 1001,3 hPa 0,0 l/m² 23,6 km/h (4 Bft) SW 227 ° 0 min 0 W/m² 9,2 °C 3,0 °C 30,6 km/h (5 Bft)
25.12.2023 01:06 21,7 °C 10,6 °C 56 % 91 % 1001,3 hPa 0,0 l/m² 25,1 km/h (4 Bft) SW 227 ° 0 min 0 W/m² 9,2 °C 2,6 °C 35,4 km/h (5 Bft)
25.12.2023 01:08 21,7 °C 10,6 °C 56 % 91 % 1001,5 hPa 0,0 l/m² 23,8 km/h (4 Bft) SW 227 ° 0 min 0 W/m² 9,2 °C 3,0 °C 37,0 km/h (5 Bft)
25.12.2023 01:10 21,7 °C 10,7 °C 56 % 91 % 1001,6 hPa 0,0 l/m² 26,0 km/h (4 Bft) SW 215 ° 0 min 0 W/m² 9,3 °C 2,5 °C 33,8 km/h (5 Bft)
25.12.2023 01:12 21,7 °C 10,7 °C 56 % 91 % 1001,7 hPa 0,0 l/m² 24,5 km/h (4 Bft) SW 224 ° 0 min 0 W/m² 9,3 °C 2,9 °C 40,2 km/h (6 Bft)
25.12.2023 01:13 21,7 °C 10,7 °C 56 % 91 % 1001,6 hPa 0,0 l/m² 25,4 km/h (4 Bft) S-SW 208 ° 0 min 0 W/m² 9,3 °C 2,7 °C 32,2 km/h (5 Bft)
25.12.2023 01:14 21,7 °C 10,7 °C 56 % 91 % 1001,7 hPa 0,0 l/m² 21,7 km/h (4 Bft) SW 215 ° 0 min 0 W/m² 9,3 °C 3,7 °C 27,4 km/h (5 Bft)
25.12.2023 01:15 21,7 °C 10,7 °C 56 % 91 % 1001,7 hPa 0,0 l/m² 20,9 km/h (4 Bft) SW 223 ° 0 min 0 W/m² 9,3 °C 3,9 °C 25,7 km/h (4 Bft)
25.12.2023 01:17 21,6 °C 10,8 °C 56 % 91 % 1001,5 hPa 0,0 l/m² 25,5 km/h (4 Bft) SW 225 ° 0 min 0 W/m² 9,4 °C 2,8 °C 32,2 km/h (5 Bft)
25.12.2023 01:19 21,7 °C 10,8 °C 56 % 91 % 1001,5 hPa 0,0 l/m² 20,8 km/h (4 Bft) SW 236 ° 0 min 0 W/m² 9,4 °C 4,1 °C 32,2 km/h (5 Bft)
25.12.2023 01:22 21,7 °C 10,8 °C 56 % 91 % 1001,5 hPa 0,0 l/m² 20,7 km/h (4 Bft) SW 216 ° 0 min 0 W/m² 9,4 °C 4,1 °C 33,8 km/h (5 Bft)
25.12.2023 01:25 21,7 °C 10,8 °C 56 % 90 % 1001,6 hPa 0,0 l/m² 23,2 km/h (4 Bft) SW 226 ° 0 min 0 W/m² 9,2 °C 3,4 °C 35,4 km/h (5 Bft)
25.12.2023 01:27 21,7 °C 10,9 °C 56 % 90 % 1001,6 hPa 0,0 l/m² 23,0 km/h (4 Bft) SW 221 ° 0 min 0 W/m² 9,3 °C 3,6 °C 32,2 km/h (5 Bft)
25.12.2023 01:29 21,6 °C 10,9 °C 56 % 90 % 1001,6 hPa 0,0 l/m² 18,7 km/h (3 Bft) W-SW 241 ° 0 min 0 W/m² 9,3 °C 4,9 °C 27,4 km/h (5 Bft)
25.12.2023 01:31 21,6 °C 10,9 °C 56 % 90 % 1001,5 hPa 0,0 l/m² 20,0 km/h (4 Bft) S-SW 213 ° 0 min 0 W/m² 9,3 °C 4,4 °C 27,4 km/h (5 Bft)
25.12.2023 01:32 21,6 °C 10,9 °C 56 % 90 % 1001,5 hPa 0,0 l/m² 24,4 km/h (4 Bft) SW 218 ° 0 min 0 W/m² 9,3 °C 3,2 °C 30,6 km/h (5 Bft)
25.12.2023 01:33 21,6 °C 10,9 °C 56 % 90 % 1001,5 hPa 0,0 l/m² 22,4 km/h (4 Bft) SW 219 ° 0 min 0 W/m² 9,3 °C 3,7 °C 29,0 km/h (5 Bft)
25.12.2023 01:34 21,7 °C 10,9 °C 56 % 90 % 1001,5 hPa 0,0 l/m² 24,3 km/h (4 Bft) SW 229 ° 0 min 0 W/m² 9,3 °C 3,2 °C 29,0 km/h (5 Bft)
25.12.2023 01:36 21,6 °C 10,9 °C 56 % 90 % 1001,5 hPa 0,0 l/m² 23,1 km/h (4 Bft) SW 214 ° 0 min 0 W/m² 9,3 °C 3,5 °C 33,8 km/h (5 Bft)
25.12.2023 01:38 21,6 °C 10,9 °C 56 % 90 % 1001,4 hPa 0,0 l/m² 21,8 km/h (4 Bft) SW 219 ° 0 min 0 W/m² 9,3 °C 3,9 °C 32,2 km/h (5 Bft)
25.12.2023 01:40 21,7 °C 11,0 °C 56 % 89 % 1001,5 hPa 0,0 l/m² 24,9 km/h (4 Bft) SW 232 ° 0 min 0 W/m² 9,3 °C 3,2 °C 38,6 km/h (6 Bft)
25.12.2023 01:43 21,6 °C 11,1 °C 56 % 89 % 1001,5 hPa 0,0 l/m² 21,6 km/h (4 Bft) SW 221 ° 0 min 0 W/m² 9,4 °C 4,2 °C 35,4 km/h (5 Bft)
25.12.2023 01:45 21,6 °C 11,1 °C 56 % 89 % 1001,5 hPa 0,0 l/m² 24,9 km/h (4 Bft) S-SW 208 ° 0 min 0 W/m² 9,4 °C 3,3 °C 35,4 km/h (5 Bft)
25.12.2023 01:47 21,6 °C 11,1 °C 56 % 89 % 1001,5 hPa 0,0 l/m² 25,2 km/h (4 Bft) SW 221 ° 0 min 0 W/m² 9,4 °C 3,3 °C 33,8 km/h (5 Bft)
25.12.2023 01:49 21,6 °C 11,1 °C 56 % 89 % 1001,5 hPa 0,0 l/m² 22,2 km/h (4 Bft) SW 221 ° 0 min 0 W/m² 9,4 °C 4,1 °C 37,0 km/h (5 Bft)
25.12.2023 01:51 21,6 °C 11,1 °C 56 % 89 % 1001,5 hPa 0,0 l/m² 27,6 km/h (5 Bft) SW 227 ° 0 min 0 W/m² 9,4 °C 2,7 °C 37,0 km/h (5 Bft)
25.12.2023 01:52 21,6 °C 11,1 °C 56 % 89 % 1001,5 hPa 0,0 l/m² 27,6 km/h (5 Bft) SW 223 ° 0 min 0 W/m² 9,4 °C 2,7 °C 35,4 km/h (5 Bft)
25.12.2023 01:53 21,6 °C 11,1 °C 56 % 88 % 1001,5 hPa 0,0 l/m² 21,3 km/h (4 Bft) SW 232 ° 0 min 0 W/m² 9,2 °C 4,3 °C 27,4 km/h (5 Bft)
25.12.2023 01:54 21,6 °C 11,1 °C 56 % 88 % 1001,1 hPa 0,0 l/m² 21,2 km/h (4 Bft) SW 232 ° 0 min 0 W/m² 9,2 °C 4,3 °C 29,0 km/h (5 Bft)
25.12.2023 01:56 21,6 °C 11,1 °C 56 % 88 % 1001,1 hPa 0,0 l/m² 26,1 km/h (4 Bft) SW 221 ° 0 min 0 W/m² 9,2 °C 3,1 °C 33,8 km/h (5 Bft)
25.12.2023 01:58 21,6 °C 11,0 °C 56 % 88 % 1001,3 hPa 0,0 l/m² 21,1 km/h (4 Bft) SW 221 ° 0 min 0 W/m² 9,1 °C 4,2 °C 29,0 km/h (5 Bft)
25.12.2023 02:00 21,6 °C 11,0 °C 56 % 88 % 1001,3 hPa 0,0 l/m² 20,2 km/h (4 Bft) SW 214 ° 0 min 0 W/m² 9,1 °C 4,5 °C 29,0 km/h (5 Bft)
25.12.2023 02:02 21,6 °C 10,9 °C 56 % 88 % 1001,4 hPa 0,0 l/m² 21,8 km/h (4 Bft) SW 221 ° 0 min 0 W/m² 9,0 °C 3,9 °C 32,2 km/h (5 Bft)
25.12.2023 02:03 21,6 °C 10,9 °C 56 % 88 % 1001,4 hPa 0,0 l/m² 22,6 km/h (4 Bft) SW 219 ° 0 min 0 W/m² 9,0 °C 3,7 °C 30,6 km/h (5 Bft)
25.12.2023 02:04 21,6 °C 10,9 °C 56 % 88 % 1001,4 hPa 0,0 l/m² 24,6 km/h (4 Bft) S-SW 194 ° 0 min 0 W/m² 9,0 °C 3,2 °C 30,6 km/h (5 Bft)
25.12.2023 02:06 21,6 °C 10,9 °C 56 % 88 % 1001,3 hPa 0,0 l/m² 24,1 km/h (4 Bft) SW 216 ° 0 min 0 W/m² 9,0 °C 3,3 °C 35,4 km/h (5 Bft)
25.12.2023 02:08 21,6 °C 10,9 °C 56 % 88 % 1001,6 hPa 0,0 l/m² 22,2 km/h (4 Bft) SW 223 ° 0 min 0 W/m² 9,0 °C 3,8 °C 32,2 km/h (5 Bft)
25.12.2023 02:10 21,6 °C 11,0 °C 56 % 88 % 1001,3 hPa 0,0 l/m² 23,2 km/h (4 Bft) SW 227 ° 0 min 0 W/m² 9,1 °C 3,7 °C 29,0 km/h (5 Bft)
25.12.2023 02:12 21,6 °C 11,0 °C 56 % 88 % 1001,3 hPa 0,0 l/m² 20,7 km/h (4 Bft) S-SW 207 ° 0 min 0 W/m² 9,1 °C 4,4 °C 30,6 km/h (5 Bft)
25.12.2023 02:13 21,6 °C 11,0 °C 56 % 88 % 1001,3 hPa 0,0 l/m² 22,1 km/h (4 Bft) S-SW 198 ° 0 min 0 W/m² 9,1 °C 4,0 °C 27,4 km/h (5 Bft)
25.12.2023 02:14 21,6 °C 11,0 °C 56 % 88 % 1001,5 hPa 0,0 l/m² 24,0 km/h (4 Bft) SW 221 ° 0 min 0 W/m² 9,1 °C 3,4 °C 32,2 km/h (5 Bft)
25.12.2023 02:15 21,6 °C 11,1 °C 56 % 88 % 1001,5 hPa 0,0 l/m² 28,5 km/h (5 Bft) SW 219 ° 0 min 0 W/m² 9,2 °C 2,5 °C 40,2 km/h (6 Bft)
25.12.2023 02:17 21,6 °C 11,1 °C 56 % 88 % 1001,5 hPa 0,0 l/m² 26,8 km/h (4 Bft) SW 219 ° 0 min 0 W/m² 9,2 °C 2,9 °C 37,0 km/h (5 Bft)
25.12.2023 02:19 21,6 °C 11,2 °C 56 % 88 % 1001,6 hPa 0,0 l/m² 25,1 km/h (4 Bft) SW 225 ° 0 min 0 W/m² 9,3 °C 3,4 °C 35,4 km/h (5 Bft)
25.12.2023 02:22 21,6 °C 11,2 °C 56 % 88 % 1001,6 hPa 0,0 l/m² 25,7 km/h (4 Bft) W-SW 251 ° 0 min 0 W/m² 9,3 °C 3,3 °C 37,0 km/h (5 Bft)
25.12.2023 02:23 21,6 °C 11,2 °C 56 % 88 % 1001,7 hPa 0,0 l/m² 26,8 km/h (4 Bft) SW 223 ° 0 min 0 W/m² 9,3 °C 3,0 °C 41,8 km/h (6 Bft)
25.12.2023 02:24 21,6 °C 11,2 °C 56 % 88 % 1001,7 hPa 0,0 l/m² 23,7 km/h (4 Bft) SW 220 ° 0 min 0 W/m² 9,3 °C 3,8 °C 29,0 km/h (5 Bft)
25.12.2023 02:25 21,6 °C 11,3 °C 56 % 88 % 1001,6 hPa 0,0 l/m² 28,3 km/h (5 Bft) SW 224 ° 0 min 0 W/m² 9,4 °C 2,8 °C 35,4 km/h (5 Bft)
25.12.2023 02:27 21,6 °C 11,3 °C 56 % 87 % 1001,6 hPa 0,0 l/m² 25,2 km/h (4 Bft) SW 217 ° 0 min 0 W/m² 9,2 °C 3,5 °C 35,4 km/h (5 Bft)
25.12.2023 02:29 21,6 °C 11,3 °C 56 % 87 % 1001,6 hPa 0,0 l/m² 25,1 km/h (4 Bft) SW 221 ° 0 min 0 W/m² 9,2 °C 3,6 °C 38,6 km/h (6 Bft)
25.12.2023 02:32 21,6 °C 11,3 °C 56 % 87 % 1001,6 hPa 0,0 l/m² 24,1 km/h (4 Bft) SW 218 ° 0 min 0 W/m² 9,2 °C 3,8 °C 38,6 km/h (6 Bft)
25.12.2023 02:33 21,5 °C 11,3 °C 56 % 87 % 1001,6 hPa 0,0 l/m² 24,6 km/h (4 Bft) SW 222 ° 0 min 0 W/m² 9,2 °C 3,7 °C 32,2 km/h (5 Bft)
25.12.2023 02:34 21,6 °C 11,3 °C 56 % 87 % 1001,6 hPa 0,0 l/m² 29,9 km/h (5 Bft) SW 222 ° 0 min 0 W/m² 9,2 °C 2,5 °C 40,2 km/h (6 Bft)
25.12.2023 02:35 21,6 °C 11,3 °C 56 % 87 % 1001,6 hPa 0,0 l/m² 29,7 km/h (5 Bft) W-SW 240 ° 0 min 0 W/m² 9,2 °C 2,5 °C 40,2 km/h (6 Bft)
25.12.2023 02:37 21,6 °C 11,3 °C 56 % 87 % 1001,7 hPa 0,0 l/m² 27,1 km/h (5 Bft) W-SW 244 ° 0 min 0 W/m² 9,2 °C 3,1 °C 43,5 km/h (6 Bft)
25.12.2023 02:39 21,6 °C 11,3 °C 56 % 87 % 1001,8 hPa 0,0 l/m² 24,4 km/h (4 Bft) SW 221 ° 0 min 0 W/m² 9,2 °C 3,7 °C 32,2 km/h (5 Bft)
25.12.2023 02:42 21,5 °C 11,3 °C 56 % 87 % 1001,8 hPa 0,0 l/m² 28,4 km/h (5 Bft) SW 234 ° 0 min 0 W/m² 9,2 °C 2,8 °C 40,2 km/h (6 Bft)
25.12.2023 02:43 21,6 °C 11,3 °C 56 % 87 % 1001,8 hPa 0,0 l/m² 26,6 km/h (4 Bft) SW 223 ° 0 min 0 W/m² 9,2 °C 3,2 °C 38,6 km/h (6 Bft)
25.12.2023 02:44 21,6 °C 11,3 °C 56 % 88 % 1001,8 hPa 0,0 l/m² 24,5 km/h (4 Bft) SW 227 ° 0 min 0 W/m² 9,4 °C 3,7 °C 35,4 km/h (5 Bft)
25.12.2023 02:45 21,6 °C 11,3 °C 56 % 88 % 1001,8 hPa 0,0 l/m² 25,3 km/h (4 Bft) SW 215 ° 0 min 0 W/m² 9,4 °C 3,5 °C 32,2 km/h (5 Bft)
25.12.2023 02:47 21,5 °C 11,3 °C 56 % 88 % 1001,9 hPa 0,0 l/m² 25,8 km/h (4 Bft) SW 219 ° 0 min 0 W/m² 9,4 °C 3,4 °C 35,4 km/h (5 Bft)
25.12.2023 02:49 21,5 °C 11,2 °C 56 % 88 % 1001,9 hPa 0,0 l/m² 26,8 km/h (4 Bft) SW 227 ° 0 min 0 W/m² 9,3 °C 3,0 °C 33,8 km/h (5 Bft)
25.12.2023 02:51 21,5 °C 11,1 °C 56 % 89 % 1001,9 hPa 0,0 l/m² 21,9 km/h (4 Bft) SW 223 ° 0 min 0 W/m² 9,4 °C 4,1 °C 29,0 km/h (5 Bft)
25.12.2023 02:52 21,5 °C 11,1 °C 56 % 89 % 1002,0 hPa 0,0 l/m² 24,1 km/h (4 Bft) SW 226 ° 0 min 0 W/m² 9,4 °C 3,6 °C 32,2 km/h (5 Bft)
25.12.2023 02:53 21,5 °C 11,1 °C 56 % 89 % 1002,0 hPa 0,0 l/m² 17,0 km/h (3 Bft) SW 230 ° 0 min 0 W/m² 9,4 °C 5,7 °C 22,5 km/h (4 Bft)
25.12.2023 02:54 21,5 °C 11,1 °C 56 % 89 % 1002,0 hPa 0,0 l/m² 14,5 km/h (3 Bft) W-SW 244 ° 0 min 0 W/m² 9,4 °C 6,7 °C 19,3 km/h (3 Bft)
25.12.2023 02:56 21,5 °C 11,0 °C 56 % 89 % 1002,0 hPa 0,2 l/m² 18,9 km/h (3 Bft) SW 236 ° 0 min 0 W/m² 9,3 °C 4,9 °C 27,4 km/h (5 Bft)
25.12.2023 02:58 21,5 °C 10,9 °C 56 % 89 % 1001,9 hPa 0,0 l/m² 19,9 km/h (4 Bft) SW 217 ° 0 min 0 W/m² 9,2 °C 4,5 °C 27,4 km/h (5 Bft)
25.12.2023 03:00 21,5 °C 10,9 °C 56 % 90 % 1002,0 hPa 0,0 l/m² 18,0 km/h (3 Bft) W-SW 238 ° 0 min 0 W/m² 9,3 °C 5,1 °C 25,7 km/h (4 Bft)
25.12.2023 03:01 21,5 °C 10,9 °C 56 % 90 % 1002,1 hPa 0,0 l/m² 19,3 km/h (3 Bft) SW 225 ° 0 min 0 W/m² 9,3 °C 4,7 °C 22,5 km/h (4 Bft)
25.12.2023 03:07 21,5 °C 10,8 °C 56 % 90 % 1002,1 hPa 0,0 l/m² 14,0 km/h (3 Bft) SW 230 ° 0 min 0 W/m² 9,2 °C 6,5 °C 22,5 km/h (4 Bft)
25.12.2023 03:09 21,5 °C 10,7 °C 56 % 90 % 1002,0 hPa 0,0 l/m² 18,4 km/h (3 Bft) S-SW 213 ° 0 min 0 W/m² 9,1 °C 4,7 °C 29,0 km/h (5 Bft)
25.12.2023 03:11 21,5 °C 10,8 °C 56 % 90 % 1002,1 hPa 0,0 l/m² 28,6 km/h (5 Bft) SW 224 ° 0 min 0 W/m² 9,2 °C 2,1 °C 35,4 km/h (5 Bft)
25.12.2023 03:12 21,4 °C 10,8 °C 56 % 90 % 1002,0 hPa 0,0 l/m² 24,6 km/h (4 Bft) SW 223 ° 0 min 0 W/m² 9,2 °C 3,0 °C 30,6 km/h (5 Bft)
25.12.2023 03:13 21,4 °C 10,8 °C 56 % 90 % 1002,0 hPa 0,0 l/m² 23,1 km/h (4 Bft) S-SW 194 ° 0 min 0 W/m² 9,2 °C 3,4 °C 40,2 km/h (6 Bft)
25.12.2023 03:15 21,5 °C 10,8 °C 56 % 90 % 1002,0 hPa 0,0 l/m² 26,6 km/h (4 Bft) SW 216 ° 0 min 0 W/m² 9,2 °C 2,5 °C 40,2 km/h (6 Bft)
25.12.2023 03:17 21,4 °C 10,8 °C 56 % 90 % 1001,9 hPa 0,0 l/m² 22,1 km/h (4 Bft) SW 236 ° 0 min 0 W/m² 9,2 °C 3,7 °C 27,4 km/h (5 Bft)
25.12.2023 03:19 21,4 °C 10,8 °C 56 % 90 % 1002,0 hPa 0,0 l/m² 27,0 km/h (5 Bft) S-SW 211 ° 0 min 0 W/m² 9,2 °C 2,4 °C 37,0 km/h (5 Bft)
25.12.2023 03:20 21,4 °C 10,8 °C 56 % 89 % 1001,9 hPa 0,0 l/m² 26,3 km/h (4 Bft) S-SW 213 ° 0 min 0 W/m² 9,1 °C 2,6 °C 33,8 km/h (5 Bft)
25.12.2023 03:22 21,5 °C 10,9 °C 56 % 89 % 1001,9 hPa 0,0 l/m² 30,5 km/h (5 Bft) S-SW 212 ° 0 min 0 W/m² 9,2 °C 1,8 °C 43,5 km/h (6 Bft)
25.12.2023 03:24 21,4 °C 10,9 °C 56 % 89 % 1002,0 hPa 0,0 l/m² 27,3 km/h (5 Bft) SW 223 ° 0 min 0 W/m² 9,2 °C 2,5 °C 37,0 km/h (5 Bft)
25.12.2023 03:26 21,4 °C 10,9 °C 56 % 89 % 1002,0 hPa 0,0 l/m² 29,1 km/h (5 Bft) SW 218 ° 0 min 0 W/m² 9,2 °C 2,1 °C 41,8 km/h (6 Bft)
25.12.2023 03:28 21,4 °C 11,0 °C 56 % 89 % 1002,1 hPa 0,0 l/m² 27,6 km/h (5 Bft) SW 220 ° 0 min 0 W/m² 9,3 °C 2,6 °C 37,0 km/h (5 Bft)
25.12.2023 03:30 21,4 °C 11,0 °C 56 % 88 % 1002,0 hPa 0,0 l/m² 28,4 km/h (5 Bft) SW 225 ° 0 min 0 W/m² 9,1 °C 2,4 °C 45,1 km/h (6 Bft)
25.12.2023 03:31 21,4 °C 11,0 °C 56 % 88 % 1002,0 hPa 0,0 l/m² 22,4 km/h (4 Bft) SW 232 ° 0 min 0 W/m² 9,1 °C 3,9 °C 30,6 km/h (5 Bft)
25.12.2023 03:32 21,5 °C 11,0 °C 56 % 88 % 1002,0 hPa 0,0 l/m² 24,3 km/h (4 Bft) SW 233 ° 0 min 0 W/m² 9,1 °C 3,4 °C 32,2 km/h (5 Bft)
25.12.2023 03:33 21,4 °C 11,0 °C 56 % 88 % 1002,0 hPa 0,0 l/m² 23,3 km/h (4 Bft) SW 225 ° 0 min 0 W/m² 9,1 °C 3,6 °C 30,6 km/h (5 Bft)
25.12.2023 03:35 21,4 °C 11,0 °C 56 % 88 % 1002,0 hPa 0,0 l/m² 23,7 km/h (4 Bft) SW 229 ° 0 min 0 W/m² 9,1 °C 3,5 °C 35,4 km/h (5 Bft)
25.12.2023 03:37 21,4 °C 11,0 °C 56 % 88 % 1002,0 hPa 0,0 l/m² 24,0 km/h (4 Bft) S-SW 211 ° 0 min 0 W/m² 9,1 °C 3,4 °C 32,2 km/h (5 Bft)
25.12.2023 03:39 21,4 °C 10,9 °C 56 % 88 % 1001,9 hPa 0,0 l/m² 19,9 km/h (4 Bft) SW 222 ° 0 min 0 W/m² 9,0 °C 4,5 °C 25,7 km/h (4 Bft)
25.12.2023 03:40 21,4 °C 10,9 °C 56 % 89 % 1002,0 hPa 0,0 l/m² 18,4 km/h (3 Bft) SW 216 ° 0 min 0 W/m² 9,2 °C 5,0 °C 22,5 km/h (4 Bft)
25.12.2023 03:41 21,4 °C 10,9 °C 56 % 89 % 1002,0 hPa 0,0 l/m² 21,6 km/h (4 Bft) SW 217 ° 0 min 0 W/m² 9,2 °C 4,0 °C 27,4 km/h (5 Bft)
25.12.2023 03:42 21,4 °C 10,9 °C 56 % 88 % 1001,9 hPa 0,0 l/m² 19,9 km/h (4 Bft) S-SW 206 ° 0 min 0 W/m² 9,0 °C 4,5 °C 24,1 km/h (4 Bft)
25.12.2023 03:43 21,4 °C 10,9 °C 56 % 88 % 1001,9 hPa 0,0 l/m² 19,9 km/h (4 Bft) SW 215 ° 0 min 0 W/m² 9,0 °C 4,5 °C 25,7 km/h (4 Bft)
25.12.2023 03:44 21,4 °C 10,9 °C 56 % 88 % 1001,9 hPa 0,0 l/m² 19,2 km/h (3 Bft) SW 224 ° 0 min 0 W/m² 9,0 °C 4,7 °C 29,0 km/h (5 Bft)
25.12.2023 03:46 21,4 °C 10,9 °C 56 % 88 % 1001,9 hPa 0,0 l/m² 18,8 km/h (3 Bft) SW 227 ° 0 min 0 W/m² 9,0 °C 4,8 °C 27,4 km/h (5 Bft)
25.12.2023 03:47 21,4 °C 10,9 °C 56 % 89 % 1002,0 hPa 0,0 l/m² 18,4 km/h (3 Bft) W-SW 238 ° 0 min 0 W/m² 9,2 °C 5,0 °C 22,5 km/h (4 Bft)
25.12.2023 03:48 21,4 °C 10,9 °C 56 % 89 % 1002,0 hPa 0,0 l/m² 16,9 km/h (3 Bft) SW 223 ° 0 min 0 W/m² 9,2 °C 5,5 °C 19,3 km/h (3 Bft)
25.12.2023 03:49 21,4 °C 10,9 °C 56 % 89 % 1002,0 hPa 0,0 l/m² 19,9 km/h (4 Bft) SW 224 ° 0 min 0 W/m² 9,2 °C 4,5 °C 25,7 km/h (4 Bft)
25.12.2023 03:51 21,4 °C 10,9 °C 56 % 89 % 1002,0 hPa 0,0 l/m² 15,7 km/h (3 Bft) SW 216 ° 0 min 0 W/m² 9,2 °C 5,9 °C 20,9 km/h (4 Bft)
25.12.2023 03:53 21,4 °C 10,8 °C 56 % 89 % 1001,9 hPa 0,0 l/m² 16,2 km/h (3 Bft) W-SW 244 ° 0 min 0 W/m² 9,1 °C 5,6 °C 29,0 km/h (5 Bft)
25.12.2023 03:54 21,4 °C 10,9 °C 56 % 89 % 1001,9 hPa 0,0 l/m² 15,8 km/h (3 Bft) S-SW 202 ° 0 min 0 W/m² 9,2 °C 5,9 °C 22,5 km/h (4 Bft)
25.12.2023 03:55 21,4 °C 10,9 °C 56 % 89 % 1001,9 hPa 0,0 l/m² 14,7 km/h (3 Bft) S-SW 205 ° 0 min 0 W/m² 9,2 °C 6,3 °C 19,3 km/h (3 Bft)
25.12.2023 03:57 21,4 °C 10,8 °C 56 % 88 % 1001,9 hPa 0,0 l/m² 17,5 km/h (3 Bft) SW 215 ° 0 min 0 W/m² 8,9 °C 5,2 °C 32,2 km/h (5 Bft)
25.12.2023 03:58 21,4 °C 10,9 °C 56 % 88 % 1001,9 hPa 0,0 l/m² 20,2 km/h (4 Bft) S-SW 203 ° 0 min 0 W/m² 9,0 °C 4,4 °C 24,1 km/h (4 Bft)
25.12.2023 03:59 21,4 °C 10,9 °C 56 % 88 % 1001,9 hPa 0,0 l/m² 27,9 km/h (5 Bft) S-SW 213 ° 0 min 0 W/m² 9,0 °C 2,4 °C 37,0 km/h (5 Bft)
25.12.2023 04:00 21,4 °C 10,9 °C 56 % 88 % 1001,9 hPa 0,0 l/m² 23,9 km/h (4 Bft) S-SW 209 ° 0 min 0 W/m² 9,0 °C 3,3 °C 32,2 km/h (5 Bft)
25.12.2023 04:02 21,4 °C 10,9 °C 56 % 88 % 1001,9 hPa 0,0 l/m² 19,3 km/h (3 Bft) S-SW 213 ° 0 min 0 W/m² 9,0 °C 4,7 °C 25,7 km/h (4 Bft)
25.12.2023 04:03 21,4 °C 10,9 °C 56 % 88 % 1001,9 hPa 0,0 l/m² 21,9 km/h (4 Bft) SW 216 ° 0 min 0 W/m² 9,0 °C 3,9 °C 30,6 km/h (5 Bft)
25.12.2023 04:04 21,4 °C 10,9 °C 56 % 88 % 1001,9 hPa 0,0 l/m² 16,4 km/h (3 Bft) SW 219 ° 0 min 0 W/m² 9,0 °C 5,7 °C 22,5 km/h (4 Bft)
25.12.2023 04:05 21,4 °C 10,9 °C 56 % 88 % 1001,9 hPa 0,0 l/m² 24,2 km/h (4 Bft) SW 225 ° 0 min 0 W/m² 9,0 °C 3,3 °C 35,4 km/h (5 Bft)
25.12.2023 04:06 21,4 °C 10,9 °C 56 % 88 % 1001,9 hPa 0,0 l/m² 27,0 km/h (5 Bft) SW 220 ° 0 min 0 W/m² 9,0 °C 2,6 °C 32,2 km/h (5 Bft)
25.12.2023 04:07 21,4 °C 10,9 °C 56 % 88 % 1001,9 hPa 0,0 l/m² 23,4 km/h (4 Bft) SW 218 ° 0 min 0 W/m² 9,0 °C 3,5 °C 37,0 km/h (5 Bft)
25.12.2023 04:08 21,4 °C 10,9 °C 56 % 88 % 1001,9 hPa 0,0 l/m² 21,0 km/h (4 Bft) SW 219 ° 0 min 0 W/m² 9,0 °C 4,1 °C 30,6 km/h (5 Bft)
25.12.2023 04:09 21,4 °C 11,0 °C 56 % 88 % 1001,9 hPa 0,0 l/m² 19,6 km/h (3 Bft) SW 216 ° 0 min 0 W/m² 9,1 °C 4,7 °C 25,7 km/h (4 Bft)
25.12.2023 04:11 21,4 °C 10,9 °C 56 % 89 % 1001,8 hPa 0,0 l/m² 28,5 km/h (5 Bft) S-SW 211 ° 0 min 0 W/m² 9,2 °C 2,2 °C 37,0 km/h (5 Bft)
25.12.2023 04:13 21,4 °C 10,9 °C 56 % 89 % 1001,8 hPa 0,0 l/m² 27,5 km/h (5 Bft) S-SW 203 ° 0 min 0 W/m² 9,2 °C 2,5 °C 37,0 km/h (5 Bft)
25.12.2023 04:14 21,4 °C 10,9 °C 56 % 89 % 1001,8 hPa 0,0 l/m² 25,0 km/h (4 Bft) SW 221 ° 0 min 0 W/m² 9,2 °C 3,1 °C 38,6 km/h (6 Bft)
25.12.2023 04:15 21,4 °C 10,9 °C 56 % 89 % 1001,8 hPa 0,0 l/m² 22,4 km/h (4 Bft) S-SW 211 ° 0 min 0 W/m² 9,2 °C 3,7 °C 33,8 km/h (5 Bft)
25.12.2023 04:17 21,4 °C 10,9 °C 56 % 89 % 1001,9 hPa 0,0 l/m² 23,0 km/h (4 Bft) SW 224 ° 0 min 0 W/m² 9,2 °C 3,6 °C 29,0 km/h (5 Bft)
25.12.2023 04:18 21,4 °C 10,9 °C 56 % 89 % 1001,9 hPa 0,0 l/m² 28,7 km/h (5 Bft) SW 218 ° 0 min 0 W/m² 9,2 °C 2,2 °C 32,2 km/h (5 Bft)
25.12.2023 04:19 21,4 °C 10,9 °C 56 % 89 % 1001,8 hPa 0,0 l/m² 21,0 km/h (4 Bft) S-SW 210 ° 0 min 0 W/m² 9,2 °C 4,1 °C 25,7 km/h (4 Bft)
25.12.2023 04:21 21,4 °C 10,9 °C 56 % 89 % 1001,8 hPa 0,0 l/m² 25,2 km/h (4 Bft) S-SW 205 ° 0 min 0 W/m² 9,2 °C 3,0 °C 32,2 km/h (5 Bft)
25.12.2023 04:23 21,4 °C 10,9 °C 56 % 89 % 1001,8 hPa 0,0 l/m² 22,7 km/h (4 Bft) SW 222 ° 0 min 0 W/m² 9,2 °C 3,7 °C 30,6 km/h (5 Bft)
25.12.2023 04:24 21,4 °C 10,9 °C 56 % 90 % 1001,9 hPa 0,0 l/m² 25,6 km/h (4 Bft) SW 214 ° 0 min 0 W/m² 9,3 °C 2,9 °C 33,8 km/h (5 Bft)
25.12.2023 04:25 21,4 °C 10,8 °C 56 % 90 % 1001,9 hPa 0,0 l/m² 25,6 km/h (4 Bft) SW 222 ° 0 min 0 W/m² 9,2 °C 2,8 °C 33,8 km/h (5 Bft)
25.12.2023 04:26 21,4 °C 10,8 °C 56 % 90 % 1001,8 hPa 0,0 l/m² 23,0 km/h (4 Bft) S-SW 209 ° 0 min 0 W/m² 9,2 °C 3,4 °C 32,2 km/h (5 Bft)
25.12.2023 04:27 21,4 °C 10,8 °C 56 % 90 % 1001,8 hPa 0,0 l/m² 26,4 km/h (4 Bft) SW 227 ° 0 min 0 W/m² 9,2 °C 2,6 °C 35,4 km/h (5 Bft)
25.12.2023 04:28 21,4 °C 10,8 °C 56 % 90 % 1001,9 hPa 0,0 l/m² 28,8 km/h (5 Bft) SW 219 ° 0 min 0 W/m² 9,2 °C 2,0 °C 35,4 km/h (5 Bft)
25.12.2023 04:29 21,4 °C 10,8 °C 56 % 90 % 1001,9 hPa 0,0 l/m² 26,5 km/h (4 Bft) SW 227 ° 0 min 0 W/m² 9,2 °C 2,6 °C 33,8 km/h (5 Bft)
25.12.2023 04:31 21,3 °C 10,7 °C 56 % 90 % 1001,9 hPa 0,0 l/m² 25,5 km/h (4 Bft) SW 219 ° 0 min 0 W/m² 9,1 °C 2,7 °C 32,2 km/h (5 Bft)
25.12.2023 04:32 21,4 °C 10,7 °C 56 % 90 % 1002,0 hPa 0,0 l/m² 26,8 km/h (4 Bft) SW 224 ° 0 min 0 W/m² 9,1 °C 2,3 °C 32,2 km/h (5 Bft)
25.12.2023 04:33 21,4 °C 10,7 °C 56 % 90 % 1002,0 hPa 0,0 l/m² 24,7 km/h (4 Bft) SW 215 ° 0 min 0 W/m² 9,1 °C 2,9 °C 33,8 km/h (5 Bft)
25.12.2023 04:34 21,3 °C 10,7 °C 56 % 91 % 1001,9 hPa 0,0 l/m² 24,5 km/h (4 Bft) SW 220 ° 0 min 0 W/m² 9,3 °C 2,9 °C 30,6 km/h (5 Bft)
25.12.2023 04:35 21,3 °C 10,7 °C 56 % 91 % 1001,9 hPa 0,0 l/m² 28,1 km/h (5 Bft) SW 224 ° 0 min 0 W/m² 9,3 °C 2,0 °C 33,8 km/h (5 Bft)
25.12.2023 04:36 21,4 °C 10,7 °C 56 % 91 % 1001,7 hPa 0,0 l/m² 23,3 km/h (4 Bft) W-SW 239 ° 0 min 0 W/m² 9,3 °C 3,2 °C 29,0 km/h (5 Bft)
25.12.2023 04:37 21,4 °C 10,7 °C 56 % 91 % 1001,8 hPa 0,0 l/m² 23,7 km/h (4 Bft) SW 219 ° 0 min 0 W/m² 9,3 °C 3,1 °C 29,0 km/h (5 Bft)
25.12.2023 04:38 21,4 °C 10,6 °C 56 % 91 % 1001,7 hPa 0,0 l/m² 25,1 km/h (4 Bft) SW 220 ° 0 min 0 W/m² 9,2 °C 2,6 °C 32,2 km/h (5 Bft)
25.12.2023 04:39 21,3 °C 10,6 °C 56 % 91 % 1001,8 hPa 0,0 l/m² 27,0 km/h (5 Bft) SW 236 ° 0 min 0 W/m² 9,2 °C 2,2 °C 33,8 km/h (5 Bft)
25.12.2023 04:41 21,3 °C 10,6 °C 56 % 91 % 1001,9 hPa 0,0 l/m² 27,8 km/h (5 Bft) SW 221 ° 0 min 0 W/m² 9,2 °C 2,0 °C 40,2 km/h (6 Bft)
25.12.2023 04:43 21,3 °C 10,6 °C 56 % 91 % 1001,7 hPa 0,0 l/m² 22,5 km/h (4 Bft) SW 216 ° 0 min 0 W/m² 9,2 °C 3,3 °C 30,6 km/h (5 Bft)
25.12.2023 04:44 21,3 °C 10,6 °C 56 % 91 % 1001,9 hPa 0,0 l/m² 25,7 km/h (4 Bft) SW 225 ° 0 min 0 W/m² 9,2 °C 2,5 °C 41,8 km/h (6 Bft)
25.12.2023 04:45 21,3 °C 10,6 °C 56 % 91 % 1001,8 hPa 0,0 l/m² 20,7 km/h (4 Bft) S-SW 197 ° 0 min 0 W/m² 9,2 °C 3,8 °C 29,0 km/h (5 Bft)
25.12.2023 04:46 21,4 °C 10,6 °C 56 % 91 % 1001,7 hPa 0,0 l/m² 23,9 km/h (4 Bft) SW 228 ° 0 min 0 W/m² 9,2 °C 2,9 °C 32,2 km/h (5 Bft)
25.12.2023 04:47 21,3 °C 10,6 °C 56 % 91 % 1001,8 hPa 0,0 l/m² 24,7 km/h (4 Bft) S-SW 206 ° 0 min 0 W/m² 9,2 °C 2,7 °C 35,4 km/h (5 Bft)
25.12.2023 04:48 21,3 °C 10,6 °C 56 % 91 % 1001,7 hPa 0,0 l/m² 25,7 km/h (4 Bft) SW 226 ° 0 min 0 W/m² 9,2 °C 2,5 °C 33,8 km/h (5 Bft)
25.12.2023 04:49 21,3 °C 10,6 °C 56 % 91 % 1001,8 hPa 0,0 l/m² 24,2 km/h (4 Bft) S-SW 213 ° 0 min 0 W/m² 9,2 °C 2,9 °C 35,4 km/h (5 Bft)
25.12.2023 04:50 21,3 °C 10,6 °C 56 % 91 % 1001,7 hPa 0,0 l/m² 24,3 km/h (4 Bft) S-SW 207 ° 0 min 0 W/m² 9,2 °C 2,8 °C 30,6 km/h (5 Bft)
25.12.2023 04:52 21,3 °C 10,7 °C 56 % 91 % 1001,7 hPa 0,0 l/m² 28,3 km/h (5 Bft) S-SW 207 ° 0 min 0 W/m² 9,3 °C 2,0 °C 40,2 km/h (6 Bft)
25.12.2023 04:54 21,3 °C 10,7 °C 56 % 91 % 1001,8 hPa 0,0 l/m² 21,0 km/h (4 Bft) SW 215 ° 0 min 0 W/m² 9,3 °C 3,9 °C 30,6 km/h (5 Bft)
25.12.2023 04:55 21,3 °C 10,7 °C 56 % 91 % 1001,8 hPa 0,0 l/m² 24,9 km/h (4 Bft) S-SW 201 ° 0 min 0 W/m² 9,3 °C 2,8 °C 33,8 km/h (5 Bft)
25.12.2023 04:56 21,3 °C 10,7 °C 56 % 91 % 1001,8 hPa 0,0 l/m² 18,4 km/h (3 Bft) S-SW 209 ° 0 min 0 W/m² 9,3 °C 4,7 °C 24,1 km/h (4 Bft)
25.12.2023 04:57 21,3 °C 10,7 °C 56 % 91 % 1001,7 hPa 0,0 l/m² 17,6 km/h (3 Bft) SW 225 ° 0 min 0 W/m² 9,3 °C 5,0 °C 27,4 km/h (5 Bft)
25.12.2023 04:58 21,3 °C 10,7 °C 56 % 91 % 1001,8 hPa 0,0 l/m² 24,2 km/h (4 Bft) S-SW 204 ° 0 min 0 W/m² 9,3 °C 3,0 °C 32,2 km/h (5 Bft)
25.12.2023 04:59 21,3 °C 10,7 °C 56 % 90 % 1001,7 hPa 0,0 l/m² 18,9 km/h (3 Bft) SW 224 ° 0 min 0 W/m² 9,1 °C 4,5 °C 24,1 km/h (4 Bft)
25.12.2023 05:01 21,3 °C 10,7 °C 56 % 90 % 1001,6 hPa 0,0 l/m² 26,9 km/h (4 Bft) S-SW 207 ° 0 min 0 W/m² 9,1 °C 2,3 °C 38,6 km/h (6 Bft)
25.12.2023 05:02 21,3 °C 10,7 °C 56 % 90 % 1001,7 hPa 0,0 l/m² 25,6 km/h (4 Bft) S-SW 211 ° 0 min 0 W/m² 9,1 °C 2,6 °C 32,2 km/h (5 Bft)
25.12.2023 05:03 21,3 °C 10,7 °C 56 % 90 % 1001,7 hPa 0,0 l/m² 26,4 km/h (4 Bft) S-SW 202 ° 0 min 0 W/m² 9,1 °C 2,4 °C 37,0 km/h (5 Bft)
25.12.2023 05:04 21,3 °C 10,7 °C 56 % 90 % 1001,6 hPa 0,0 l/m² 24,5 km/h (4 Bft) S-SW 207 ° 0 min 0 W/m² 9,1 °C 2,9 °C 33,8 km/h (5 Bft)
25.12.2023 05:05 21,3 °C 10,8 °C 56 % 90 % 1001,7 hPa 0,0 l/m² 24,0 km/h (4 Bft) S-SW 213 ° 0 min 0 W/m² 9,2 °C 3,2 °C 30,6 km/h (5 Bft)
25.12.2023 05:06 21,3 °C 10,8 °C 56 % 90 % 1001,7 hPa 0,0 l/m² 21,3 km/h (4 Bft) SW 219 ° 0 min 0 W/m² 9,2 °C 3,9 °C 25,7 km/h (4 Bft)
25.12.2023 05:07 21,3 °C 10,8 °C 56 % 90 % 1001,7 hPa 0,0 l/m² 19,5 km/h (3 Bft) SW 221 ° 0 min 0 W/m² 9,2 °C 4,5 °C 24,1 km/h (4 Bft)
25.12.2023 05:08 21,3 °C 10,8 °C 56 % 90 % 1001,7 hPa 0,0 l/m² 26,8 km/h (4 Bft) SW 215 ° 0 min 0 W/m² 9,2 °C 2,5 °C 33,8 km/h (5 Bft)
25.12.2023 05:09 21,3 °C 10,8 °C 56 % 90 % 1001,6 hPa 0,0 l/m² 32,8 km/h (5 Bft) SW 219 ° 0 min 0 W/m² 9,2 °C 1,2 °C 35,4 km/h (5 Bft)
25.12.2023 05:10 21,3 °C 10,8 °C 56 % 90 % 1001,6 hPa 0,0 l/m² 26,7 km/h (4 Bft) SW 222 ° 0 min 0 W/m² 9,2 °C 2,5 °C 30,6 km/h (5 Bft)
25.12.2023 05:12 21,3 °C 10,8 °C 56 % 90 % 1001,6 hPa 0,0 l/m² 26,7 km/h (4 Bft) SW 221 ° 0 min 0 W/m² 9,2 °C 2,5 °C 38,6 km/h (6 Bft)
25.12.2023 05:14 21,3 °C 10,8 °C 56 % 90 % 1001,6 hPa 0,0 l/m² 26,3 km/h (4 Bft) SW 227 ° 0 min 0 W/m² 9,2 °C 2,6 °C 33,8 km/h (5 Bft)
25.12.2023 05:15 21,3 °C 10,9 °C 56 % 89 % 1001,5 hPa 0,0 l/m² 25,1 km/h (4 Bft) S-SW 206 ° 0 min 0 W/m² 9,2 °C 3,0 °C 30,6 km/h (5 Bft)
25.12.2023 05:16 21,3 °C 10,9 °C 56 % 89 % 1001,5 hPa 0,0 l/m² 32,9 km/h (5 Bft) SW 217 ° 0 min 0 W/m² 9,2 °C 1,4 °C 40,2 km/h (6 Bft)
25.12.2023 05:17 21,3 °C 10,9 °C 56 % 89 % 1001,6 hPa 0,0 l/m² 26,7 km/h (4 Bft) S-SW 208 ° 0 min 0 W/m² 9,2 °C 2,6 °C 37,0 km/h (5 Bft)
25.12.2023 05:18 21,3 °C 10,9 °C 56 % 89 % 1001,5 hPa 0,0 l/m² 29,8 km/h (5 Bft) SW 225 ° 0 min 0 W/m² 9,2 °C 2,0 °C 37,0 km/h (5 Bft)
25.12.2023 05:19 21,3 °C 10,9 °C 56 % 89 % 1001,5 hPa 0,0 l/m² 33,2 km/h (5 Bft) SW 219 ° 0 min 0 W/m² 9,2 °C 1,3 °C 40,2 km/h (6 Bft)
25.12.2023 05:20 21,3 °C 10,9 °C 56 % 89 % 1001,6 hPa 0,0 l/m² 26,0 km/h (4 Bft) SW 221 ° 0 min 0 W/m² 9,2 °C 2,8 °C 32,2 km/h (5 Bft)
25.12.2023 05:22 21,3 °C 10,9 °C 56 % 89 % 1001,5 hPa 0,0 l/m² 23,8 km/h (4 Bft) S-SW 200 ° 0 min 0 W/m² 9,2 °C 3,4 °C 35,4 km/h (5 Bft)
25.12.2023 05:24 21,3 °C 10,9 °C 56 % 89 % 1001,7 hPa 0,0 l/m² 24,2 km/h (4 Bft) SW 219 ° 0 min 0 W/m² 9,2 °C 3,3 °C 40,2 km/h (6 Bft)
25.12.2023 05:25 21,3 °C 10,9 °C 56 % 89 % 1001,6 hPa 0,0 l/m² 31,6 km/h (5 Bft) SW 225 ° 0 min 0 W/m² 9,2 °C 1,6 °C 40,2 km/h (6 Bft)
25.12.2023 05:26 21,3 °C 10,9 °C 56 % 89 % 1001,6 hPa 0,0 l/m² 34,0 km/h (5 Bft) W-SW 245 ° 0 min 0 W/m² 9,2 °C 1,2 °C 43,5 km/h (6 Bft)
25.12.2023 05:27 21,3 °C 10,9 °C 56 % 89 % 1001,6 hPa 0,0 l/m² 23,4 km/h (4 Bft) SW 219 ° 0 min 0 W/m² 9,2 °C 3,5 °C 29,0 km/h (5 Bft)
25.12.2023 05:28 21,3 °C 10,9 °C 56 % 89 % 1001,6 hPa 0,0 l/m² 24,6 km/h (4 Bft) SW 215 ° 0 min 0 W/m² 9,2 °C 3,2 °C 32,2 km/h (5 Bft)
25.12.2023 05:29 21,3 °C 10,9 °C 56 % 89 % 1001,7 hPa 0,0 l/m² 30,1 km/h (5 Bft) SW 217 ° 0 min 0 W/m² 9,2 °C 1,9 °C 41,8 km/h (6 Bft)
25.12.2023 05:31 21,3 °C 10,9 °C 56 % 89 % 1001,7 hPa 0,0 l/m² 23,8 km/h (4 Bft) SW 218 ° 0 min 0 W/m² 9,2 °C 3,4 °C 32,2 km/h (5 Bft)
25.12.2023 05:33 21,3 °C 10,9 °C 56 % 89 % 1001,5 hPa 0,0 l/m² 21,3 km/h (4 Bft) S-SW 202 ° 0 min 0 W/m² 9,2 °C 4,1 °C 33,8 km/h (5 Bft)
25.12.2023 05:34 21,3 °C 10,9 °C 56 % 89 % 1001,5 hPa 0,0 l/m² 23,3 km/h (4 Bft) S-SW 210 ° 0 min 0 W/m² 9,2 °C 3,5 °C 30,6 km/h (5 Bft)
25.12.2023 05:35 21,3 °C 10,9 °C 56 % 89 % 1001,6 hPa 0,0 l/m² 29,1 km/h (5 Bft) SW 215 ° 0 min 0 W/m² 9,2 °C 2,1 °C 43,5 km/h (6 Bft)
25.12.2023 05:36 21,3 °C 10,9 °C 56 % 89 % 1001,6 hPa 0,0 l/m² 27,3 km/h (5 Bft) SW 232 ° 0 min 0 W/m² 9,2 °C 2,5 °C 35,4 km/h (5 Bft)
25.12.2023 05:37 21,3 °C 10,9 °C 56 % 89 % 1001,6 hPa 0,0 l/m² 24,7 km/h (4 Bft) SW 215 ° 0 min 0 W/m² 9,2 °C 3,1 °C 43,5 km/h (6 Bft)
25.12.2023 05:38 21,3 °C 10,9 °C 56 % 89 % 1001,6 hPa 0,0 l/m² 38,6 km/h (6 Bft) W-SW 251 ° 0 min 0 W/m² 9,2 °C 0,4 °C 48,3 km/h (6 Bft)
25.12.2023 05:39 21,3 °C 10,9 °C 56 % 89 % 1001,6 hPa 0,0 l/m² 25,7 km/h (4 Bft) S-SW 210 ° 0 min 0 W/m² 9,2 °C 2,9 °C 37,0 km/h (5 Bft)
25.12.2023 05:40 21,3 °C 10,8 °C 56 % 89 % 1001,6 hPa 0,0 l/m² 27,3 km/h (5 Bft) SW 227 ° 0 min 0 W/m² 9,1 °C 2,4 °C 35,4 km/h (5 Bft)
25.12.2023 05:42 21,3 °C 10,8 °C 56 % 89 % 1001,5 hPa 0,0 l/m² 21,2 km/h (4 Bft) SW 220 ° 0 min 0 W/m² 9,1 °C 4,0 °C 32,2 km/h (5 Bft)
25.12.2023 05:44 21,3 °C 10,8 °C 56 % 89 % 1001,5 hPa 0,0 l/m² 32,0 km/h (5 Bft) SW 226 ° 0 min 0 W/m² 9,1 °C 1,4 °C 45,1 km/h (6 Bft)
25.12.2023 05:45 21,3 °C 10,8 °C 56 % 89 % 1001,5 hPa 0,0 l/m² 23,4 km/h (4 Bft) SW 224 ° 0 min 0 W/m² 9,1 °C 3,3 °C 35,4 km/h (5 Bft)
25.12.2023 05:46 21,3 °C 10,8 °C 56 % 89 % 1001,6 hPa 0,0 l/m² 25,8 km/h (4 Bft) SW 229 ° 0 min 0 W/m² 9,1 °C 2,7 °C 32,2 km/h (5 Bft)
25.12.2023 05:47 21,3 °C 10,8 °C 56 % 90 % 1001,6 hPa 0,0 l/m² 27,7 km/h (5 Bft) S-SW 205 ° 0 min 0 W/m² 9,2 °C 2,3 °C 41,8 km/h (6 Bft)
25.12.2023 05:48 21,3 °C 10,8 °C 56 % 90 % 1001,6 hPa 0,0 l/m² 30,4 km/h (5 Bft) SW 234 ° 0 min 0 W/m² 9,2 °C 1,7 °C 40,2 km/h (6 Bft)
25.12.2023 05:49 21,3 °C 10,8 °C 56 % 90 % 1001,7 hPa 0,0 l/m² 27,5 km/h (5 Bft) SW 236 ° 0 min 0 W/m² 9,2 °C 2,3 °C 38,6 km/h (6 Bft)
25.12.2023 05:50 21,3 °C 10,8 °C 56 % 90 % 1001,7 hPa 0,0 l/m² 27,2 km/h (5 Bft) SW 227 ° 0 min 0 W/m² 9,2 °C 2,4 °C 40,2 km/h (6 Bft)
25.12.2023 05:52 21,3 °C 10,8 °C 56 % 90 % 1001,7 hPa 0,0 l/m² 21,2 km/h (4 Bft) S-SW 209 ° 0 min 0 W/m² 9,2 °C 4,0 °C 29,0 km/h (5 Bft)
25.12.2023 05:54 21,3 °C 10,7 °C 56 % 90 % 1001,9 hPa 0,0 l/m² 27,3 km/h (5 Bft) SW 215 ° 0 min 0 W/m² 9,1 °C 2,2 °C 41,8 km/h (6 Bft)
25.12.2023 05:55 21,3 °C 10,7 °C 56 % 90 % 1001,9 hPa 0,0 l/m² 29,0 km/h (5 Bft) SW 217 ° 0 min 0 W/m² 9,1 °C 1,9 °C 35,4 km/h (5 Bft)
25.12.2023 05:56 21,3 °C 10,7 °C 56 % 90 % 1001,8 hPa 0,0 l/m² 23,3 km/h (4 Bft) S-SW 213 ° 0 min 0 W/m² 9,1 °C 3,2 °C 30,6 km/h (5 Bft)
25.12.2023 05:57 21,3 °C 10,7 °C 56 % 90 % 1001,8 hPa 0,0 l/m² 23,2 km/h (4 Bft) SW 218 ° 0 min 0 W/m² 9,1 °C 3,3 °C 32,2 km/h (5 Bft)
25.12.2023 05:58 21,3 °C 10,7 °C 56 % 90 % 1001,8 hPa 0,0 l/m² 23,9 km/h (4 Bft) SW 221 ° 0 min 0 W/m² 9,1 °C 3,1 °C 30,6 km/h (5 Bft)
25.12.2023 05:59 21,3 °C 10,7 °C 56 % 90 % 1001,9 hPa 0,0 l/m² 22,2 km/h (4 Bft) SW 224 ° 0 min 0 W/m² 9,1 °C 3,5 °C 30,6 km/h (5 Bft)
25.12.2023 06:00 21,3 °C 10,7 °C 56 % 90 % 1001,9 hPa 0,0 l/m² 28,0 km/h (5 Bft) SW 230 ° 0 min 0 W/m² 9,1 °C 2,1 °C 33,8 km/h (5 Bft)
25.12.2023 06:02 21,3 °C 10,6 °C 56 % 91 % 1001,8 hPa 0,0 l/m² 21,4 km/h (4 Bft) W-SW 249 ° 0 min 0 W/m² 9,2 °C 3,6 °C 30,6 km/h (5 Bft)
25.12.2023 06:04 21,3 °C 10,6 °C 56 % 91 % 1001,9 hPa 0,0 l/m² 23,2 km/h (4 Bft) SW 219 ° 0 min 0 W/m² 9,2 °C 3,1 °C 30,6 km/h (5 Bft)
25.12.2023 06:05 21,3 °C 10,6 °C 56 % 91 % 1001,9 hPa 0,0 l/m² 22,7 km/h (4 Bft) SW 215 ° 0 min 0 W/m² 9,2 °C 3,3 °C 32,2 km/h (5 Bft)
25.12.2023 06:06 21,3 °C 10,6 °C 56 % 91 % 1001,8 hPa 0,0 l/m² 19,2 km/h (3 Bft) W-SW 237 ° 0 min 0 W/m² 9,2 °C 4,3 °C 29,0 km/h (5 Bft)
25.12.2023 06:07 21,3 °C 10,6 °C 56 % 91 % 1001,9 hPa 0,0 l/m² 18,2 km/h (3 Bft) SW 224 ° 0 min 0 W/m² 9,2 °C 4,7 °C 25,7 km/h (4 Bft)
25.12.2023 06:08 21,3 °C 10,6 °C 56 % 91 % 1001,9 hPa 0,0 l/m² 22,2 km/h (4 Bft) SW 229 ° 0 min 0 W/m² 9,2 °C 3,4 °C 37,0 km/h (5 Bft)
25.12.2023 06:09 21,3 °C 10,6 °C 56 % 91 % 1001,7 hPa 0,0 l/m² 22,7 km/h (4 Bft) SW 221 ° 0 min 0 W/m² 9,2 °C 3,3 °C 32,2 km/h (5 Bft)
25.12.2023 06:10 21,3 °C 10,6 °C 56 % 91 % 1001,8 hPa 0,0 l/m² 22,1 km/h (4 Bft) SW 219 ° 0 min 0 W/m² 9,2 °C 3,4 °C 32,2 km/h (5 Bft)
25.12.2023 06:12 21,3 °C 10,5 °C 56 % 91 % 1001,8 hPa 0,0 l/m² 23,6 km/h (4 Bft) SW 234 ° 0 min 0 W/m² 9,1 °C 2,9 °C 35,4 km/h (5 Bft)
25.12.2023 06:14 21,3 °C 10,5 °C 56 % 91 % 1001,8 hPa 0,0 l/m² 19,3 km/h (3 Bft) S-SW 205 ° 0 min 0 W/m² 9,1 °C 4,2 °C 29,0 km/h (5 Bft)
25.12.2023 06:15 21,4 °C 10,5 °C 56 % 91 % 1001,8 hPa 0,0 l/m² 25,8 km/h (4 Bft) S-SW 209 ° 0 min 0 W/m² 9,1 °C 2,3 °C 37,0 km/h (5 Bft)
25.12.2023 06:16 21,3 °C 10,5 °C 56 % 91 % 1001,7 hPa 0,0 l/m² 29,0 km/h (5 Bft) S-SW 202 ° 0 min 0 W/m² 9,1 °C 1,6 °C 40,2 km/h (6 Bft)
25.12.2023 06:17 21,3 °C 10,6 °C 56 % 91 % 1001,7 hPa 0,0 l/m² 27,0 km/h (5 Bft) SW 218 ° 0 min 0 W/m² 9,2 °C 2,2 °C 38,6 km/h (6 Bft)
25.12.2023 06:18 21,3 °C 10,5 °C 56 % 91 % 1001,7 hPa 0,0 l/m² 23,4 km/h (4 Bft) SW 222 ° 0 min 0 W/m² 9,1 °C 2,9 °C 30,6 km/h (5 Bft)
25.12.2023 06:19 21,3 °C 10,6 °C 56 % 91 % 1001,7 hPa 0,0 l/m² 24,9 km/h (4 Bft) SW 236 ° 0 min 0 W/m² 9,2 °C 2,7 °C 35,4 km/h (5 Bft)
25.12.2023 06:20 21,3 °C 10,6 °C 56 % 91 % 1001,7 hPa 0,0 l/m² 28,4 km/h (5 Bft) SW 236 ° 0 min 0 W/m² 9,2 °C 1,8 °C 40,2 km/h (6 Bft)
25.12.2023 06:22 21,4 °C 10,6 °C 56 % 91 % 1001,8 hPa 0,0 l/m² 25,4 km/h (4 Bft) SW 225 ° 0 min 0 W/m² 9,2 °C 2,5 °C 35,4 km/h (5 Bft)
25.12.2023 06:24 21,3 °C 10,6 °C 56 % 91 % 1001,7 hPa 0,0 l/m² 27,4 km/h (5 Bft) W-SW 246 ° 0 min 0 W/m² 9,2 °C 2,1 °C 37,0 km/h (5 Bft)
25.12.2023 06:25 21,3 °C 10,6 °C 56 % 91 % 1001,7 hPa 0,0 l/m² 24,1 km/h (4 Bft) SW 225 ° 0 min 0 W/m² 9,2 °C 2,9 °C 30,6 km/h (5 Bft)
25.12.2023 06:26 21,3 °C 10,6 °C 56 % 91 % 1001,7 hPa 0,0 l/m² 23,0 km/h (4 Bft) SW 221 ° 0 min 0 W/m² 9,2 °C 3,2 °C 38,6 km/h (6 Bft)
25.12.2023 06:27 21,3 °C 10,6 °C 56 % 91 % 1001,8 hPa 0,0 l/m² 30,9 km/h (5 Bft) SW 217 ° 0 min 0 W/m² 9,2 °C 1,3 °C 37,0 km/h (5 Bft)
25.12.2023 06:28 21,3 °C 10,6 °C 56 % 91 % 1001,8 hPa 0,0 l/m² 26,5 km/h (4 Bft) SW 228 ° 0 min 0 W/m² 9,2 °C 2,3 °C 37,0 km/h (5 Bft)
25.12.2023 06:29 21,4 °C 10,6 °C 56 % 91 % 1001,8 hPa 0,0 l/m² 22,2 km/h (4 Bft) W-SW 238 ° 0 min 0 W/m² 9,2 °C 3,4 °C 30,6 km/h (5 Bft)
25.12.2023 06:30 21,3 °C 10,6 °C 56 % 91 % 1001,8 hPa 0,0 l/m² 22,1 km/h (4 Bft) SW 220 ° 0 min 0 W/m² 9,2 °C 3,4 °C 29,0 km/h (5 Bft)
25.12.2023 06:32 21,3 °C 10,6 °C 56 % 91 % 1001,8 hPa 0,0 l/m² 26,6 km/h (4 Bft) W-SW 245 ° 0 min 0 W/m² 9,2 °C 2,3 °C 41,8 km/h (6 Bft)
25.12.2023 06:34 21,3 °C 10,6 °C 56 % 91 % 1001,8 hPa 0,0 l/m² 27,0 km/h (5 Bft) W-SW 251 ° 0 min 0 W/m² 9,2 °C 2,2 °C 40,2 km/h (6 Bft)
25.12.2023 06:35 21,3 °C 10,6 °C 56 % 91 % 1001,8 hPa 0,0 l/m² 24,9 km/h (4 Bft) SW 218 ° 0 min 0 W/m² 9,2 °C 2,7 °C 32,2 km/h (5 Bft)
25.12.2023 06:36 21,3 °C 10,6 °C 56 % 91 % 1001,7 hPa 0,0 l/m² 22,1 km/h (4 Bft) SW 229 ° 0 min 0 W/m² 9,2 °C 3,4 °C 33,8 km/h (5 Bft)
25.12.2023 06:37 21,3 °C 10,6 °C 56 % 91 % 1001,7 hPa 0,0 l/m² 26,5 km/h (4 Bft) SW 220 ° 0 min 0 W/m² 9,2 °C 2,3 °C 33,8 km/h (5 Bft)
25.12.2023 06:38 21,3 °C 10,6 °C 56 % 91 % 1001,8 hPa 0,0 l/m² 21,8 km/h (4 Bft) SW 217 ° 0 min 0 W/m² 9,2 °C 3,5 °C 27,4 km/h (5 Bft)
25.12.2023 06:39 21,3 °C 10,6 °C 56 % 91 % 1001,8 hPa 0,0 l/m² 28,6 km/h (5 Bft) SW 235 ° 0 min 0 W/m² 9,2 °C 1,8 °C 41,8 km/h (6 Bft)
25.12.2023 06:40 21,4 °C 10,6 °C 56 % 91 % 1001,8 hPa 0,0 l/m² 29,5 km/h (5 Bft) W-SW 252 ° 0 min 0 W/m² 9,2 °C 1,6 °C 38,6 km/h (6 Bft)
25.12.2023 06:42 21,3 °C 10,6 °C 56 % 91 % 1001,7 hPa 0,0 l/m² 24,8 km/h (4 Bft) SW 229 ° 0 min 0 W/m² 9,2 °C 2,7 °C 37,0 km/h (5 Bft)
25.12.2023 06:44 21,3 °C 10,6 °C 56 % 91 % 1001,8 hPa 0,0 l/m² 23,3 km/h (4 Bft) SW 231 ° 0 min 0 W/m² 9,2 °C 3,1 °C 32,2 km/h (5 Bft)
25.12.2023 06:46 21,4 °C 10,6 °C 56 % 91 % 1001,8 hPa 0,0 l/m² 23,6 km/h (4 Bft) S-SW 211 ° 0 min 0 W/m² 9,2 °C 3,0 °C 37,0 km/h (5 Bft)
25.12.2023 06:47 21,4 °C 10,6 °C 56 % 91 % 1001,7 hPa 0,0 l/m² 25,3 km/h (4 Bft) SW 224 ° 0 min 0 W/m² 9,2 °C 2,6 °C 35,4 km/h (5 Bft)
25.12.2023 06:48 21,3 °C 10,6 °C 56 % 91 % 1001,8 hPa 0,0 l/m² 22,3 km/h (4 Bft) W-SW 238 ° 0 min 0 W/m² 9,2 °C 3,4 °C 35,4 km/h (5 Bft)
25.12.2023 06:49 21,3 °C 10,6 °C 56 % 91 % 1001,8 hPa 0,0 l/m² 25,6 km/h (4 Bft) SW 229 ° 0 min 0 W/m² 9,2 °C 2,5 °C 30,6 km/h (5 Bft)
25.12.2023 06:50 21,3 °C 10,6 °C 56 % 91 % 1001,8 hPa 0,0 l/m² 24,3 km/h (4 Bft) SW 234 ° 0 min 0 W/m² 9,2 °C 2,8 °C 35,4 km/h (5 Bft)
25.12.2023 06:52 21,4 °C 10,7 °C 56 % 91 % 1001,9 hPa 0,0 l/m² 27,6 km/h (5 Bft) SW 224 ° 0 min 0 W/m² 9,3 °C 2,2 °C 41,8 km/h (6 Bft)
25.12.2023 06:54 21,4 °C 10,7 °C 56 % 91 % 1002,0 hPa 0,0 l/m² 31,5 km/h (5 Bft) W-SW 238 ° 0 min 0 W/m² 9,3 °C 1,3 °C 43,5 km/h (6 Bft)
25.12.2023 06:55 21,4 °C 10,7 °C 56 % 91 % 1002,0 hPa 0,0 l/m² 27,4 km/h (5 Bft) W-SW 241 ° 0 min 0 W/m² 9,3 °C 2,2 °C 37,0 km/h (5 Bft)
25.12.2023 06:56 21,4 °C 10,7 °C 56 % 91 % 1002,0 hPa 0,0 l/m² 28,8 km/h (5 Bft) W-SW 246 ° 0 min 0 W/m² 9,3 °C 1,9 °C 35,4 km/h (5 Bft)
25.12.2023 06:57 21,4 °C 10,7 °C 56 % 91 % 1002,0 hPa 0,0 l/m² 25,2 km/h (4 Bft) SW 232 ° 0 min 0 W/m² 9,3 °C 2,7 °C 32,2 km/h (5 Bft)
25.12.2023 06:58 21,4 °C 10,7 °C 56 % 91 % 1002,0 hPa 0,0 l/m² 22,1 km/h (4 Bft) W-SW 243 ° 0 min 0 W/m² 9,3 °C 3,6 °C 33,8 km/h (5 Bft)
25.12.2023 06:59 21,4 °C 10,8 °C 56 % 90 % 1001,9 hPa 0,0 l/m² 20,6 km/h (4 Bft) SW 228 ° 0 min 0 W/m² 9,2 °C 4,1 °C 29,0 km/h (5 Bft)
25.12.2023 07:00 21,4 °C 10,7 °C 56 % 90 % 1002,0 hPa 0,0 l/m² 25,9 km/h (4 Bft) SW 234 ° 0 min 0 W/m² 9,1 °C 2,6 °C 37,0 km/h (5 Bft)
25.12.2023 07:02 21,4 °C 10,7 °C 56 % 90 % 1002,0 hPa 0,0 l/m² 28,3 km/h (5 Bft) SW 234 ° 0 min 0 W/m² 9,1 °C 2,0 °C 38,6 km/h (6 Bft)
25.12.2023 07:04 21,4 °C 10,7 °C 56 % 90 % 1002,2 hPa 0,0 l/m² 28,0 km/h (5 Bft) W 271 ° 0 min 0 W/m² 9,1 °C 2,1 °C 38,6 km/h (6 Bft)
25.12.2023 07:05 21,4 °C 10,7 °C 56 % 90 % 1002,2 hPa 0,2 l/m² 32,1 km/h (5 Bft) W 266 ° 0 min 0 W/m² 9,1 °C 1,2 °C 45,1 km/h (6 Bft)
25.12.2023 07:06 21,4 °C 10,8 °C 56 % 90 % 1002,2 hPa 0,0 l/m² 29,2 km/h (5 Bft) W-SW 242 ° 0 min 0 W/m² 9,2 °C 1,9 °C 37,0 km/h (5 Bft)
25.12.2023 07:07 21,4 °C 10,7 °C 56 % 91 % 1002,2 hPa 0,0 l/m² 25,5 km/h (4 Bft) W-SW 240 ° 0 min 0 W/m² 9,3 °C 2,7 °C 33,8 km/h (5 Bft)
25.12.2023 07:08 21,4 °C 10,7 °C 56 % 91 % 1002,3 hPa 0,0 l/m² 28,2 km/h (5 Bft) SW 235 ° 0 min 0 W/m² 9,3 °C 2,0 °C 33,8 km/h (5 Bft)
25.12.2023 07:09 21,4 °C 10,7 °C 56 % 91 % 1002,2 hPa 0,0 l/m² 29,8 km/h (5 Bft) SW 236 ° 0 min 0 W/m² 9,3 °C 1,7 °C 35,4 km/h (5 Bft)
25.12.2023 07:10 21,4 °C 10,7 °C 56 % 91 % 1002,3 hPa 0,0 l/m² 23,8 km/h (4 Bft) SW 236 ° 0 min 0 W/m² 9,3 °C 3,1 °C 27,4 km/h (5 Bft)
25.12.2023 07:12 21,4 °C 10,7 °C 56 % 91 % 1002,3 hPa 0,0 l/m² 25,2 km/h (4 Bft) W-SW 252 ° 0 min 0 W/m² 9,3 °C 2,7 °C 37,0 km/h (5 Bft)
25.12.2023 07:14 21,4 °C 10,7 °C 56 % 91 % 1002,2 hPa 0,0 l/m² 27,1 km/h (5 Bft) W-SW 239 ° 0 min 0 W/m² 9,3 °C 2,3 °C 38,6 km/h (6 Bft)
25.12.2023 07:15 21,4 °C 10,6 °C 56 % 91 % 1002,2 hPa 0,0 l/m² 27,2 km/h (5 Bft) SW 225 ° 0 min 0 W/m² 9,2 °C 2,1 °C 32,2 km/h (5 Bft)
25.12.2023 07:16 21,4 °C 10,6 °C 56 % 91 % 1002,2 hPa 0,0 l/m² 18,5 km/h (3 Bft) W-SW 238 ° 0 min 0 W/m² 9,2 °C 4,6 °C 27,4 km/h (5 Bft)
25.12.2023 07:17 21,4 °C 10,6 °C 56 % 91 % 1002,2 hPa 0,2 l/m² 22,7 km/h (4 Bft) SW 227 ° 0 min 0 W/m² 9,2 °C 3,3 °C 32,2 km/h (5 Bft)
25.12.2023 07:18 21,4 °C 10,6 °C 56 % 91 % 1002,2 hPa 0,0 l/m² 25,2 km/h (4 Bft) SW 231 ° 0 min 0 W/m² 9,2 °C 2,6 °C 37,0 km/h (5 Bft)
25.12.2023 07:19 21,5 °C 10,6 °C 56 % 91 % 1002,1 hPa 0,0 l/m² 20,5 km/h (4 Bft) SW 226 ° 0 min 0 W/m² 9,2 °C 3,9 °C 29,0 km/h (5 Bft)
25.12.2023 07:20 21,5 °C 10,6 °C 56 % 91 % 1002,2 hPa 0,0 l/m² 19,6 km/h (3 Bft) SW 230 ° 0 min 0 W/m² 9,2 °C 4,2 °C 29,0 km/h (5 Bft)
25.12.2023 07:22 21,5 °C 10,5 °C 56 % 92 % 1002,3 hPa 0,0 l/m² 21,9 km/h (4 Bft) SW 229 ° 0 min 0 W/m² 9,3 °C 3,4 °C 29,0 km/h (5 Bft)
25.12.2023 07:24 21,4 °C 10,6 °C 56 % 92 % 1002,4 hPa 0,0 l/m² 19,8 km/h (3 Bft) SW 234 ° 0 min 0 W/m² 9,4 °C 4,1 °C 27,4 km/h (5 Bft)
25.12.2023 07:25 21,4 °C 10,6 °C 56 % 92 % 1002,4 hPa 0,0 l/m² 21,1 km/h (4 Bft) SW 229 ° 0 min 0 W/m² 9,4 °C 3,7 °C 35,4 km/h (5 Bft)
25.12.2023 07:26 21,5 °C 10,4 °C 57 % 92 % 1002,3 hPa 0,0 l/m² 22,9 km/h (4 Bft) SW 234 ° 0 min 0 W/m² 9,2 °C 2,9 °C 29,0 km/h (5 Bft)
25.12.2023 07:27 21,5 °C 10,5 °C 57 % 92 % 1002,3 hPa 0,0 l/m² 21,3 km/h (4 Bft) W-SW 247 ° 0 min 0 W/m² 9,3 °C 3,5 °C 27,4 km/h (5 Bft)
25.12.2023 07:28 21,4 °C 10,5 °C 57 % 92 % 1002,3 hPa 0,0 l/m² 23,1 km/h (4 Bft) SW 234 ° 0 min 0 W/m² 9,3 °C 3,0 °C 29,0 km/h (5 Bft)
25.12.2023 07:29 21,4 °C 10,5 °C 57 % 92 % 1002,2 hPa 0,0 l/m² 19,1 km/h (3 Bft) SW 236 ° 0 min 0 W/m² 9,3 °C 4,2 °C 24,1 km/h (4 Bft)
25.12.2023 07:30 21,5 °C 10,5 °C 57 % 92 % 1002,4 hPa 0,0 l/m² 21,0 km/h (4 Bft) SW 221 ° 0 min 0 W/m² 9,3 °C 3,6 °C 24,1 km/h (4 Bft)
25.12.2023 07:32 21,5 °C 10,5 °C 57 % 92 % 1002,4 hPa 0,0 l/m² 18,3 km/h (3 Bft) W-SW 254 ° 0 min 0 W/m² 9,3 °C 4,5 °C 27,4 km/h (5 Bft)
25.12.2023 07:34 21,5 °C 10,4 °C 57 % 92 % 1002,5 hPa 0,0 l/m² 15,1 km/h (3 Bft) W-SW 237 ° 0 min 0 W/m² 9,2 °C 5,6 °C 22,5 km/h (4 Bft)
25.12.2023 07:35 21,5 °C 10,5 °C 57 % 92 % 1002,4 hPa 0,0 l/m² 15,6 km/h (3 Bft) SW 227 ° 0 min 0 W/m² 9,3 °C 5,5 °C 20,9 km/h (4 Bft)
25.12.2023 07:36 21,5 °C 10,5 °C 57 % 92 % 1002,5 hPa 0,0 l/m² 15,6 km/h (3 Bft) SW 227 ° 0 min 0 W/m² 9,3 °C 5,5 °C 19,3 km/h (3 Bft)
25.12.2023 07:37 21,6 °C 10,5 °C 57 % 92 % 1002,5 hPa 0,0 l/m² 14,8 km/h (3 Bft) SW 221 ° 0 min 0 W/m² 9,3 °C 5,8 °C 19,3 km/h (3 Bft)
25.12.2023 07:38 21,6 °C 10,5 °C 57 % 92 % 1002,5 hPa 0,0 l/m² 16,0 km/h (3 Bft) SW 236 ° 0 min 0 W/m² 9,3 °C 5,3 °C 20,9 km/h (4 Bft)
25.12.2023 07:39 21,6 °C 10,4 °C 57 % 92 % 1002,5 hPa 0,0 l/m² 15,0 km/h (3 Bft) SW 216 ° 0 min 0 W/m² 9,2 °C 5,6 °C 20,9 km/h (4 Bft)
25.12.2023 07:40 21,6 °C 10,4 °C 57 % 92 % 1002,6 hPa 0,0 l/m² 12,9 km/h (3 Bft) SW 236 ° 0 min 0 W/m² 9,2 °C 6,5 °C 19,3 km/h (3 Bft)
25.12.2023 07:42 21,6 °C 10,5 °C 57 % 92 % 1002,6 hPa 0,0 l/m² 13,6 km/h (3 Bft) W-SW 242 ° 0 min 0 W/m² 9,3 °C 6,3 °C 19,3 km/h (3 Bft)
25.12.2023 07:44 21,6 °C 10,4 °C 57 % 92 % 1002,6 hPa 0,0 l/m² 12,7 km/h (3 Bft) SW 229 ° 0 min 0 W/m² 9,2 °C 6,6 °C 22,5 km/h (4 Bft)
25.12.2023 07:45 21,6 °C 10,4 °C 57 % 92 % 1002,6 hPa 0,0 l/m² 12,0 km/h (2 Bft) S-SW 211 ° 0 min 0 W/m² 9,2 °C 7,0 °C 20,9 km/h (4 Bft)
25.12.2023 07:46 21,6 °C 10,4 °C 57 % 92 % 1002,6 hPa 0,0 l/m² 10,7 km/h (2 Bft) SW 221 ° 0 min 0 W/m² 9,2 °C 7,6 °C 17,7 km/h (3 Bft)
25.12.2023 07:47 21,6 °C 10,4 °C 57 % 92 % 1002,6 hPa 0,0 l/m² 10,8 km/h (2 Bft) W-SW 240 ° 0 min 0 W/m² 9,2 °C 7,6 °C 17,7 km/h (3 Bft)
25.12.2023 07:48 21,6 °C 10,4 °C 58 % 92 % 1002,5 hPa 0,0 l/m² 10,5 km/h (2 Bft) W-SW 237 ° 0 min 0 W/m² 9,2 °C 7,8 °C 16,1 km/h (3 Bft)
25.12.2023 07:49 21,6 °C 10,4 °C 58 % 92 % 1002,8 hPa 0,0 l/m² 8,6 km/h (2 Bft) SW 229 ° 0 min 0 W/m² 9,2 °C 8,9 °C 14,5 km/h (3 Bft)
25.12.2023 07:50 21,6 °C 10,4 °C 58 % 92 % 1002,7 hPa 0,0 l/m² 12,4 km/h (2 Bft) W-SW 238 ° 0 min 0 W/m² 9,2 °C 6,8 °C 17,7 km/h (3 Bft)
25.12.2023 07:52 21,6 °C 10,4 °C 58 % 92 % 1002,6 hPa 0,0 l/m² 10,1 km/h (2 Bft) SW 216 ° 0 min 0 W/m² 9,2 °C 8,0 °C 16,1 km/h (3 Bft)
25.12.2023 07:54 21,6 °C 10,4 °C 58 % 93 % 1002,7 hPa 0,0 l/m² 10,4 km/h (2 Bft) SW 219 ° 0 min 0 W/m² 9,3 °C 7,8 °C 14,5 km/h (3 Bft)
25.12.2023 07:55 21,6 °C 10,3 °C 58 % 93 % 1002,7 hPa 0,0 l/m² 12,8 km/h (3 Bft) SW 226 ° 0 min 0 W/m² 9,2 °C 6,5 °C 14,5 km/h (3 Bft)
25.12.2023 07:56 21,6 °C 10,3 °C 58 % 93 % 1002,6 hPa 0,0 l/m² 10,8 km/h (2 Bft) SW 219 ° 0 min 0 W/m² 9,2 °C 7,5 °C 14,5 km/h (3 Bft)
25.12.2023 07:57 21,6 °C 10,3 °C 58 % 93 % 1002,6 hPa 0,0 l/m² 10,9 km/h (2 Bft) SW 227 ° 0 min 0 W/m² 9,2 °C 7,4 °C 14,5 km/h (3 Bft)
25.12.2023 07:58 21,6 °C 10,3 °C 58 % 93 % 1002,6 hPa 0,0 l/m² 8,2 km/h (2 Bft) SW 232 ° 0 min 0 W/m² 9,2 °C 9,0 °C 9,7 km/h (2 Bft)
25.12.2023 07:59 21,6 °C 10,3 °C 58 % 93 % 1002,6 hPa 0,0 l/m² 9,2 km/h (2 Bft) SW 227 ° 0 min 0 W/m² 9,2 °C 8,4 °C 12,9 km/h (3 Bft)
25.12.2023 08:00 21,6 °C 10,3 °C 58 % 93 % 1002,7 hPa 0,0 l/m² 8,3 km/h (2 Bft) SW 233 ° 0 min 0 W/m² 9,2 °C 9,0 °C 11,3 km/h (2 Bft)
25.12.2023 08:02 21,6 °C 10,3 °C 58 % 93 % 1002,7 hPa 0,0 l/m² 9,6 km/h (2 Bft) SW 227 ° 0 min 0 W/m² 9,2 °C 8,2 °C 12,9 km/h (3 Bft)
25.12.2023 08:03 21,6 °C 10,2 °C 58 % 93 % 1002,8 hPa 0,0 l/m² 7,5 km/h (2 Bft) SW 231 ° 0 min 0 W/m² 9,1 °C 9,4 °C 12,9 km/h (3 Bft)
25.12.2023 08:04 21,6 °C 10,3 °C 58 % 93 % 1002,8 hPa 0,0 l/m² 7,6 km/h (2 Bft) SW 229 ° 0 min 0 W/m² 9,2 °C 9,4 °C 11,3 km/h (2 Bft)
25.12.2023 08:05 21,6 °C 10,2 °C 58 % 93 % 1002,8 hPa 0,0 l/m² 13,3 km/h (3 Bft) W-SW 244 ° 0 min 0 W/m² 9,1 °C 6,1 °C 17,7 km/h (3 Bft)
25.12.2023 08:06 21,6 °C 10,2 °C 58 % 93 % 1002,9 hPa 0,0 l/m² 10,4 km/h (2 Bft) SW 225 ° 0 min 0 W/m² 9,1 °C 7,6 °C 12,9 km/h (3 Bft)
25.12.2023 08:07 21,7 °C 10,2 °C 59 % 93 % 1002,9 hPa 0,0 l/m² 9,2 km/h (2 Bft) SW 220 ° 0 min 0 W/m² 9,1 °C 8,3 °C 12,9 km/h (3 Bft)
25.12.2023 08:08 21,7 °C 10,2 °C 59 % 93 % 1002,9 hPa 0,0 l/m² 12,0 km/h (2 Bft) SW 232 ° 0 min 0 W/m² 9,1 °C 6,7 °C 16,1 km/h (3 Bft)
25.12.2023 08:09 21,7 °C 10,2 °C 59 % 93 % 1002,9 hPa 0,0 l/m² 9,9 km/h (2 Bft) W-SW 257 ° 0 min 0 W/m² 9,1 °C 7,9 °C 16,1 km/h (3 Bft)
25.12.2023 08:10 21,7 °C 10,2 °C 59 % 93 % 1003,0 hPa 0,0 l/m² 8,4 km/h (2 Bft) W-SW 242 ° 0 min 0 W/m² 9,1 °C 8,8 °C 11,3 km/h (2 Bft)
25.12.2023 08:12 21,7 °C 10,2 °C 60 % 93 % 1003,1 hPa 0,0 l/m² 10,9 km/h (2 Bft) W-SW 250 ° 0 min 0 W/m² 9,1 °C 7,3 °C 14,5 km/h (3 Bft)
25.12.2023 08:14 21,7 °C 10,2 °C 60 % 93 % 1003,1 hPa 0,2 l/m² 9,3 km/h (2 Bft) W-SW 251 ° 0 min 0 W/m² 9,1 °C 8,2 °C 14,5 km/h (3 Bft)
25.12.2023 08:15 21,7 °C 10,2 °C 60 % 93 % 1003,1 hPa 0,0 l/m² 12,2 km/h (2 Bft) W-SW 244 ° 0 min 0 W/m² 9,1 °C 6,6 °C 16,1 km/h (3 Bft)
25.12.2023 08:16 21,7 °C 10,2 °C 60 % 93 % 1003,1 hPa 0,0 l/m² 9,9 km/h (2 Bft) SW 234 ° 0 min 0 W/m² 9,1 °C 7,9 °C 14,5 km/h (3 Bft)
25.12.2023 08:17 21,7 °C 10,2 °C 60 % 93 % 1003,3 hPa 0,0 l/m² 10,3 km/h (2 Bft) W-SW 257 ° 0 min 0 W/m² 9,1 °C 7,6 °C 16,1 km/h (3 Bft)
25.12.2023 08:18 21,7 °C 10,2 °C 60 % 93 % 1003,2 hPa 0,0 l/m² 11,7 km/h (2 Bft) W-SW 244 ° 0 min 0 W/m² 9,1 °C 6,9 °C 17,7 km/h (3 Bft)
25.12.2023 08:19 21,7 °C 10,2 °C 60 % 93 % 1003,2 hPa 0,0 l/m² 10,6 km/h (2 Bft) W-SW 238 ° 0 min 0 W/m² 9,1 °C 7,5 °C 12,9 km/h (3 Bft)
25.12.2023 08:20 21,7 °C 10,2 °C 60 % 93 % 1003,3 hPa 0,2 l/m² 12,9 km/h (3 Bft) W-SW 256 ° 0 min 0 W/m² 9,1 °C 6,3 °C 16,1 km/h (3 Bft)
25.12.2023 08:22 21,7 °C 10,2 °C 60 % 93 % 1003,4 hPa 0,0 l/m² 12,4 km/h (2 Bft) W-SW 240 ° 0 min 0 W/m² 9,1 °C 6,5 °C 16,1 km/h (3 Bft)
25.12.2023 08:24 21,7 °C 10,2 °C 60 % 93 % 1003,3 hPa 0,0 l/m² 13,6 km/h (3 Bft) W-SW 245 ° 0 min 0 W/m² 9,1 °C 6,0 °C 19,3 km/h (3 Bft)
25.12.2023 08:25 21,7 °C 10,2 °C 60 % 93 % 1003,4 hPa 0,0 l/m² 18,0 km/h (3 Bft) SW 230 ° 0 min 0 W/m² 9,1 °C 4,2 °C 22,5 km/h (4 Bft)
25.12.2023 08:26 21,7 °C 10,1 °C 60 % 93 % 1003,3 hPa 0,0 l/m² 12,9 km/h (3 Bft) SW 229 ° 0 min 0 W/m² 9,0 °C 6,2 °C 19,3 km/h (3 Bft)
25.12.2023 08:27 21,7 °C 10,1 °C 60 % 93 % 1003,3 hPa 0,0 l/m² 13,7 km/h (3 Bft) SW 226 ° 0 min 0 W/m² 9,0 °C 5,8 °C 17,7 km/h (3 Bft)
25.12.2023 08:28 21,7 °C 10,1 °C 60 % 93 % 1003,3 hPa 0,0 l/m² 14,8 km/h (3 Bft) SW 235 ° 0 min 0 W/m² 9,0 °C 5,3 °C 19,3 km/h (3 Bft)
25.12.2023 08:29 21,7 °C 10,1 °C 60 % 93 % 1003,4 hPa 0,0 l/m² 13,3 km/h (3 Bft) SW 216 ° 0 min 0 W/m² 9,0 °C 6,0 °C 16,1 km/h (3 Bft)
25.12.2023 08:31 21,7 °C 10,1 °C 60 % 93 % 1003,5 hPa 0,0 l/m² 13,1 km/h (3 Bft) SW 232 ° 0 min 0 W/m² 9,0 °C 6,1 °C 17,7 km/h (3 Bft)
25.12.2023 08:33 21,7 °C 10,1 °C 60 % 93 % 1003,5 hPa 0,2 l/m² 13,8 km/h (3 Bft) SW 225 ° 0 min 0 W/m² 9,0 °C 5,8 °C 24,1 km/h (4 Bft)
25.12.2023 08:34 21,7 °C 10,1 °C 61 % 93 % 1003,5 hPa 0,0 l/m² 12,5 km/h (2 Bft) SW 223 ° 0 min 0 W/m² 9,0 °C 6,4 °C 16,1 km/h (3 Bft)
25.12.2023 08:35 21,7 °C 10,0 °C 61 % 93 % 1003,6 hPa 0,0 l/m² 12,9 km/h (3 Bft) SW 225 ° 0 min 0 W/m² 8,9 °C 6,1 °C 19,3 km/h (3 Bft)
25.12.2023 08:36 21,7 °C 10,0 °C 61 % 93 % 1003,6 hPa 0,0 l/m² 18,2 km/h (3 Bft) SW 220 ° 0 min 0 W/m² 8,9 °C 3,9 °C 27,4 km/h (5 Bft)
25.12.2023 08:37 21,7 °C 10,0 °C 61 % 93 % 1003,6 hPa 0,0 l/m² 16,3 km/h (3 Bft) S-SW 205 ° 0 min 0 W/m² 8,9 °C 4,6 °C 20,9 km/h (4 Bft)
25.12.2023 08:38 21,7 °C 10,0 °C 61 % 93 % 1003,6 hPa 0,0 l/m² 20,2 km/h (4 Bft) SW 231 ° 0 min 0 W/m² 8,9 °C 3,2 °C 30,6 km/h (5 Bft)
25.12.2023 08:39 21,7 °C 10,0 °C 61 % 93 % 1003,6 hPa 0,0 l/m² 24,0 km/h (4 Bft) W-SW 244 ° 0 min 0 W/m² 8,9 °C 2,1 °C 29,0 km/h (5 Bft)
25.12.2023 08:41 21,8 °C 10,0 °C 62 % 93 % 1003,7 hPa 0,0 l/m² 19,6 km/h (3 Bft) W-SW 242 ° 0 min 0 W/m² 8,9 °C 3,4 °C 25,7 km/h (4 Bft)
25.12.2023 08:43 21,8 °C 10,0 °C 62 % 93 % 1003,7 hPa 0,0 l/m² 18,4 km/h (3 Bft) W-SW 250 ° 0 min 0 W/m² 8,9 °C 3,8 °C 25,7 km/h (4 Bft)
25.12.2023 08:44 21,8 °C 10,0 °C 62 % 93 % 1003,8 hPa 0,0 l/m² 15,7 km/h (3 Bft) W-SW 246 ° 0 min 5 W/m² 8,9 °C 4,8 °C 19,3 km/h (3 Bft)
25.12.2023 08:45 21,8 °C 10,0 °C 62 % 93 % 1003,7 hPa 0,0 l/m² 14,9 km/h (3 Bft) W-SW 243 ° 0 min 5 W/m² 8,9 °C 5,2 °C 20,9 km/h (4 Bft)
25.12.2023 08:46 21,8 °C 10,0 °C 62 % 93 % 1003,7 hPa 0,0 l/m² 18,6 km/h (3 Bft) W 260 ° 0 min 5 W/m² 8,9 °C 3,8 °C 27,4 km/h (5 Bft)
25.12.2023 08:47 21,8 °C 9,9 °C 62 % 93 % 1003,7 hPa 0,0 l/m² 17,2 km/h (3 Bft) W-SW 254 ° 0 min 5 W/m² 8,8 °C 4,1 °C 22,5 km/h (4 Bft)
25.12.2023 08:48 21,8 °C 9,9 °C 62 % 93 % 1003,7 hPa 0,0 l/m² 17,2 km/h (3 Bft) W-SW 238 ° 0 min 7 W/m² 8,8 °C 4,1 °C 24,1 km/h (4 Bft)
25.12.2023 08:49 21,8 °C 10,0 °C 62 % 93 % 1003,8 hPa 0,0 l/m² 19,9 km/h (4 Bft) W-SW 248 ° 0 min 7 W/m² 8,9 °C 3,3 °C 25,7 km/h (4 Bft)
25.12.2023 08:51 21,8 °C 9,9 °C 62 % 93 % 1003,8 hPa 0,0 l/m² 18,9 km/h (3 Bft) W-SW 243 ° 0 min 7 W/m² 8,8 °C 3,5 °C 22,5 km/h (4 Bft)
25.12.2023 08:53 21,8 °C 9,9 °C 62 % 93 % 1003,8 hPa 0,0 l/m² 19,0 km/h (3 Bft) W-SW 237 ° 0 min 5 W/m² 8,8 °C 3,5 °C 22,5 km/h (4 Bft)
25.12.2023 08:54 21,8 °C 9,9 °C 62 % 93 % 1003,8 hPa 0,0 l/m² 18,8 km/h (3 Bft) W-SW 244 ° 0 min 5 W/m² 8,8 °C 3,6 °C 24,1 km/h (4 Bft)
25.12.2023 08:55 21,8 °C 9,9 °C 62 % 93 % 1003,9 hPa 0,0 l/m² 20,0 km/h (4 Bft) W-SW 240 ° 0 min 7 W/m² 8,8 °C 3,2 °C 25,7 km/h (4 Bft)
25.12.2023 08:56 21,8 °C 10,0 °C 62 % 93 % 1003,6 hPa 0,0 l/m² 17,9 km/h (3 Bft) W-SW 244 ° 0 min 11 W/m² 8,9 °C 4,0 °C 25,7 km/h (4 Bft)
25.12.2023 08:57 21,8 °C 9,9 °C 62 % 93 % 1003,6 hPa 0,0 l/m² 19,0 km/h (3 Bft) W-SW 244 ° 0 min 12 W/m² 8,8 °C 3,5 °C 25,7 km/h (4 Bft)
25.12.2023 08:58 21,8 °C 9,9 °C 62 % 93 % 1003,7 hPa 0,0 l/m² 18,2 km/h (3 Bft) SW 236 ° 0 min 12 W/m² 8,8 °C 3,8 °C 22,5 km/h (4 Bft)
25.12.2023 08:59 21,8 °C 10,0 °C 62 % 93 % 1003,8 hPa 0,0 l/m² 17,8 km/h (3 Bft) W 259 ° 0 min 14 W/m² 8,9 °C 4,0 °C 22,5 km/h (4 Bft)
25.12.2023 09:01 21,8 °C 9,9 °C 62 % 93 % 1003,8 hPa 0,0 l/m² 14,1 km/h (3 Bft) W-SW 251 ° 0 min 16 W/m² 8,8 °C 5,4 °C 19,3 km/h (3 Bft)
25.12.2023 09:03 21,8 °C 9,9 °C 62 % 93 % 1003,9 hPa 0,0 l/m² 14,3 km/h (3 Bft) W-SW 250 ° 0 min 18 W/m² 8,8 °C 5,3 °C 19,3 km/h (3 Bft)
25.12.2023 09:04 21,8 °C 9,9 °C 62 % 93 % 1003,8 hPa 0,0 l/m² 14,1 km/h (3 Bft) W-SW 246 ° 0 min 18 W/m² 8,8 °C 5,4 °C 17,7 km/h (3 Bft)
25.12.2023 09:05 21,8 °C 9,9 °C 62 % 93 % 1003,8 hPa 0,0 l/m² 12,1 km/h (2 Bft) W-SW 240 ° 0 min 18 W/m² 8,8 °C 6,3 °C 17,7 km/h (3 Bft)
25.12.2023 09:06 21,8 °C 9,9 °C 62 % 93 % 1003,9 hPa 0,0 l/m² 11,1 km/h (2 Bft) W-SW 246 ° 0 min 19 W/m² 8,8 °C 6,9 °C 14,5 km/h (3 Bft)
25.12.2023 09:07 21,8 °C 9,9 °C 62 % 93 % 1004,0 hPa 0,0 l/m² 13,1 km/h (3 Bft) W-SW 244 ° 0 min 19 W/m² 8,8 °C 5,9 °C 17,7 km/h (3 Bft)
25.12.2023 09:08 21,8 °C 9,9 °C 62 % 93 % 1003,9 hPa 0,0 l/m² 10,9 km/h (2 Bft) W-SW 252 ° 0 min 19 W/m² 8,8 °C 7,0 °C 16,1 km/h (3 Bft)
25.12.2023 09:09 21,8 °C 9,8 °C 62 % 93 % 1004,0 hPa 0,0 l/m² 12,2 km/h (2 Bft) W-SW 246 ° 0 min 19 W/m² 8,7 °C 6,2 °C 16,1 km/h (3 Bft)
25.12.2023 09:11 21,8 °C 9,8 °C 62 % 93 % 1004,0 hPa 0,0 l/m² 11,9 km/h (2 Bft) SW 230 ° 0 min 19 W/m² 8,7 °C 6,3 °C 17,7 km/h (3 Bft)
25.12.2023 09:13 21,9 °C 9,8 °C 62 % 93 % 1004,1 hPa 0,0 l/m² 10,4 km/h (2 Bft) SW 234 ° 0 min 19 W/m² 8,7 °C 7,1 °C 14,5 km/h (3 Bft)
25.12.2023 09:14 21,8 °C 9,8 °C 62 % 93 % 1004,1 hPa 0,0 l/m² 9,8 km/h (2 Bft) SW 221 ° 0 min 21 W/m² 8,7 °C 7,5 °C 12,9 km/h (3 Bft)
25.12.2023 09:15 21,8 °C 9,8 °C 62 % 93 % 1004,1 hPa 0,0 l/m² 9,2 km/h (2 Bft) SW 236 ° 0 min 25 W/m² 8,7 °C 7,9 °C 16,1 km/h (3 Bft)
25.12.2023 09:17 21,8 °C 9,8 °C 62 % 93 % 1004,1 hPa 0,0 l/m² 10,9 km/h (2 Bft) SW 228 ° 0 min 28 W/m² 8,7 °C 6,9 °C 17,7 km/h (3 Bft)
25.12.2023 09:18 21,8 °C 9,8 °C 62 % 93 % 1004,1 hPa 0,0 l/m² 11,6 km/h (2 Bft) SW 223 ° 0 min 30 W/m² 8,7 °C 6,5 °C 16,1 km/h (3 Bft)
25.12.2023 09:19 21,8 °C 9,8 °C 62 % 93 % 1004,1 hPa 0,0 l/m² 10,5 km/h (2 Bft) SW 227 ° 0 min 30 W/m² 8,7 °C 7,1 °C 16,1 km/h (3 Bft)
25.12.2023 09:21 21,9 °C 9,8 °C 62 % 93 % 1004,1 hPa 0,0 l/m² 12,5 km/h (2 Bft) SW 224 ° 0 min 32 W/m² 8,7 °C 6,0 °C 17,7 km/h (3 Bft)
25.12.2023 09:23 21,9 °C 9,7 °C 62 % 93 % 1004,1 hPa 0,0 l/m² 11,0 km/h (2 Bft) W-SW 237 ° 0 min 32 W/m² 8,6 °C 6,7 °C 16,1 km/h (3 Bft)
25.12.2023 09:24 21,9 °C 9,7 °C 62 % 93 % 1004,0 hPa 0,0 l/m² 10,5 km/h (2 Bft) S-SW 212 ° 0 min 33 W/m² 8,6 °C 7,0 °C 16,1 km/h (3 Bft)
25.12.2023 09:25 21,9 °C 9,7 °C 62 % 93 % 1004,0 hPa 0,0 l/m² 13,2 km/h (3 Bft) SW 219 ° 0 min 33 W/m² 8,6 °C 5,6 °C 16,1 km/h (3 Bft)
25.12.2023 09:26 21,9 °C 9,7 °C 62 % 93 % 1004,0 hPa 0,0 l/m² 10,1 km/h (2 Bft) SW 217 ° 0 min 35 W/m² 8,6 °C 7,2 °C 12,9 km/h (3 Bft)
25.12.2023 09:27 21,9 °C 9,7 °C 62 % 93 % 1004,0 hPa 0,0 l/m² 9,8 km/h (2 Bft) SW 223 ° 0 min 33 W/m² 8,6 °C 7,4 °C 11,3 km/h (2 Bft)
25.12.2023 09:28 21,9 °C 9,7 °C 62 % 93 % 1004,0 hPa 0,0 l/m² 11,5 km/h (2 Bft) SW 219 ° 0 min 30 W/m² 8,6 °C 6,4 °C 16,1 km/h (3 Bft)
25.12.2023 09:29 21,9 °C 9,7 °C 62 % 93 % 1004,0 hPa 0,0 l/m² 11,8 km/h (2 Bft) SW 214 ° 0 min 32 W/m² 8,6 °C 6,3 °C 16,1 km/h (3 Bft)
25.12.2023 09:31 21,9 °C 9,7 °C 62 % 93 % 1004,1 hPa 0,0 l/m² 11,2 km/h (2 Bft) SW 226 ° 0 min 35 W/m² 8,6 °C 6,6 °C 12,9 km/h (3 Bft)
25.12.2023 09:33 21,9 °C 9,7 °C 62 % 93 % 1004,0 hPa 0,2 l/m² 9,3 km/h (2 Bft) SW 218 ° 0 min 47 W/m² 8,6 °C 7,7 °C 12,9 km/h (3 Bft)
25.12.2023 09:34 21,9 °C 9,6 °C 62 % 93 % 1004,1 hPa 0,0 l/m² 9,3 km/h (2 Bft) SW 221 ° 0 min 46 W/m² 8,5 °C 7,6 °C 11,3 km/h (2 Bft)
25.12.2023 09:35 21,9 °C 9,6 °C 62 % 93 % 1004,0 hPa 0,0 l/m² 10,1 km/h (2 Bft) S-SW 210 ° 1 min 53 W/m² 8,5 °C 7,1 °C 12,9 km/h (3 Bft)
25.12.2023 09:36 21,9 °C 9,6 °C 62 % 93 % 1004,0 hPa 0,0 l/m² 10,7 km/h (2 Bft) SW 215 ° 1 min 58 W/m² 8,5 °C 6,8 °C 14,5 km/h (3 Bft)
25.12.2023 09:37 21,9 °C 9,6 °C 62 % 93 % 1004,0 hPa 0,0 l/m² 9,6 km/h (2 Bft) S-SW 212 ° 1 min 58 W/m² 8,5 °C 7,4 °C 11,3 km/h (2 Bft)
25.12.2023 09:38 21,9 °C 9,6 °C 62 % 93 % 1004,0 hPa 0,0 l/m² 9,8 km/h (2 Bft) S-SW 202 ° 1 min 86 W/m² 8,5 °C 7,3 °C 11,3 km/h (2 Bft)
25.12.2023 09:39 21,9 °C 9,6 °C 62 % 93 % 1004,0 hPa 0,0 l/m² 10,9 km/h (2 Bft) S-SW 207 ° 1 min 65 W/m² 8,5 °C 6,6 °C 14,5 km/h (3 Bft)
25.12.2023 09:41 21,9 °C 9,6 °C 62 % 93 % 1004,0 hPa 0,0 l/m² 11,2 km/h (2 Bft) S-SW 201 ° 2 min 54 W/m² 8,5 °C 6,5 °C 14,5 km/h (3 Bft)
25.12.2023 09:43 21,9 °C 9,6 °C 62 % 93 % 1003,9 hPa 0,0 l/m² 14,8 km/h (3 Bft) SW 215 ° 2 min 54 W/m² 8,5 °C 4,7 °C 17,7 km/h (3 Bft)
25.12.2023 09:44 21,9 °C 9,6 °C 62 % 93 % 1004,0 hPa 0,0 l/m² 11,3 km/h (2 Bft) S-SW 203 ° 1 min 58 W/m² 8,5 °C 6,4 °C 16,1 km/h (3 Bft)
25.12.2023 09:45 21,9 °C 9,6 °C 62 % 93 % 1004,0 hPa 0,0 l/m² 12,4 km/h (2 Bft) W-SW 238 ° 1 min 56 W/m² 8,5 °C 5,9 °C 16,1 km/h (3 Bft)
25.12.2023 09:46 21,9 °C 9,7 °C 62 % 93 % 1004,1 hPa 0,0 l/m² 9,8 km/h (2 Bft) SW 222 ° 0 min 40 W/m² 8,6 °C 7,4 °C 12,9 km/h (3 Bft)
25.12.2023 09:47 21,9 °C 9,7 °C 62 % 93 % 1004,0 hPa 0,0 l/m² 8,5 km/h (2 Bft) SW 218 ° 0 min 35 W/m² 8,6 °C 8,2 °C 12,9 km/h (3 Bft)
25.12.2023 09:48 21,9 °C 9,7 °C 62 % 93 % 1004,2 hPa 0,0 l/m² 11,0 km/h (2 Bft) SW 223 ° 0 min 35 W/m² 8,6 °C 6,7 °C 14,5 km/h (3 Bft)
25.12.2023 09:49 21,9 °C 9,7 °C 62 % 93 % 1004,2 hPa 0,0 l/m² 8,4 km/h (2 Bft) S-SW 200 ° 0 min 35 W/m² 8,6 °C 8,3 °C 12,9 km/h (3 Bft)
25.12.2023 09:51 21,9 °C 9,7 °C 63 % 93 % 1004,2 hPa 0,0 l/m² 10,1 km/h (2 Bft) SW 221 ° 0 min 40 W/m² 8,6 °C 7,2 °C 14,5 km/h (3 Bft)
25.12.2023 09:53 21,9 °C 9,8 °C 63 % 93 % 1004,2 hPa 0,0 l/m² 10,6 km/h (2 Bft) S-SW 209 ° 0 min 47 W/m² 8,7 °C 7,0 °C 14,5 km/h (3 Bft)
25.12.2023 09:54 21,9 °C 9,8 °C 63 % 93 % 1004,3 hPa 0,0 l/m² 11,6 km/h (2 Bft) SW 225 ° 0 min 47 W/m² 8,7 °C 6,5 °C 16,1 km/h (3 Bft)
25.12.2023 09:55 21,9 °C 9,8 °C 63 % 93 % 1004,4 hPa 0,0 l/m² 12,6 km/h (3 Bft) SW 223 ° 0 min 46 W/m² 8,7 °C 6,0 °C 19,3 km/h (3 Bft)
25.12.2023 09:56 21,9 °C 9,8 °C 63 % 93 % 1004,3 hPa 0,0 l/m² 11,0 km/h (2 Bft) SW 235 ° 0 min 44 W/m² 8,7 °C 6,8 °C 16,1 km/h (3 Bft)
25.12.2023 09:57 21,9 °C 9,8 °C 63 % 93 % 1004,4 hPa 0,0 l/m² 13,2 km/h (3 Bft) SW 233 ° 0 min 40 W/m² 8,7 °C 5,7 °C 20,9 km/h (4 Bft)
25.12.2023 09:58 21,9 °C 9,8 °C 63 % 93 % 1004,3 hPa 0,0 l/m² 15,4 km/h (3 Bft) W-SW 242 ° 0 min 35 W/m² 8,7 °C 4,7 °C 20,9 km/h (4 Bft)
25.12.2023 09:59 21,9 °C 9,8 °C 63 % 93 % 1004,3 hPa 0,0 l/m² 14,2 km/h (3 Bft) SW 225 ° 0 min 35 W/m² 8,7 °C 5,2 °C 19,3 km/h (3 Bft)
25.12.2023 10:01 21,9 °C 9,8 °C 63 % 93 % 1004,3 hPa 0,0 l/m² 17,4 km/h (3 Bft) SW 225 ° 0 min 37 W/m² 8,7 °C 3,9 °C 25,7 km/h (4 Bft)
25.12.2023 10:03 21,9 °C 9,9 °C 63 % 93 % 1004,3 hPa 0,0 l/m² 16,9 km/h (3 Bft) SW 227 ° 0 min 40 W/m² 8,8 °C 4,3 °C 22,5 km/h (4 Bft)
25.12.2023 10:04 21,9 °C 9,9 °C 63 % 93 % 1004,2 hPa 0,0 l/m² 16,7 km/h (3 Bft) SW 228 ° 0 min 40 W/m² 8,8 °C 4,3 °C 22,5 km/h (4 Bft)
25.12.2023 10:05 21,9 °C 9,9 °C 63 % 93 % 1004,2 hPa 0,0 l/m² 14,1 km/h (3 Bft) SW 218 ° 0 min 40 W/m² 8,8 °C 5,4 °C 22,5 km/h (4 Bft)
25.12.2023 10:06 21,9 °C 10,0 °C 63 % 93 % 1004,3 hPa 0,0 l/m² 17,2 km/h (3 Bft) SW 232 ° 0 min 42 W/m² 8,9 °C 4,3 °C 20,9 km/h (4 Bft)
25.12.2023 10:07 21,9 °C 10,0 °C 63 % 93 % 1004,3 hPa 0,0 l/m² 13,5 km/h (3 Bft) SW 234 ° 0 min 46 W/m² 8,9 °C 5,8 °C 17,7 km/h (3 Bft)
25.12.2023 10:08 21,9 °C 10,0 °C 63 % 93 % 1004,3 hPa 0,0 l/m² 16,2 km/h (3 Bft) SW 227 ° 0 min 49 W/m² 8,9 °C 4,6 °C 24,1 km/h (4 Bft)
25.12.2023 10:09 21,9 °C 10,1 °C 63 % 93 % 1004,4 hPa 0,0 l/m² 14,3 km/h (3 Bft) SW 217 ° 0 min 47 W/m² 9,0 °C 5,6 °C 24,1 km/h (4 Bft)
25.12.2023 10:11 21,9 °C 10,1 °C 63 % 92 % 1004,4 hPa 0,0 l/m² 20,1 km/h (4 Bft) SW 216 ° 0 min 44 W/m² 8,9 °C 3,4 °C 30,6 km/h (5 Bft)
25.12.2023 10:13 21,9 °C 10,2 °C 62 % 92 % 1004,4 hPa 0,0 l/m² 19,7 km/h (3 Bft) W-SW 251 ° 0 min 39 W/m² 9,0 °C 3,6 °C 27,4 km/h (5 Bft)
25.12.2023 10:14 21,9 °C 10,2 °C 61 % 92 % 1004,4 hPa 0,0 l/m² 18,8 km/h (3 Bft) SW 236 ° 0 min 39 W/m² 9,0 °C 3,9 °C 27,4 km/h (5 Bft)
25.12.2023 10:15 21,9 °C 10,3 °C 61 % 92 % 1004,4 hPa 0,0 l/m² 18,2 km/h (3 Bft) SW 230 ° 0 min 35 W/m² 9,1 °C 4,3 °C 24,1 km/h (4 Bft)
25.12.2023 10:16 21,9 °C 10,3 °C 61 % 92 % 1004,4 hPa 0,0 l/m² 19,9 km/h (4 Bft) SW 215 ° 0 min 32 W/m² 9,1 °C 3,7 °C 25,7 km/h (4 Bft)
25.12.2023 10:17 21,9 °C 10,3 °C 61 % 92 % 1004,5 hPa 0,0 l/m² 13,5 km/h (3 Bft) SW 226 ° 0 min 32 W/m² 9,1 °C 6,1 °C 19,3 km/h (3 Bft)
25.12.2023 10:18 21,9 °C 10,3 °C 61 % 92 % 1004,5 hPa 0,0 l/m² 14,6 km/h (3 Bft) SW 234 ° 0 min 28 W/m² 9,1 °C 5,7 °C 24,1 km/h (4 Bft)
25.12.2023 10:19 21,8 °C 10,4 °C 61 % 92 % 1004,4 hPa 0,0 l/m² 15,7 km/h (3 Bft) S-SW 212 ° 0 min 25 W/m² 9,2 °C 5,3 °C 22,5 km/h (4 Bft)
25.12.2023 10:21 21,8 °C 10,4 °C 61 % 92 % 1004,4 hPa 0,0 l/m² 21,5 km/h (4 Bft) SW 221 ° 0 min 23 W/m² 9,2 °C 3,3 °C 30,6 km/h (5 Bft)
25.12.2023 10:23 21,8 °C 10,5 °C 61 % 92 % 1004,4 hPa 0,0 l/m² 22,1 km/h (4 Bft) SW 233 ° 0 min 23 W/m² 9,3 °C 3,3 °C 32,2 km/h (5 Bft)
25.12.2023 10:24 21,8 °C 10,5 °C 60 % 92 % 1004,5 hPa 0,0 l/m² 20,6 km/h (4 Bft) W-SW 240 ° 0 min 25 W/m² 9,3 °C 3,7 °C 30,6 km/h (5 Bft)
25.12.2023 10:25 21,8 °C 10,5 °C 60 % 92 % 1004,6 hPa 0,0 l/m² 26,2 km/h (4 Bft) S-SW 211 ° 0 min 25 W/m² 9,3 °C 2,2 °C 32,2 km/h (5 Bft)
25.12.2023 10:26 21,8 °C 10,6 °C 59 % 92 % 1004,6 hPa 0,0 l/m² 21,7 km/h (4 Bft) SW 217 ° 0 min 25 W/m² 9,4 °C 3,5 °C 29,0 km/h (5 Bft)
25.12.2023 10:27 21,8 °C 10,6 °C 57 % 91 % 1004,6 hPa 0,0 l/m² 24,8 km/h (4 Bft) SW 225 ° 0 min 26 W/m² 9,2 °C 2,7 °C 32,2 km/h (5 Bft)
25.12.2023 10:28 21,8 °C 10,6 °C 56 % 91 % 1004,6 hPa 0,0 l/m² 24,3 km/h (4 Bft) SW 223 ° 0 min 28 W/m² 9,2 °C 2,8 °C 32,2 km/h (5 Bft)
25.12.2023 10:29 21,7 °C 10,6 °C 56 % 91 % 1004,6 hPa 0,0 l/m² 22,9 km/h (4 Bft) SW 221 ° 0 min 28 W/m² 9,2 °C 3,2 °C 27,4 km/h (5 Bft)
25.12.2023 10:31 21,7 °C 10,6 °C 57 % 91 % 1004,6 hPa 0,0 l/m² 17,1 km/h (3 Bft) SW 218 ° 0 min 26 W/m² 9,2 °C 5,0 °C 25,7 km/h (4 Bft)
25.12.2023 10:33 21,6 °C 10,6 °C 58 % 91 % 1004,7 hPa 0,0 l/m² 20,9 km/h (4 Bft) SW 220 ° 0 min 28 W/m² 9,2 °C 3,8 °C 32,2 km/h (5 Bft)
25.12.2023 10:34 21,6 °C 10,6 °C 58 % 91 % 1004,6 hPa 0,0 l/m² 19,7 km/h (3 Bft) SW 232 ° 0 min 30 W/m² 9,2 °C 4,2 °C 24,1 km/h (4 Bft)
25.12.2023 10:35 21,6 °C 10,6 °C 59 % 91 % 1004,7 hPa 0,0 l/m² 23,8 km/h (4 Bft) SW 220 ° 0 min 37 W/m² 9,2 °C 3,0 °C 30,6 km/h (5 Bft)
25.12.2023 10:36 21,6 °C 10,6 °C 59 % 91 % 1004,7 hPa 0,0 l/m² 17,7 km/h (3 Bft) SW 226 ° 0 min 35 W/m² 9,2 °C 4,8 °C 27,4 km/h (5 Bft)
25.12.2023 10:37 21,6 °C 10,6 °C 59 % 91 % 1004,6 hPa 0,0 l/m² 20,9 km/h (4 Bft) S-SW 202 ° 0 min 33 W/m² 9,2 °C 3,8 °C 30,6 km/h (5 Bft)
25.12.2023 10:38 21,6 °C 10,6 °C 59 % 91 % 1004,7 hPa 0,0 l/m² 20,9 km/h (4 Bft) W-SW 243 ° 0 min 32 W/m² 9,2 °C 3,8 °C 25,7 km/h (4 Bft)
25.12.2023 10:39 21,6 °C 10,6 °C 59 % 91 % 1004,7 hPa 0,0 l/m² 20,1 km/h (4 Bft) SW 226 ° 0 min 30 W/m² 9,2 °C 4,0 °C 24,1 km/h (4 Bft)
25.12.2023 10:41 21,6 °C 10,6 °C 59 % 91 % 1004,7 hPa 0,0 l/m² 21,4 km/h (4 Bft) SW 224 ° 0 min 25 W/m² 9,2 °C 3,6 °C 29,0 km/h (5 Bft)
25.12.2023 10:43 21,7 °C 10,6 °C 60 % 92 % 1004,7 hPa 0,0 l/m² 19,6 km/h (3 Bft) SW 223 ° 0 min 19 W/m² 9,4 °C 4,2 °C 25,7 km/h (4 Bft)
25.12.2023 10:44 21,7 °C 10,6 °C 60 % 92 % 1004,7 hPa 0,0 l/m² 13,5 km/h (3 Bft) W-SW 237 ° 0 min 18 W/m² 9,4 °C 6,5 °C 17,7 km/h (3 Bft)
25.12.2023 10:45 21,6 °C 10,6 °C 60 % 92 % 1004,7 hPa 0,0 l/m² 18,0 km/h (3 Bft) SW 229 ° 0 min 21 W/m² 9,4 °C 4,7 °C 27,4 km/h (5 Bft)
25.12.2023 10:46 21,7 °C 10,5 °C 60 % 92 % 1004,8 hPa 0,0 l/m² 20,5 km/h (4 Bft) W-SW 240 ° 0 min 21 W/m² 9,3 °C 3,8 °C 27,4 km/h (5 Bft)
25.12.2023 10:47 21,7 °C 10,6 °C 60 % 92 % 1004,7 hPa 0,0 l/m² 21,0 km/h (4 Bft) SW 229 ° 0 min 21 W/m² 9,4 °C 3,8 °C 29,0 km/h (5 Bft)
25.12.2023 10:48 21,7 °C 10,5 °C 60 % 92 % 1004,6 hPa 0,0 l/m² 24,8 km/h (4 Bft) SW 229 ° 0 min 21 W/m² 9,3 °C 2,6 °C 35,4 km/h (5 Bft)
25.12.2023 10:49 21,7 °C 10,5 °C 60 % 92 % 1004,8 hPa 0,0 l/m² 24,5 km/h (4 Bft) SW 219 ° 0 min 21 W/m² 9,3 °C 2,6 °C 32,2 km/h (5 Bft)
25.12.2023 10:51 21,7 °C 10,6 °C 60 % 92 % 1004,7 hPa 0,0 l/m² 23,1 km/h (4 Bft) S-SW 212 ° 0 min 32 W/m² 9,4 °C 3,1 °C 30,6 km/h (5 Bft)
25.12.2023 10:53 21,7 °C 10,6 °C 60 % 92 % 1004,7 hPa 0,0 l/m² 21,2 km/h (4 Bft) W-SW 249 ° 2 min 60 W/m² 9,4 °C 3,7 °C 30,6 km/h (5 Bft)
25.12.2023 10:54 21,7 °C 10,6 °C 60 % 92 % 1004,6 hPa 0,0 l/m² 17,6 km/h (3 Bft) SW 216 ° 1 min 67 W/m² 9,4 °C 4,9 °C 25,7 km/h (4 Bft)
25.12.2023 10:55 21,7 °C 10,6 °C 61 % 92 % 1004,6 hPa 0,0 l/m² 16,5 km/h (3 Bft) SW 223 ° 1 min 60 W/m² 9,4 °C 5,3 °C 25,7 km/h (4 Bft)
25.12.2023 10:56 21,7 °C 10,6 °C 61 % 92 % 1004,6 hPa 0,0 l/m² 19,0 km/h (3 Bft) SW 214 ° 1 min 62 W/m² 9,4 °C 4,4 °C 22,5 km/h (4 Bft)
25.12.2023 10:57 21,7 °C 10,6 °C 61 % 92 % 1004,5 hPa 0,0 l/m² 17,4 km/h (3 Bft) W-SW 240 ° 1 min 60 W/m² 9,4 °C 4,9 °C 22,5 km/h (4 Bft)
25.12.2023 10:58 21,7 °C 10,6 °C 61 % 92 % 1004,5 hPa 0,0 l/m² 18,8 km/h (3 Bft) W-SW 246 ° 1 min 60 W/m² 9,4 °C 4,5 °C 24,1 km/h (4 Bft)
25.12.2023 10:59 21,7 °C 10,7 °C 61 % 92 % 1004,4 hPa 0,0 l/m² 18,8 km/h (3 Bft) SW 225 ° 1 min 54 W/m² 9,5 °C 4,6 °C 32,2 km/h (5 Bft)
25.12.2023 11:01 21,7 °C 10,6 °C 61 % 92 % 1004,5 hPa 0,0 l/m² 16,9 km/h (3 Bft) SW 218 ° 0 min 49 W/m² 9,4 °C 5,1 °C 32,2 km/h (5 Bft)
25.12.2023 11:03 21,7 °C 10,6 °C 61 % 92 % 1004,5 hPa 0,0 l/m² 17,2 km/h (3 Bft) SW 222 ° 0 min 47 W/m² 9,4 °C 5,0 °C 24,1 km/h (4 Bft)
25.12.2023 11:04 21,7 °C 10,6 °C 61 % 92 % 1004,6 hPa 0,0 l/m² 16,6 km/h (3 Bft) SW 218 ° 0 min 47 W/m² 9,4 °C 5,2 °C 24,1 km/h (4 Bft)
25.12.2023 11:05 21,7 °C 10,6 °C 61 % 92 % 1004,6 hPa 0,0 l/m² 15,4 km/h (3 Bft) SW 223 ° 0 min 46 W/m² 9,4 °C 5,7 °C 22,5 km/h (4 Bft)
25.12.2023 11:06 21,7 °C 10,6 °C 61 % 92 % 1004,5 hPa 0,0 l/m² 20,9 km/h (4 Bft) SW 222 ° 0 min 44 W/m² 9,4 °C 3,8 °C 24,1 km/h (4 Bft)
25.12.2023 11:07 21,7 °C 10,6 °C 61 % 92 % 1004,6 hPa 0,0 l/m² 19,7 km/h (3 Bft) SW 220 ° 0 min 39 W/m² 9,4 °C 4,2 °C 24,1 km/h (4 Bft)
25.12.2023 11:08 21,7 °C 10,6 °C 61 % 92 % 1004,7 hPa 0,0 l/m² 20,7 km/h (4 Bft) S-SW 209 ° 0 min 28 W/m² 9,4 °C 3,8 °C 25,7 km/h (4 Bft)
25.12.2023 11:09 21,7 °C 10,6 °C 61 % 92 % 1004,6 hPa 0,0 l/m² 18,7 km/h (3 Bft) SW 222 ° 0 min 25 W/m² 9,4 °C 4,5 °C 25,7 km/h (4 Bft)
25.12.2023 11:11 21,7 °C 10,6 °C 61 % 92 % 1004,7 hPa 0,0 l/m² 16,9 km/h (3 Bft) SW 223 ° 0 min 23 W/m² 9,4 °C 5,1 °C 25,7 km/h (4 Bft)
25.12.2023 11:13 21,7 °C 10,6 °C 61 % 92 % 1004,6 hPa 0,0 l/m² 18,3 km/h (3 Bft) SW 236 ° 0 min 28 W/m² 9,4 °C 4,6 °C 29,0 km/h (5 Bft)
25.12.2023 11:14 21,8 °C 10,6 °C 61 % 92 % 1004,6 hPa 0,0 l/m² 14,8 km/h (3 Bft) SW 229 ° 0 min 32 W/m² 9,4 °C 5,9 °C 20,9 km/h (4 Bft)
25.12.2023 11:15 21,7 °C 10,6 °C 61 % 92 % 1004,6 hPa 0,0 l/m² 17,5 km/h (3 Bft) S-SW 209 ° 0 min 32 W/m² 9,4 °C 4,9 °C 22,5 km/h (4 Bft)
25.12.2023 11:16 21,7 °C 10,6 °C 61 % 92 % 1004,7 hPa 0,0 l/m² 19,6 km/h (3 Bft) W-SW 255 ° 0 min 30 W/m² 9,4 °C 4,2 °C 27,4 km/h (5 Bft)
25.12.2023 11:17 21,7 °C 10,6 °C 60 % 92 % 1004,8 hPa 0,0 l/m² 16,6 km/h (3 Bft) S-SW 212 ° 0 min 30 W/m² 9,4 °C 5,2 °C 22,5 km/h (4 Bft)
25.12.2023 11:18 21,7 °C 10,6 °C 60 % 92 % 1004,7 hPa 0,0 l/m² 18,1 km/h (3 Bft) W-SW 239 ° 0 min 32 W/m² 9,4 °C 4,7 °C 24,1 km/h (4 Bft)
25.12.2023 11:19 21,8 °C 10,6 °C 60 % 92 % 1004,8 hPa 0,0 l/m² 15,4 km/h (3 Bft) SW 226 ° 0 min 33 W/m² 9,4 °C 5,7 °C 19,3 km/h (3 Bft)
25.12.2023 11:21 21,8 °C 10,6 °C 61 % 92 % 1004,8 hPa 0,0 l/m² 15,9 km/h (3 Bft) SW 224 ° 0 min 25 W/m² 9,4 °C 5,5 °C 24,1 km/h (4 Bft)
25.12.2023 11:23 21,8 °C 10,6 °C 61 % 92 % 1004,9 hPa 0,0 l/m² 15,2 km/h (3 Bft) SW 229 ° 0 min 23 W/m² 9,4 °C 5,8 °C 20,9 km/h (4 Bft)
25.12.2023 11:24 21,8 °C 10,6 °C 61 % 92 % 1004,8 hPa 0,0 l/m² 17,0 km/h (3 Bft) SW 217 ° 0 min 25 W/m² 9,4 °C 5,1 °C 20,9 km/h (4 Bft)
25.12.2023 11:25 21,8 °C 10,6 °C 61 % 92 % 1004,9 hPa 0,0 l/m² 16,5 km/h (3 Bft) SW 225 ° 0 min 26 W/m² 9,4 °C 5,3 °C 19,3 km/h (3 Bft)
25.12.2023 11:26 21,8 °C 10,6 °C 61 % 92 % 1005,0 hPa 0,0 l/m² 14,8 km/h (3 Bft) SW 227 ° 0 min 39 W/m² 9,4 °C 5,9 °C 19,3 km/h (3 Bft)
25.12.2023 11:27 21,8 °C 10,6 °C 62 % 92 % 1004,9 hPa 0,0 l/m² 13,6 km/h (3 Bft) SW 225 ° 0 min 42 W/m² 9,4 °C 6,5 °C 19,3 km/h (3 Bft)
25.12.2023 11:28 21,8 °C 10,6 °C 62 % 92 % 1004,9 hPa 0,0 l/m² 11,1 km/h (2 Bft) SW 228 ° 0 min 46 W/m² 9,4 °C 7,7 °C 16,1 km/h (3 Bft)
25.12.2023 11:29 21,8 °C 10,6 °C 62 % 92 % 1004,9 hPa 0,0 l/m² 14,5 km/h (3 Bft) SW 215 ° 0 min 46 W/m² 9,4 °C 6,1 °C 20,9 km/h (4 Bft)
25.12.2023 11:31 21,8 °C 10,6 °C 63 % 92 % 1004,9 hPa 0,0 l/m² 11,3 km/h (2 Bft) S-SW 209 ° 0 min 49 W/m² 9,4 °C 7,6 °C 19,3 km/h (3 Bft)
25.12.2023 11:33 21,9 °C 10,6 °C 63 % 92 % 1004,8 hPa 0,0 l/m² 11,3 km/h (2 Bft) SW 217 ° 2 min 58 W/m² 9,4 °C 7,6 °C 16,1 km/h (3 Bft)
25.12.2023 11:34 21,9 °C 10,6 °C 64 % 93 % 1004,7 hPa 0,0 l/m² 12,2 km/h (2 Bft) S-SW 201 ° 1 min 58 W/m² 9,5 °C 7,1 °C 14,5 km/h (3 Bft)
25.12.2023 11:35 21,9 °C 10,6 °C 63 % 93 % 1004,6 hPa 0,0 l/m² 13,2 km/h (3 Bft) S-SW 208 ° 1 min 60 W/m² 9,5 °C 6,6 °C 16,1 km/h (3 Bft)
25.12.2023 11:36 21,9 °C 10,6 °C 63 % 93 % 1004,7 hPa 0,0 l/m² 13,4 km/h (3 Bft) SW 221 ° 1 min 60 W/m² 9,5 °C 6,5 °C 16,1 km/h (3 Bft)
25.12.2023 11:37 22,0 °C 10,6 °C 63 % 93 % 1004,8 hPa 0,0 l/m² 9,7 km/h (2 Bft) S-SW 212 ° 1 min 53 W/m² 9,5 °C 8,4 °C 12,9 km/h (3 Bft)
25.12.2023 11:38 22,1 °C 10,6 °C 64 % 93 % 1004,8 hPa 0,0 l/m² 8,2 km/h (2 Bft) SW 222 ° 1 min 54 W/m² 9,5 °C 9,4 °C 11,3 km/h (2 Bft)
25.12.2023 11:39 22,1 °C 10,7 °C 64 % 93 % 1004,8 hPa 0,0 l/m² 10,2 km/h (2 Bft) SW 227 ° 1 min 54 W/m² 9,6 °C 8,3 °C 16,1 km/h (3 Bft)
25.12.2023 11:40 22,0 °C 10,6 °C 64 % 93 % 1004,8 hPa 0,0 l/m² 10,3 km/h (2 Bft) SW 215 ° 1 min 53 W/m² 9,5 °C 8,1 °C 12,9 km/h (3 Bft)
25.12.2023 11:42 22,1 °C 10,7 °C 64 % 93 % 1004,8 hPa 0,0 l/m² 8,1 km/h (2 Bft) SW 220 ° 0 min 44 W/m² 9,6 °C 9,5 °C 12,9 km/h (3 Bft)
25.12.2023 11:43 22,1 °C 10,7 °C 64 % 93 % 1004,8 hPa 0,0 l/m² 12,5 km/h (2 Bft) SW 220 ° 0 min 49 W/m² 9,6 °C 7,1 °C 16,1 km/h (3 Bft)
25.12.2023 11:44 22,1 °C 10,6 °C 64 % 93 % 1004,9 hPa 0,0 l/m² 9,8 km/h (2 Bft) SW 225 ° 0 min 47 W/m² 9,5 °C 8,4 °C 12,9 km/h (3 Bft)
25.12.2023 11:45 22,1 °C 10,7 °C 64 % 93 % 1004,8 hPa 0,0 l/m² 9,3 km/h (2 Bft) SW 223 ° 0 min 46 W/m² 9,6 °C 8,8 °C 12,9 km/h (3 Bft)
25.12.2023 11:46 22,1 °C 10,7 °C 64 % 93 % 1004,8 hPa 0,0 l/m² 9,2 km/h (2 Bft) SW 229 ° 0 min 42 W/m² 9,6 °C 8,8 °C 11,3 km/h (2 Bft)
25.12.2023 11:47 22,1 °C 10,6 °C 64 % 93 % 1004,8 hPa 0,0 l/m² 10,3 km/h (2 Bft) SW 230 ° 0 min 42 W/m² 9,5 °C 8,1 °C 14,5 km/h (3 Bft)
25.12.2023 11:48 22,1 °C 10,7 °C 64 % 93 % 1004,8 hPa 0,0 l/m² 9,1 km/h (2 Bft) S-SW 210 ° 0 min 44 W/m² 9,6 °C 8,9 °C 11,3 km/h (2 Bft)
25.12.2023 11:49 22,1 °C 10,6 °C 64 % 93 % 1004,8 hPa 0,0 l/m² 9,6 km/h (2 Bft) SW 223 ° 0 min 44 W/m² 9,5 °C 8,5 °C 11,3 km/h (2 Bft)
25.12.2023 11:51 22,1 °C 10,6 °C 64 % 93 % 1004,8 hPa 0,0 l/m² 8,9 km/h (2 Bft) SW 226 ° 0 min 49 W/m² 9,5 °C 8,9 °C 14,5 km/h (3 Bft)
25.12.2023 11:53 22,2 °C 10,7 °C 64 % 93 % 1004,9 hPa 0,0 l/m² 8,5 km/h (2 Bft) SW 229 ° 0 min 46 W/m² 9,6 °C 9,3 °C 11,3 km/h (2 Bft)
25.12.2023 11:54 22,2 °C 10,6 °C 64 % 93 % 1004,8 hPa 0,0 l/m² 8,9 km/h (2 Bft) SW 221 ° 0 min 44 W/m² 9,5 °C 8,9 °C 11,3 km/h (2 Bft)
25.12.2023 11:55 22,2 °C 10,6 °C 64 % 93 % 1004,9 hPa 0,0 l/m² 9,2 km/h (2 Bft) SW 229 ° 0 min 44 W/m² 9,5 °C 8,7 °C 11,3 km/h (2 Bft)
25.12.2023 11:56 22,2 °C 10,7 °C 64 % 93 % 1004,9 hPa 0,0 l/m² 11,6 km/h (2 Bft) SW 228 ° 0 min 42 W/m² 9,6 °C 7,5 °C 16,1 km/h (3 Bft)
25.12.2023 11:57 22,2 °C 10,6 °C 64 % 93 % 1004,9 hPa 0,0 l/m² 9,3 km/h (2 Bft) W-SW 243 ° 0 min 39 W/m² 9,5 °C 8,7 °C 14,5 km/h (3 Bft)
25.12.2023 11:58 22,2 °C 10,7 °C 64 % 93 % 1004,9 hPa 0,0 l/m² 9,4 km/h (2 Bft) SW 231 ° 0 min 37 W/m² 9,6 °C 8,7 °C 16,1 km/h (3 Bft)
25.12.2023 11:59 22,2 °C 10,6 °C 64 % 93 % 1004,9 hPa 0,0 l/m² 7,4 km/h (2 Bft) SW 225 ° 0 min 35 W/m² 9,5 °C 9,9 °C 11,3 km/h (2 Bft)
25.12.2023 12:01 22,2 °C 10,6 °C 64 % 93 % 1004,9 hPa 0,0 l/m² 6,3 km/h (2 Bft) SW 229 ° 0 min 33 W/m² 9,5 °C 10,6 °C 11,3 km/h (2 Bft)
25.12.2023 12:03 22,3 °C 10,7 °C 65 % 93 % 1004,9 hPa 0,0 l/m² 9,1 km/h (2 Bft) SW 219 ° 0 min 32 W/m² 9,6 °C 8,9 °C 12,9 km/h (3 Bft)
25.12.2023 12:04 22,3 °C 10,7 °C 65 % 93 % 1004,9 hPa 0,0 l/m² 7,4 km/h (2 Bft) SW 236 ° 0 min 33 W/m² 9,6 °C 10,0 °C 14,5 km/h (3 Bft)
25.12.2023 12:05 22,3 °C 10,7 °C 66 % 93 % 1004,9 hPa 0,0 l/m² 10,9 km/h (2 Bft) SW 233 ° 0 min 35 W/m² 9,6 °C 7,9 °C 16,1 km/h (3 Bft)
25.12.2023 12:06 22,3 °C 10,7 °C 65 % 93 % 1005,0 hPa 0,0 l/m² 6,8 km/h (2 Bft) W-SW 239 ° 0 min 39 W/m² 9,6 °C 10,4 °C 8,0 km/h (2 Bft)
25.12.2023 12:07 22,3 °C 10,7 °C 65 % 93 % 1005,0 hPa 0,0 l/m² 6,6 km/h (2 Bft) SW 224 ° 0 min 42 W/m² 9,6 °C 10,6 °C 8,0 km/h (2 Bft)
25.12.2023 12:08 22,3 °C 10,7 °C 65 % 93 % 1005,0 hPa 0,0 l/m² 5,5 km/h (2 Bft) W-SW 237 ° 0 min 46 W/m² 9,6 °C 10,7 °C 8,0 km/h (2 Bft)
25.12.2023 12:09 22,3 °C 10,7 °C 66 % 93 % 1005,0 hPa 0,0 l/m² 8,4 km/h (2 Bft) SW 229 ° 0 min 51 W/m² 9,6 °C 9,3 °C 14,5 km/h (3 Bft)
25.12.2023 12:10 22,3 °C 10,7 °C 66 % 93 % 1005,0 hPa 0,0 l/m² 9,3 km/h (2 Bft) W-SW 239 ° 1 min 56 W/m² 9,6 °C 8,8 °C 14,5 km/h (3 Bft)
25.12.2023 12:11 22,4 °C 10,7 °C 66 % 93 % 1005,0 hPa 0,0 l/m² 6,4 km/h (2 Bft) SW 230 ° 1 min 65 W/m² 9,6 °C 10,7 °C 11,3 km/h (2 Bft)
25.12.2023 12:12 22,4 °C 10,7 °C 66 % 93 % 1005,0 hPa 0,0 l/m² 5,8 km/h (2 Bft) SW 230 ° 1 min 63 W/m² 9,6 °C 10,7 °C 8,0 km/h (2 Bft)
25.12.2023 12:13 22,4 °C 10,7 °C 66 % 93 % 1005,0 hPa 0,0 l/m² 4,7 km/h (1 Bft) W-SW 243 ° 1 min 60 W/m² 9,6 °C 10,7 °C 6,4 km/h (2 Bft)
25.12.2023 12:14 22,4 °C 10,7 °C 66 % 93 % 1005,1 hPa 0,0 l/m² 9,0 km/h (2 Bft) SW 236 ° 1 min 58 W/m² 9,6 °C 9,0 °C 12,9 km/h (3 Bft)
25.12.2023 12:15 22,4 °C 10,7 °C 66 % 93 % 1005,1 hPa 0,0 l/m² 7,4 km/h (2 Bft) SW 231 ° 0 min 51 W/m² 9,6 °C 10,0 °C 9,7 km/h (2 Bft)
25.12.2023 12:16 22,4 °C 10,7 °C 66 % 93 % 1005,1 hPa 0,0 l/m² 6,4 km/h (2 Bft) SW 231 ° 0 min 44 W/m² 9,6 °C 10,7 °C 9,7 km/h (2 Bft)
25.12.2023 12:17 22,4 °C 10,7 °C 66 % 93 % 1005,1 hPa 0,0 l/m² 8,3 km/h (2 Bft) SW 226 ° 0 min 40 W/m² 9,6 °C 9,4 °C 11,3 km/h (2 Bft)
25.12.2023 12:18 22,4 °C 10,7 °C 67 % 93 % 1005,1 hPa 0,0 l/m² 4,3 km/h (1 Bft) SW 235 ° 0 min 40 W/m² 9,6 °C 10,7 °C 8,0 km/h (2 Bft)
25.12.2023 12:19 22,4 °C 10,7 °C 67 % 93 % 1005,2 hPa 0,0 l/m² 5,3 km/h (1 Bft) SW 226 ° 0 min 40 W/m² 9,6 °C 10,7 °C 8,0 km/h (2 Bft)
25.12.2023 12:21 22,4 °C 10,7 °C 67 % 93 % 1005,2 hPa 0,0 l/m² 8,0 km/h (2 Bft) SW 234 ° 0 min 46 W/m² 9,6 °C 9,6 °C 12,9 km/h (3 Bft)
25.12.2023 12:23 22,5 °C 10,7 °C 67 % 93 % 1005,2 hPa 0,0 l/m² 7,4 km/h (2 Bft) SW 229 ° 2 min 56 W/m² 9,6 °C 10,0 °C 11,3 km/h (2 Bft)
25.12.2023 12:24 22,5 °C 10,7 °C 68 % 93 % 1005,3 hPa 0,0 l/m² 7,1 km/h (2 Bft) S-SW 205 ° 0 min 44 W/m² 9,6 °C 10,2 °C 12,9 km/h (3 Bft)
25.12.2023 12:25 22,5 °C 10,7 °C 67 % 93 % 1005,4 hPa 0,0 l/m² 8,7 km/h (2 Bft) W-SW 244 ° 0 min 39 W/m² 9,6 °C 9,1 °C 14,5 km/h (3 Bft)
25.12.2023 12:27 22,6 °C 10,7 °C 68 % 93 % 1005,3 hPa 0,0 l/m² 8,1 km/h (2 Bft) SW 223 ° 0 min 33 W/m² 9,6 °C 9,5 °C 14,5 km/h (3 Bft)
25.12.2023 12:28 22,6 °C 10,7 °C 68 % 93 % 1005,3 hPa 0,0 l/m² 9,8 km/h (2 Bft) SW 229 ° 0 min 32 W/m² 9,6 °C 8,5 °C 14,5 km/h (3 Bft)
25.12.2023 12:29 22,6 °C 10,8 °C 68 % 93 % 1005,4 hPa 0,0 l/m² 9,7 km/h (2 Bft) SW 227 ° 0 min 33 W/m² 9,7 °C 8,6 °C 16,1 km/h (3 Bft)
25.12.2023 12:31 22,6 °C 10,7 °C 68 % 93 % 1005,4 hPa 0,0 l/m² 9,1 km/h (2 Bft) SW 230 ° 0 min 47 W/m² 9,6 °C 8,9 °C 12,9 km/h (3 Bft)
25.12.2023 12:33 22,6 °C 10,7 °C 68 % 93 % 1005,3 hPa 0,0 l/m² 10,3 km/h (2 Bft) SW 227 ° 2 min 69 W/m² 9,6 °C 8,2 °C 14,5 km/h (3 Bft)
25.12.2023 12:34 22,6 °C 10,7 °C 68 % 93 % 1005,2 hPa 0,0 l/m² 9,2 km/h (2 Bft) S-SW 213 ° 1 min 79 W/m² 9,6 °C 8,8 °C 12,9 km/h (3 Bft)
25.12.2023 12:35 22,6 °C 10,7 °C 68 % 93 % 1005,2 hPa 0,0 l/m² 7,8 km/h (2 Bft) SW 228 ° 1 min 79 W/m² 9,6 °C 9,7 °C 12,9 km/h (3 Bft)
25.12.2023 12:36 22,6 °C 10,8 °C 68 % 93 % 1005,2 hPa 0,0 l/m² 8,1 km/h (2 Bft) SW 223 ° 1 min 69 W/m² 9,7 °C 9,6 °C 11,3 km/h (2 Bft)
25.12.2023 12:37 22,6 °C 10,7 °C 68 % 93 % 1005,2 hPa 0,0 l/m² 8,0 km/h (2 Bft) SW 231 ° 1 min 67 W/m² 9,6 °C 9,6 °C 11,3 km/h (2 Bft)
25.12.2023 12:38 22,7 °C 10,7 °C 68 % 93 % 1005,3 hPa 0,0 l/m² 6,5 km/h (2 Bft) SW 227 ° 1 min 63 W/m² 9,6 °C 10,7 °C 8,0 km/h (2 Bft)
25.12.2023 12:39 22,6 °C 10,7 °C 68 % 93 % 1005,2 hPa 0,0 l/m² 3,9 km/h (1 Bft) W-SW 237 ° 1 min 58 W/m² 9,6 °C 10,7 °C 8,0 km/h (2 Bft)
25.12.2023 12:41 22,6 °C 10,8 °C 68 % 93 % 1005,2 hPa 0,0 l/m² 8,1 km/h (2 Bft) SW 236 ° 2 min 62 W/m² 9,7 °C 9,6 °C 14,5 km/h (3 Bft)
25.12.2023 12:43 22,7 °C 10,7 °C 67 % 93 % 1005,1 hPa 0,0 l/m² 5,9 km/h (2 Bft) SW 226 ° 2 min 63 W/m² 9,6 °C 10,7 °C 9,7 km/h (2 Bft)
25.12.2023 12:45 22,6 °C 10,7 °C 67 % 93 % 1005,2 hPa 0,0 l/m² 7,0 km/h (2 Bft) SW 232 ° 2 min 54 W/m² 9,6 °C 10,3 °C 9,7 km/h (2 Bft)
25.12.2023 12:46 22,6 °C 10,7 °C 67 % 93 % 1005,2 hPa 0,0 l/m² 6,6 km/h (2 Bft) W-SW 242 ° 0 min 49 W/m² 9,6 °C 10,6 °C 9,7 km/h (2 Bft)
25.12.2023 12:47 22,6 °C 10,7 °C 66 % 93 % 1005,3 hPa 0,0 l/m² 5,5 km/h (2 Bft) S-SW 211 ° 0 min 47 W/m² 9,6 °C 10,7 °C 9,7 km/h (2 Bft)
25.12.2023 12:48 22,6 °C 10,8 °C 66 % 93 % 1005,2 hPa 0,0 l/m² 6,6 km/h (2 Bft) W-SW 241 ° 0 min 47 W/m² 9,7 °C 10,7 °C 8,0 km/h (2 Bft)
25.12.2023 12:49 22,6 °C 10,8 °C 66 % 93 % 1005,2 hPa 0,0 l/m² 6,2 km/h (2 Bft) W-SW 238 ° 0 min 49 W/m² 9,7 °C 10,8 °C 8,0 km/h (2 Bft)
25.12.2023 12:51 22,6 °C 10,8 °C 66 % 93 % 1005,2 hPa 0,0 l/m² 7,1 km/h (2 Bft) SW 222 ° 0 min 49 W/m² 9,7 °C 10,3 °C 9,7 km/h (2 Bft)
25.12.2023 12:53 22,6 °C 10,7 °C 66 % 93 % 1005,3 hPa 0,0 l/m² 6,8 km/h (2 Bft) W-SW 242 ° 0 min 49 W/m² 9,6 °C 10,4 °C 12,9 km/h (3 Bft)
25.12.2023 12:54 22,6 °C 10,8 °C 65 % 93 % 1005,4 hPa 0,0 l/m² 4,6 km/h (1 Bft) W-SW 239 ° 0 min 49 W/m² 9,7 °C 10,8 °C 8,0 km/h (2 Bft)
25.12.2023 12:55 22,6 °C 10,8 °C 65 % 93 % 1005,4 hPa 0,0 l/m² 5,6 km/h (2 Bft) W-SW 248 ° 0 min 46 W/m² 9,7 °C 10,8 °C 8,0 km/h (2 Bft)
25.12.2023 12:56 22,6 °C 10,8 °C 65 % 93 % 1005,4 hPa 0,0 l/m² 4,9 km/h (1 Bft) W-SW 248 ° 0 min 44 W/m² 9,7 °C 10,8 °C 11,3 km/h (2 Bft)
25.12.2023 12:57 22,6 °C 10,7 °C 65 % 92 % 1005,4 hPa 0,0 l/m² 6,0 km/h (2 Bft) SW 235 ° 0 min 44 W/m² 9,5 °C 10,7 °C 9,7 km/h (2 Bft)
25.12.2023 12:58 22,6 °C 10,8 °C 65 % 92 % 1005,4 hPa 0,0 l/m² 7,5 km/h (2 Bft) SW 228 ° 0 min 44 W/m² 9,6 °C 10,0 °C 12,9 km/h (3 Bft)
25.12.2023 12:59 22,5 °C 10,7 °C 65 % 92 % 1005,4 hPa 0,0 l/m² 6,5 km/h (2 Bft) W-SW 241 ° 0 min 44 W/m² 9,5 °C 10,7 °C 11,3 km/h (2 Bft)
25.12.2023 13:01 22,6 °C 10,8 °C 65 % 92 % 1005,2 hPa 0,0 l/m² 5,1 km/h (1 Bft) SW 234 ° 2 min 62 W/m² 9,6 °C 10,8 °C 9,7 km/h (2 Bft)
25.12.2023 13:03 22,6 °C 10,8 °C 65 % 92 % 1005,2 hPa 0,0 l/m² 4,5 km/h (1 Bft) SW 225 ° 2 min 63 W/m² 9,6 °C 10,8 °C 8,0 km/h (2 Bft)
25.12.2023 13:04 22,6 °C 10,8 °C 65 % 92 % 1005,1 hPa 0,0 l/m² 6,5 km/h (2 Bft) W-SW 244 ° 1 min 67 W/m² 9,6 °C 10,8 °C 9,7 km/h (2 Bft)
25.12.2023 13:05 22,6 °C 10,8 °C 65 % 92 % 1005,0 hPa 0,0 l/m² 6,9 km/h (2 Bft) SW 217 ° 1 min 65 W/m² 9,6 °C 10,5 °C 9,7 km/h (2 Bft)
25.12.2023 13:06 22,6 °C 10,8 °C 65 % 92 % 1005,1 hPa 0,0 l/m² 7,7 km/h (2 Bft) SW 225 ° 1 min 62 W/m² 9,6 °C 9,9 °C 11,3 km/h (2 Bft)
25.12.2023 13:07 22,6 °C 10,8 °C 65 % 92 % 1005,1 hPa 0,0 l/m² 9,4 km/h (2 Bft) SW 224 ° 1 min 58 W/m² 9,6 °C 8,8 °C 12,9 km/h (3 Bft)
25.12.2023 13:08 22,6 °C 10,8 °C 65 % 92 % 1005,1 hPa 0,0 l/m² 9,3 km/h (2 Bft) S-SW 198 ° 1 min 54 W/m² 9,6 °C 8,9 °C 12,9 km/h (3 Bft)
25.12.2023 13:09 22,6 °C 10,7 °C 65 % 92 % 1005,1 hPa 0,0 l/m² 10,4 km/h (2 Bft) S-SW 207 ° 0 min 49 W/m² 9,5 °C 8,1 °C 12,9 km/h (3 Bft)
25.12.2023 13:11 22,6 °C 10,8 °C 65 % 92 % 1005,1 hPa 0,0 l/m² 10,5 km/h (2 Bft) SW 219 ° 2 min 58 W/m² 9,6 °C 8,2 °C 14,5 km/h (3 Bft)
25.12.2023 13:13 22,6 °C 10,8 °C 65 % 92 % 1005,1 hPa 0,0 l/m² 12,2 km/h (2 Bft) SW 221 ° 2 min 53 W/m² 9,6 °C 7,3 °C 16,1 km/h (3 Bft)
25.12.2023 13:14 22,6 °C 10,8 °C 65 % 92 % 1005,2 hPa 0,0 l/m² 12,7 km/h (3 Bft) S-SW 207 ° 1 min 54 W/m² 9,6 °C 7,1 °C 14,5 km/h (3 Bft)
25.12.2023 13:15 22,6 °C 10,7 °C 65 % 92 % 1005,2 hPa 0,0 l/m² 10,8 km/h (2 Bft) SW 221 ° 1 min 58 W/m² 9,5 °C 7,9 °C 14,5 km/h (3 Bft)
25.12.2023 13:16 22,6 °C 10,8 °C 65 % 92 % 1005,2 hPa 0,0 l/m² 9,5 km/h (2 Bft) SW 223 ° 1 min 62 W/m² 9,6 °C 8,8 °C 11,3 km/h (2 Bft)
25.12.2023 13:17 22,6 °C 10,8 °C 65 % 92 % 1005,2 hPa 0,0 l/m² 10,5 km/h (2 Bft) S-SW 196 ° 1 min 62 W/m² 9,6 °C 8,2 °C 14,5 km/h (3 Bft)
25.12.2023 13:18 22,6 °C 10,8 °C 65 % 92 % 1005,2 hPa 0,0 l/m² 10,0 km/h (2 Bft) S-SW 206 ° 1 min 62 W/m² 9,6 °C 8,5 °C 11,3 km/h (2 Bft)
25.12.2023 13:19 22,6 °C 10,8 °C 65 % 92 % 1005,2 hPa 0,0 l/m² 11,0 km/h (2 Bft) S-SW 202 ° 1 min 65 W/m² 9,6 °C 7,9 °C 14,5 km/h (3 Bft)
25.12.2023 13:21 22,6 °C 10,8 °C 66 % 92 % 1005,1 hPa 0,0 l/m² 10,1 km/h (2 Bft) S-SW 206 ° 2 min 58 W/m² 9,6 °C 8,4 °C 12,9 km/h (3 Bft)
25.12.2023 13:23 22,6 °C 10,8 °C 66 % 92 % 1005,2 hPa 0,0 l/m² 10,1 km/h (2 Bft) S-SW 209 ° 0 min 51 W/m² 9,6 °C 8,4 °C 14,5 km/h (3 Bft)
25.12.2023 13:24 22,6 °C 10,9 °C 66 % 92 % 1005,3 hPa 0,0 l/m² 10,5 km/h (2 Bft) S-SW 212 ° 0 min 46 W/m² 9,7 °C 8,3 °C 16,1 km/h (3 Bft)
25.12.2023 13:25 22,6 °C 10,8 °C 66 % 92 % 1005,3 hPa 0,0 l/m² 12,7 km/h (3 Bft) S-SW 212 ° 0 min 42 W/m² 9,6 °C 7,1 °C 14,5 km/h (3 Bft)
25.12.2023 13:26 22,6 °C 10,8 °C 66 % 92 % 1005,4 hPa 0,0 l/m² 11,0 km/h (2 Bft) S-SW 208 ° 0 min 40 W/m² 9,6 °C 7,9 °C 14,5 km/h (3 Bft)
25.12.2023 13:27 22,6 °C 10,9 °C 66 % 92 % 1005,3 hPa 0,0 l/m² 11,6 km/h (2 Bft) S-SW 200 ° 0 min 39 W/m² 9,7 °C 7,7 °C 16,1 km/h (3 Bft)
25.12.2023 13:28 22,6 °C 10,9 °C 66 % 92 % 1005,3 hPa 0,0 l/m² 8,9 km/h (2 Bft) SW 215 ° 0 min 35 W/m² 9,7 °C 9,2 °C 11,3 km/h (2 Bft)
25.12.2023 13:29 22,6 °C 10,8 °C 66 % 92 % 1005,3 hPa 0,0 l/m² 10,0 km/h (2 Bft) SW 218 ° 0 min 30 W/m² 9,6 °C 8,5 °C 11,3 km/h (2 Bft)
25.12.2023 13:31 22,6 °C 10,8 °C 65 % 92 % 1005,3 hPa 0,0 l/m² 10,1 km/h (2 Bft) SW 225 ° 0 min 23 W/m² 9,6 °C 8,4 °C 16,1 km/h (3 Bft)
25.12.2023 13:33 22,6 °C 10,8 °C 65 % 92 % 1005,4 hPa 0,0 l/m² 9,5 km/h (2 Bft) SW 217 ° 0 min 25 W/m² 9,6 °C 8,8 °C 12,9 km/h (3 Bft)
25.12.2023 13:34 22,6 °C 10,8 °C 66 % 92 % 1005,4 hPa 0,0 l/m² 9,8 km/h (2 Bft) SW 223 ° 0 min 25 W/m² 9,6 °C 8,6 °C 14,5 km/h (3 Bft)
25.12.2023 13:35 22,6 °C 10,8 °C 66 % 92 % 1005,4 hPa 0,0 l/m² 12,3 km/h (2 Bft) SW 228 ° 0 min 26 W/m² 9,6 °C 7,3 °C 16,1 km/h (3 Bft)
25.12.2023 13:36 22,6 °C 10,8 °C 66 % 92 % 1005,4 hPa 0,0 l/m² 12,6 km/h (3 Bft) SW 222 ° 0 min 28 W/m² 9,6 °C 7,1 °C 16,1 km/h (3 Bft)
25.12.2023 13:37 22,6 °C 10,8 °C 66 % 92 % 1005,4 hPa 0,0 l/m² 7,8 km/h (2 Bft) W-SW 238 ° 0 min 28 W/m² 9,6 °C 9,8 °C 11,3 km/h (2 Bft)
25.12.2023 13:38 22,6 °C 10,8 °C 66 % 92 % 1005,4 hPa 0,0 l/m² 9,8 km/h (2 Bft) SW 227 ° 0 min 26 W/m² 9,6 °C 8,6 °C 14,5 km/h (3 Bft)
25.12.2023 13:39 22,6 °C 10,8 °C 66 % 92 % 1005,3 hPa 0,0 l/m² 11,3 km/h (2 Bft) SW 223 ° 0 min 25 W/m² 9,6 °C 7,8 °C 16,1 km/h (3 Bft)
25.12.2023 13:41 22,6 °C 10,8 °C 65 % 92 % 1005,5 hPa 0,0 l/m² 12,8 km/h (3 Bft) SW 225 ° 0 min 25 W/m² 9,6 °C 7,1 °C 17,7 km/h (3 Bft)
25.12.2023 13:43 22,6 °C 10,8 °C 65 % 92 % 1005,4 hPa 0,0 l/m² 12,8 km/h (3 Bft) SW 217 ° 0 min 25 W/m² 9,6 °C 7,1 °C 19,3 km/h (3 Bft)
25.12.2023 13:44 22,6 °C 10,8 °C 65 % 92 % 1005,4 hPa 0,0 l/m² 11,9 km/h (2 Bft) SW 225 ° 0 min 25 W/m² 9,6 °C 7,5 °C 17,7 km/h (3 Bft)
25.12.2023 13:45 22,6 °C 10,8 °C 65 % 92 % 1005,3 hPa 0,0 l/m² 10,7 km/h (2 Bft) SW 227 ° 0 min 25 W/m² 9,6 °C 8,1 °C 19,3 km/h (3 Bft)
25.12.2023 13:46 22,6 °C 10,7 °C 65 % 92 % 1005,4 hPa 0,0 l/m² 12,3 km/h (2 Bft) S-SW 213 ° 0 min 23 W/m² 9,5 °C 7,2 °C 19,3 km/h (3 Bft)
25.12.2023 13:47 22,6 °C 10,7 °C 65 % 92 % 1005,3 hPa 0,0 l/m² 13,1 km/h (3 Bft) S-SW 213 ° 0 min 25 W/m² 9,5 °C 6,8 °C 17,7 km/h (3 Bft)
25.12.2023 13:48 22,6 °C 10,7 °C 65 % 92 % 1005,3 hPa 0,0 l/m² 11,6 km/h (2 Bft) SW 220 ° 0 min 25 W/m² 9,5 °C 7,5 °C 14,5 km/h (3 Bft)
25.12.2023 13:49 22,6 °C 10,7 °C 65 % 92 % 1005,2 hPa 0,0 l/m² 12,5 km/h (2 Bft) SW 218 ° 0 min 25 W/m² 9,5 °C 7,1 °C 17,7 km/h (3 Bft)
25.12.2023 13:51 22,6 °C 10,7 °C 65 % 92 % 1005,3 hPa 0,0 l/m² 13,5 km/h (3 Bft) SW 214 ° 0 min 25 W/m² 9,5 °C 6,6 °C 17,7 km/h (3 Bft)
25.12.2023 13:53 22,6 °C 10,7 °C 65 % 92 % 1005,4 hPa 0,0 l/m² 12,9 km/h (3 Bft) W-SW 238 ° 0 min 26 W/m² 9,5 °C 6,9 °C 22,5 km/h (4 Bft)
25.12.2023 13:54 22,6 °C 10,7 °C 66 % 92 % 1005,2 hPa 0,0 l/m² 14,3 km/h (3 Bft) SW 215 ° 0 min 25 W/m² 9,5 °C 6,3 °C 17,7 km/h (3 Bft)
25.12.2023 13:55 22,6 °C 10,7 °C 66 % 92 % 1005,4 hPa 0,0 l/m² 16,0 km/h (3 Bft) SW 225 ° 0 min 21 W/m² 9,5 °C 5,6 °C 17,7 km/h (3 Bft)
25.12.2023 13:56 22,6 °C 10,7 °C 66 % 92 % 1005,4 hPa 0,0 l/m² 17,6 km/h (3 Bft) SW 220 ° 0 min 19 W/m² 9,5 °C 5,0 °C 20,9 km/h (4 Bft)
25.12.2023 13:57 22,6 °C 10,7 °C 66 % 92 % 1005,4 hPa 0,0 l/m² 14,8 km/h (3 Bft) SW 222 ° 0 min 19 W/m² 9,5 °C 6,1 °C 17,7 km/h (3 Bft)
25.12.2023 13:58 22,5 °C 10,7 °C 66 % 92 % 1005,4 hPa 0,0 l/m² 14,4 km/h (3 Bft) SW 215 ° 0 min 26 W/m² 9,5 °C 6,2 °C 19,3 km/h (3 Bft)
25.12.2023 13:59 22,6 °C 10,7 °C 66 % 92 % 1005,4 hPa 0,0 l/m² 10,2 km/h (2 Bft) SW 220 ° 0 min 28 W/m² 9,5 °C 8,3 °C 12,9 km/h (3 Bft)
25.12.2023 14:01 22,6 °C 10,7 °C 65 % 92 % 1005,4 hPa 0,0 l/m² 12,9 km/h (3 Bft) SW 227 ° 0 min 21 W/m² 9,5 °C 6,9 °C 16,1 km/h (3 Bft)
25.12.2023 14:03 22,5 °C 10,6 °C 64 % 92 % 1005,5 hPa 0,0 l/m² 14,9 km/h (3 Bft) SW 229 ° 0 min 19 W/m² 9,4 °C 5,9 °C 25,7 km/h (4 Bft)
25.12.2023 14:04 22,4 °C 10,6 °C 62 % 92 % 1005,6 hPa 0,0 l/m² 17,5 km/h (3 Bft) S-SW 211 ° 0 min 19 W/m² 9,4 °C 4,9 °C 24,1 km/h (4 Bft)
25.12.2023 14:05 22,4 °C 10,6 °C 62 % 92 % 1005,6 hPa 0,0 l/m² 18,0 km/h (3 Bft) SW 220 ° 0 min 23 W/m² 9,4 °C 4,7 °C 22,5 km/h (4 Bft)
25.12.2023 14:07 22,4 °C 10,6 °C 61 % 92 % 1005,6 hPa 0,0 l/m² 11,9 km/h (2 Bft) SW 219 ° 0 min 26 W/m² 9,4 °C 7,3 °C 17,7 km/h (3 Bft)
25.12.2023 14:08 22,4 °C 10,6 °C 61 % 92 % 1005,6 hPa 0,0 l/m² 8,7 km/h (2 Bft) SW 219 ° 0 min 26 W/m² 9,4 °C 9,0 °C 11,3 km/h (2 Bft)
25.12.2023 14:09 22,4 °C 10,6 °C 61 % 92 % 1005,6 hPa 0,0 l/m² 10,1 km/h (2 Bft) SW 220 ° 0 min 28 W/m² 9,4 °C 8,2 °C 14,5 km/h (3 Bft)
25.12.2023 14:11 22,3 °C 10,6 °C 62 % 92 % 1005,7 hPa 0,0 l/m² 11,9 km/h (2 Bft) SW 227 ° 0 min 28 W/m² 9,4 °C 7,3 °C 16,1 km/h (3 Bft)
25.12.2023 14:13 22,3 °C 10,6 °C 62 % 92 % 1005,6 hPa 0,0 l/m² 11,9 km/h (2 Bft) SW 219 ° 0 min 25 W/m² 9,4 °C 7,3 °C 16,1 km/h (3 Bft)
25.12.2023 14:14 22,3 °C 10,6 °C 62 % 92 % 1005,8 hPa 0,0 l/m² 13,4 km/h (3 Bft) W-SW 251 ° 0 min 25 W/m² 9,4 °C 6,5 °C 17,7 km/h (3 Bft)
25.12.2023 14:15 22,3 °C 10,6 °C 62 % 92 % 1005,7 hPa 0,0 l/m² 15,6 km/h (3 Bft) SW 215 ° 0 min 25 W/m² 9,4 °C 5,6 °C 19,3 km/h (3 Bft)
25.12.2023 14:16 22,3 °C 10,6 °C 62 % 92 % 1005,8 hPa 0,0 l/m² 13,0 km/h (3 Bft) SW 219 ° 0 min 21 W/m² 9,4 °C 6,7 °C 17,7 km/h (3 Bft)
25.12.2023 14:17 22,3 °C 10,6 °C 62 % 92 % 1005,9 hPa 0,0 l/m² 7,4 km/h (2 Bft) SW 236 ° 0 min 23 W/m² 9,4 °C 9,9 °C 11,3 km/h (2 Bft)
25.12.2023 14:18 22,3 °C 10,6 °C 62 % 92 % 1005,9 hPa 0,0 l/m² 11,5 km/h (2 Bft) SW 221 ° 0 min 25 W/m² 9,4 °C 7,5 °C 17,7 km/h (3 Bft)
25.12.2023 14:19 22,3 °C 10,6 °C 62 % 92 % 1005,9 hPa 0,0 l/m² 10,6 km/h (2 Bft) SW 223 ° 0 min 28 W/m² 9,4 °C 7,9 °C 14,5 km/h (3 Bft)
25.12.2023 14:21 22,2 °C 10,6 °C 62 % 92 % 1005,8 hPa 0,0 l/m² 8,6 km/h (2 Bft) S-SW 208 ° 0 min 32 W/m² 9,4 °C 9,1 °C 17,7 km/h (3 Bft)
25.12.2023 14:23 22,2 °C 10,6 °C 62 % 92 % 1005,7 hPa 0,0 l/m² 8,0 km/h (2 Bft) SW 234 ° 0 min 18 W/m² 9,4 °C 9,5 °C 12,9 km/h (3 Bft)
25.12.2023 14:24 22,2 °C 10,6 °C 62 % 92 % 1005,8 hPa 0,0 l/m² 8,7 km/h (2 Bft) W-SW 237 ° 0 min 16 W/m² 9,4 °C 9,0 °C 11,3 km/h (2 Bft)
25.12.2023 14:25 22,2 °C 10,6 °C 62 % 92 % 1005,7 hPa 0,0 l/m² 8,0 km/h (2 Bft) SW 225 ° 0 min 14 W/m² 9,4 °C 9,5 °C 12,9 km/h (3 Bft)
25.12.2023 14:26 22,2 °C 10,6 °C 62 % 92 % 1005,8 hPa 0,0 l/m² 10,8 km/h (2 Bft) SW 221 ° 0 min 16 W/m² 9,4 °C 7,8 °C 14,5 km/h (3 Bft)
25.12.2023 14:27 22,2 °C 10,6 °C 62 % 92 % 1005,8 hPa 0,0 l/m² 8,7 km/h (2 Bft) SW 221 ° 0 min 18 W/m² 9,4 °C 9,0 °C 11,3 km/h (2 Bft)
25.12.2023 14:28 22,2 °C 10,6 °C 62 % 92 % 1005,9 hPa 0,0 l/m² 11,6 km/h (2 Bft) SW 228 ° 0 min 19 W/m² 9,4 °C 7,4 °C 14,5 km/h (3 Bft)
25.12.2023 14:29 22,1 °C 10,6 °C 62 % 92 % 1005,9 hPa 0,0 l/m² 8,6 km/h (2 Bft) SW 222 ° 0 min 19 W/m² 9,4 °C 9,1 °C 12,9 km/h (3 Bft)
25.12.2023 14:31 22,1 °C 10,6 °C 62 % 92 % 1006,0 hPa 0,2 l/m² 6,7 km/h (2 Bft) SW 223 ° 0 min 25 W/m² 9,4 °C 10,4 °C 11,3 km/h (2 Bft)
25.12.2023 14:33 22,1 °C 10,6 °C 62 % 92 % 1005,9 hPa 0,0 l/m² 6,3 km/h (2 Bft) SW 234 ° 0 min 19 W/m² 9,4 °C 10,6 °C 9,7 km/h (2 Bft)
25.12.2023 14:34 22,1 °C 10,6 °C 62 % 92 % 1005,9 hPa 0,0 l/m² 10,8 km/h (2 Bft) SW 215 ° 0 min 19 W/m² 9,4 °C 7,8 °C 16,1 km/h (3 Bft)
25.12.2023 14:35 22,1 °C 10,6 °C 62 % 92 % 1005,8 hPa 0,0 l/m² 11,1 km/h (2 Bft) SW 215 ° 0 min 19 W/m² 9,4 °C 7,7 °C 14,5 km/h (3 Bft)
25.12.2023 14:36 22,1 °C 10,6 °C 62 % 92 % 1006,0 hPa 0,0 l/m² 6,9 km/h (2 Bft) SW 220 ° 0 min 18 W/m² 9,4 °C 10,3 °C 11,3 km/h (2 Bft)
25.12.2023 14:37 22,1 °C 10,6 °C 62 % 92 % 1006,0 hPa 0,0 l/m² 11,0 km/h (2 Bft) W-SW 237 ° 0 min 18 W/m² 9,4 °C 7,7 °C 14,5 km/h (3 Bft)
25.12.2023 14:38 22,1 °C 10,6 °C 62 % 92 % 1006,1 hPa 0,0 l/m² 6,8 km/h (2 Bft) SW 229 ° 0 min 19 W/m² 9,4 °C 10,3 °C 9,7 km/h (2 Bft)
25.12.2023 14:39 22,1 °C 10,6 °C 62 % 92 % 1006,0 hPa 0,0 l/m² 4,5 km/h (1 Bft) SW 225 ° 0 min 23 W/m² 9,4 °C 10,6 °C 8,0 km/h (2 Bft)
25.12.2023 14:41 22,1 °C 10,6 °C 62 % 92 % 1006,0 hPa 0,2 l/m² 7,8 km/h (2 Bft) SW 223 ° 0 min 23 W/m² 9,4 °C 9,6 °C 14,5 km/h (3 Bft)
25.12.2023 14:43 22,1 °C 10,6 °C 62 % 92 % 1006,0 hPa 0,0 l/m² 6,7 km/h (2 Bft) SW 226 ° 0 min 19 W/m² 9,4 °C 10,4 °C 9,7 km/h (2 Bft)
25.12.2023 14:44 22,1 °C 10,6 °C 62 % 92 % 1006,1 hPa 0,0 l/m² 8,0 km/h (2 Bft) SW 219 ° 0 min 21 W/m² 9,4 °C 9,5 °C 11,3 km/h (2 Bft)
25.12.2023 14:45 22,1 °C 10,6 °C 62 % 92 % 1006,1 hPa 0,0 l/m² 7,3 km/h (2 Bft) SW 226 ° 0 min 19 W/m² 9,4 °C 10,0 °C 9,7 km/h (2 Bft)
25.12.2023 14:46 22,1 °C 10,5 °C 62 % 92 % 1006,0 hPa 0,0 l/m² 6,9 km/h (2 Bft) SW 221 ° 0 min 16 W/m² 9,3 °C 10,2 °C 8,0 km/h (2 Bft)
25.12.2023 14:47 22,1 °C 10,5 °C 63 % 92 % 1006,1 hPa 0,0 l/m² 6,4 km/h (2 Bft) SW 226 ° 0 min 14 W/m² 9,3 °C 10,5 °C 8,0 km/h (2 Bft)
25.12.2023 14:48 22,1 °C 10,5 °C 63 % 93 % 1006,1 hPa 0,0 l/m² 7,4 km/h (2 Bft) SW 227 ° 0 min 14 W/m² 9,4 °C 9,8 °C 11,3 km/h (2 Bft)
25.12.2023 14:49 22,1 °C 10,5 °C 63 % 93 % 1006,1 hPa 0,0 l/m² 7,4 km/h (2 Bft) SW 223 ° 0 min 12 W/m² 9,4 °C 9,8 °C 11,3 km/h (2 Bft)
25.12.2023 14:51 22,1 °C 10,4 °C 63 % 93 % 1006,2 hPa 0,0 l/m² 5,5 km/h (2 Bft) SW 234 ° 0 min 18 W/m² 9,3 °C 10,4 °C 8,0 km/h (2 Bft)
25.12.2023 14:53 22,1 °C 10,5 °C 63 % 93 % 1006,2 hPa 0,0 l/m² 6,1 km/h (2 Bft) SW 214 ° 0 min 25 W/m² 9,4 °C 10,5 °C 11,3 km/h (2 Bft)
25.12.2023 14:54 22,1 °C 10,4 °C 63 % 93 % 1006,1 hPa 0,2 l/m² 8,5 km/h (2 Bft) SW 225 ° 0 min 23 W/m² 9,3 °C 8,9 °C 11,3 km/h (2 Bft)
25.12.2023 14:55 22,1 °C 10,4 °C 63 % 93 % 1006,1 hPa 0,0 l/m² 7,6 km/h (2 Bft) SW 220 ° 0 min 18 W/m² 9,3 °C 9,5 °C 9,7 km/h (2 Bft)
25.12.2023 14:56 22,1 °C 10,4 °C 63 % 93 % 1006,1 hPa 0,0 l/m² 5,4 km/h (2 Bft) S-SW 211 ° 0 min 16 W/m² 9,3 °C 10,4 °C 8,0 km/h (2 Bft)
25.12.2023 14:57 22,1 °C 10,4 °C 63 % 93 % 1006,0 hPa 0,0 l/m² 8,1 km/h (2 Bft) S-SW 210 ° 0 min 14 W/m² 9,3 °C 9,2 °C 11,3 km/h (2 Bft)
25.12.2023 14:58 22,1 °C 10,4 °C 63 % 93 % 1006,0 hPa 0,0 l/m² 8,2 km/h (2 Bft) SW 215 ° 0 min 14 W/m² 9,3 °C 9,1 °C 9,7 km/h (2 Bft)
25.12.2023 14:59 22,1 °C 10,4 °C 63 % 93 % 1006,0 hPa 0,0 l/m² 6,4 km/h (2 Bft) SW 233 ° 0 min 16 W/m² 9,3 °C 10,4 °C 8,0 km/h (2 Bft)
25.12.2023 15:01 22,1 °C 10,4 °C 64 % 93 % 1006,2 hPa 0,0 l/m² 8,9 km/h (2 Bft) S-SW 210 ° 0 min 23 W/m² 9,3 °C 8,7 °C 11,3 km/h (2 Bft)
25.12.2023 15:03 22,1 °C 10,4 °C 64 % 93 % 1006,1 hPa 0,0 l/m² 7,8 km/h (2 Bft) S-SW 209 ° 0 min 19 W/m² 9,3 °C 9,4 °C 11,3 km/h (2 Bft)
25.12.2023 15:04 22,1 °C 10,4 °C 63 % 93 % 1006,1 hPa 0,0 l/m² 11,3 km/h (2 Bft) SW 220 ° 0 min 16 W/m² 9,3 °C 7,3 °C 14,5 km/h (3 Bft)
25.12.2023 15:05 22,1 °C 10,4 °C 63 % 93 % 1006,2 hPa 0,0 l/m² 8,3 km/h (2 Bft) SW 225 ° 0 min 14 W/m² 9,3 °C 9,1 °C 12,9 km/h (3 Bft)
25.12.2023 15:06 22,2 °C 10,4 °C 63 % 93 % 1006,1 hPa 0,0 l/m² 6,1 km/h (2 Bft) SW 226 ° 0 min 18 W/m² 9,3 °C 10,4 °C 9,7 km/h (2 Bft)
25.12.2023 15:07 22,1 °C 10,4 °C 63 % 93 % 1006,0 hPa 0,0 l/m² 7,7 km/h (2 Bft) S-SW 209 ° 0 min 19 W/m² 9,3 °C 9,5 °C 9,7 km/h (2 Bft)
25.12.2023 15:08 22,1 °C 10,4 °C 63 % 93 % 1006,0 hPa 0,0 l/m² 7,2 km/h (2 Bft) S-SW 202 ° 0 min 21 W/m² 9,3 °C 9,8 °C 11,3 km/h (2 Bft)
25.12.2023 15:09 22,2 °C 10,4 °C 63 % 93 % 1006,0 hPa 0,0 l/m² 7,4 km/h (2 Bft) S-SW 205 ° 0 min 21 W/m² 9,3 °C 9,7 °C 12,9 km/h (3 Bft)
25.12.2023 15:11 22,1 °C 10,3 °C 64 % 93 % 1005,9 hPa 0,0 l/m² 9,8 km/h (2 Bft) S-SW 209 ° 0 min 23 W/m² 9,2 °C 8,0 °C 12,9 km/h (3 Bft)
25.12.2023 15:13 22,2 °C 10,3 °C 64 % 93 % 1005,9 hPa 0,0 l/m² 10,1 km/h (2 Bft) S-SW 196 ° 0 min 19 W/m² 9,2 °C 7,9 °C 14,5 km/h (3 Bft)
25.12.2023 15:14 22,2 °C 10,3 °C 64 % 93 % 1006,0 hPa 0,0 l/m² 11,3 km/h (2 Bft) S-SW 201 ° 0 min 14 W/m² 9,2 °C 7,2 °C 12,9 km/h (3 Bft)
25.12.2023 15:15 22,2 °C 10,3 °C 64 % 93 % 1005,9 hPa 0,0 l/m² 11,7 km/h (2 Bft) S-SW 206 ° 0 min 14 W/m² 9,2 °C 7,0 °C 14,5 km/h (3 Bft)
25.12.2023 15:16 22,2 °C 10,3 °C 64 % 93 % 1006,0 hPa 0,0 l/m² 10,0 km/h (2 Bft) S-SW 196 ° 0 min 12 W/m² 9,2 °C 7,9 °C 12,9 km/h (3 Bft)
25.12.2023 15:17 22,2 °C 10,3 °C 64 % 93 % 1006,0 hPa 0,0 l/m² 10,6 km/h (2 Bft) S-SW 202 ° 0 min 12 W/m² 9,2 °C 7,6 °C 12,9 km/h (3 Bft)
25.12.2023 15:18 22,2 °C 10,3 °C 64 % 93 % 1005,9 hPa 0,0 l/m² 9,7 km/h (2 Bft) S-SW 194 ° 0 min 12 W/m² 9,2 °C 8,1 °C 12,9 km/h (3 Bft)
25.12.2023 15:19 22,2 °C 10,3 °C 65 % 93 % 1006,0 hPa 0,0 l/m² 11,3 km/h (2 Bft) SW 219 ° 0 min 11 W/m² 9,2 °C 7,2 °C 14,5 km/h (3 Bft)
25.12.2023 15:21 22,2 °C 10,3 °C 65 % 93 % 1006,1 hPa 0,0 l/m² 11,6 km/h (2 Bft) S-SW 213 ° 0 min 7 W/m² 9,2 °C 7,1 °C 14,5 km/h (3 Bft)
25.12.2023 15:23 22,3 °C 10,3 °C 65 % 93 % 1006,4 hPa 0,2 l/m² 9,9 km/h (2 Bft) SW 224 ° 0 min 5 W/m² 9,2 °C 8,0 °C 12,9 km/h (3 Bft)
25.12.2023 15:24 22,3 °C 10,3 °C 65 % 93 % 1006,4 hPa 0,0 l/m² 10,5 km/h (2 Bft) S-SW 205 ° 0 min 5 W/m² 9,2 °C 7,6 °C 12,9 km/h (3 Bft)
25.12.2023 15:25 22,3 °C 10,3 °C 65 % 93 % 1006,4 hPa 0,0 l/m² 10,4 km/h (2 Bft) S-SW 213 ° 0 min 5 W/m² 9,2 °C 7,7 °C 12,9 km/h (3 Bft)
25.12.2023 15:26 22,3 °C 10,3 °C 65 % 93 % 1006,5 hPa 0,0 l/m² 10,5 km/h (2 Bft) S-SW 205 ° 0 min 5 W/m² 9,2 °C 7,6 °C 12,9 km/h (3 Bft)
25.12.2023 15:27 22,3 °C 10,2 °C 65 % 93 % 1006,5 hPa 0,0 l/m² 6,9 km/h (2 Bft) S-SW 207 ° 0 min 5 W/m² 9,1 °C 9,8 °C 9,7 km/h (2 Bft)
25.12.2023 15:28 22,3 °C 10,3 °C 65 % 93 % 1006,3 hPa 0,0 l/m² 6,9 km/h (2 Bft) S-SW 200 ° 0 min 5 W/m² 9,2 °C 9,9 °C 9,7 km/h (2 Bft)
25.12.2023 15:29 22,3 °C 10,3 °C 65 % 93 % 1006,3 hPa 0,0 l/m² 7,6 km/h (2 Bft) S-SW 204 ° 0 min 5 W/m² 9,2 °C 9,4 °C 9,7 km/h (2 Bft)
25.12.2023 15:31 22,3 °C 10,2 °C 65 % 93 % 1006,5 hPa 0,0 l/m² 9,1 km/h (2 Bft) SW 219 ° 0 min 0 W/m² 9,1 °C 8,4 °C 11,3 km/h (2 Bft)
25.12.2023 15:33 22,4 °C 10,2 °C 65 % 93 % 1006,6 hPa 0,0 l/m² 9,6 km/h (2 Bft) SW 217 ° 0 min 0 W/m² 9,1 °C 8,0 °C 12,9 km/h (3 Bft)
25.12.2023 15:34 22,3 °C 10,2 °C 65 % 93 % 1006,6 hPa 0,0 l/m² 10,3 km/h (2 Bft) SW 217 ° 0 min 0 W/m² 9,1 °C 7,6 °C 14,5 km/h (3 Bft)
25.12.2023 15:35 22,4 °C 10,2 °C 65 % 93 % 1006,6 hPa 0,0 l/m² 9,6 km/h (2 Bft) S-SW 212 ° 0 min 0 W/m² 9,1 °C 8,0 °C 12,9 km/h (3 Bft)
25.12.2023 15:37 22,4 °C 10,2 °C 65 % 93 % 1006,8 hPa 0,0 l/m² 9,8 km/h (2 Bft) SW 217 ° 0 min 0 W/m² 9,1 °C 7,9 °C 14,5 km/h (3 Bft)
25.12.2023 15:38 22,4 °C 10,2 °C 65 % 93 % 1006,8 hPa 0,0 l/m² 9,5 km/h (2 Bft) SW 216 ° 0 min 0 W/m² 9,1 °C 8,1 °C 12,9 km/h (3 Bft)
25.12.2023 15:39 22,4 °C 10,2 °C 65 % 93 % 1006,7 hPa 0,0 l/m² 8,6 km/h (2 Bft) SW 214 ° 0 min 0 W/m² 9,1 °C 8,7 °C 12,9 km/h (3 Bft)
25.12.2023 15:41 22,4 °C 10,2 °C 65 % 93 % 1006,7 hPa 0,0 l/m² 8,7 km/h (2 Bft) S-SW 209 ° 0 min 5 W/m² 9,1 °C 8,6 °C 12,9 km/h (3 Bft)
25.12.2023 15:43 22,4 °C 10,2 °C 65 % 93 % 1006,7 hPa 0,0 l/m² 5,7 km/h (2 Bft) S-SW 211 ° 0 min 0 W/m² 9,1 °C 10,2 °C 9,7 km/h (2 Bft)
25.12.2023 15:45 22,5 °C 10,2 °C 65 % 93 % 1006,8 hPa 0,0 l/m² 7,6 km/h (2 Bft) SW 218 ° 0 min 0 W/m² 9,1 °C 9,3 °C 12,9 km/h (3 Bft)
25.12.2023 15:46 22,5 °C 10,2 °C 65 % 93 % 1006,8 hPa 0,0 l/m² 7,2 km/h (2 Bft) SW 230 ° 0 min 0 W/m² 9,1 °C 9,6 °C 9,7 km/h (2 Bft)
25.12.2023 15:47 22,6 °C 10,2 °C 66 % 93 % 1006,8 hPa 0,0 l/m² 6,7 km/h (2 Bft) SW 222 ° 0 min 0 W/m² 9,1 °C 10,0 °C 11,3 km/h (2 Bft)
25.12.2023 15:48 22,6 °C 10,2 °C 66 % 93 % 1006,8 hPa 0,2 l/m² 6,0 km/h (2 Bft) SW 227 ° 0 min 0 W/m² 9,1 °C 10,2 °C 8,0 km/h (2 Bft)
25.12.2023 15:49 22,6 °C 10,2 °C 66 % 93 % 1006,8 hPa 0,0 l/m² 7,2 km/h (2 Bft) SW 225 ° 0 min 0 W/m² 9,1 °C 9,6 °C 11,3 km/h (2 Bft)
25.12.2023 15:51 22,6 °C 10,1 °C 66 % 93 % 1006,8 hPa 0,0 l/m² 7,6 km/h (2 Bft) SW 218 ° 0 min 0 W/m² 9,0 °C 9,2 °C 11,3 km/h (2 Bft)
25.12.2023 15:53 22,6 °C 10,1 °C 66 % 93 % 1006,8 hPa 0,0 l/m² 5,0 km/h (1 Bft) SW 222 ° 0 min 0 W/m² 9,0 °C 10,1 °C 8,0 km/h (2 Bft)
25.12.2023 15:54 22,6 °C 10,1 °C 66 % 93 % 1006,9 hPa 0,0 l/m² 6,0 km/h (2 Bft) SW 220 ° 0 min 0 W/m² 9,0 °C 10,1 °C 8,0 km/h (2 Bft)
25.12.2023 15:55 22,6 °C 10,1 °C 66 % 93 % 1006,8 hPa 0,2 l/m² 6,6 km/h (2 Bft) SW 222 ° 0 min 0 W/m² 9,0 °C 10,0 °C 9,7 km/h (2 Bft)
25.12.2023 15:56 22,6 °C 10,1 °C 66 % 93 % 1006,8 hPa 0,0 l/m² 5,6 km/h (2 Bft) SW 230 ° 0 min 0 W/m² 9,0 °C 10,1 °C 6,4 km/h (2 Bft)
25.12.2023 15:57 22,7 °C 10,1 °C 66 % 93 % 1006,8 hPa 0,0 l/m² 7,8 km/h (2 Bft) SW 232 ° 0 min 0 W/m² 9,0 °C 9,1 °C 9,7 km/h (2 Bft)
25.12.2023 15:58 22,7 °C 10,1 °C 66 % 93 % 1006,9 hPa 0,0 l/m² 4,3 km/h (1 Bft) SW 236 ° 0 min 0 W/m² 9,0 °C 10,1 °C 6,4 km/h (2 Bft)
25.12.2023 15:59 22,7 °C 10,1 °C 66 % 93 % 1006,9 hPa 0,0 l/m² 5,2 km/h (1 Bft) SW 229 ° 0 min 0 W/m² 9,0 °C 10,1 °C 6,4 km/h (2 Bft)
25.12.2023 16:01 22,7 °C 10,1 °C 66 % 93 % 1006,9 hPa 0,0 l/m² 5,2 km/h (1 Bft) SW 219 ° 0 min 0 W/m² 9,0 °C 10,1 °C 8,0 km/h (2 Bft)
25.12.2023 16:03 22,7 °C 10,1 °C 66 % 93 % 1006,8 hPa 0,0 l/m² 5,2 km/h (1 Bft) S-SW 213 ° 0 min 0 W/m² 9,0 °C 10,1 °C 9,7 km/h (2 Bft)
25.12.2023 16:04 22,7 °C 10,1 °C 65 % 93 % 1006,8 hPa 0,0 l/m² 5,3 km/h (1 Bft) S-SW 209 ° 0 min 0 W/m² 9,0 °C 10,1 °C 6,4 km/h (2 Bft)
25.12.2023 16:05 22,7 °C 10,1 °C 65 % 93 % 1006,7 hPa 0,0 l/m² 4,7 km/h (1 Bft) S-SW 202 ° 0 min 0 W/m² 9,0 °C 10,1 °C 6,4 km/h (2 Bft)
25.12.2023 16:07 22,7 °C 10,1 °C 65 % 93 % 1006,9 hPa 0,0 l/m² 5,3 km/h (1 Bft) S-SW 211 ° 0 min 0 W/m² 9,0 °C 10,1 °C 8,0 km/h (2 Bft)
25.12.2023 16:08 22,7 °C 10,1 °C 65 % 93 % 1006,9 hPa 0,0 l/m² 4,3 km/h (1 Bft) SW 214 ° 0 min 0 W/m² 9,0 °C 10,1 °C 6,4 km/h (2 Bft)
25.12.2023 16:09 22,7 °C 10,0 °C 65 % 93 % 1006,7 hPa 0,0 l/m² 5,9 km/h (2 Bft) SW 224 ° 0 min 0 W/m² 8,9 °C 10,0 °C 8,0 km/h (2 Bft)
25.12.2023 16:11 22,7 °C 10,0 °C 65 % 93 % 1006,8 hPa 0,0 l/m² 6,8 km/h (2 Bft) SW 226 ° 0 min 0 W/m² 8,9 °C 9,7 °C 9,7 km/h (2 Bft)
25.12.2023 16:13 22,7 °C 10,0 °C 65 % 93 % 1006,8 hPa 0,0 l/m² 5,0 km/h (1 Bft) SW 222 ° 0 min 0 W/m² 8,9 °C 10,0 °C 6,4 km/h (2 Bft)
25.12.2023 16:14 22,7 °C 9,9 °C 66 % 93 % 1006,8 hPa 0,0 l/m² 5,6 km/h (2 Bft) SW 225 ° 0 min 0 W/m² 8,8 °C 9,9 °C 8,0 km/h (2 Bft)
25.12.2023 16:15 22,7 °C 9,9 °C 66 % 93 % 1006,9 hPa 0,0 l/m² 4,7 km/h (1 Bft) SW 223 ° 0 min 0 W/m² 8,8 °C 9,9 °C 6,4 km/h (2 Bft)
25.12.2023 16:16 22,7 °C 9,9 °C 66 % 93 % 1006,8 hPa 0,0 l/m² 5,2 km/h (1 Bft) SW 225 ° 0 min 0 W/m² 8,8 °C 9,9 °C 6,4 km/h (2 Bft)
25.12.2023 16:17 22,7 °C 9,9 °C 66 % 93 % 1006,9 hPa 0,0 l/m² 6,1 km/h (2 Bft) S-SW 212 ° 0 min 0 W/m² 8,8 °C 9,9 °C 9,7 km/h (2 Bft)
25.12.2023 16:18 22,7 °C 9,9 °C 66 % 93 % 1006,8 hPa 0,0 l/m² 7,0 km/h (2 Bft) S-SW 209 ° 0 min 0 W/m² 8,8 °C 9,5 °C 9,7 km/h (2 Bft)
25.12.2023 16:19 22,7 °C 9,9 °C 66 % 93 % 1006,8 hPa 0,0 l/m² 6,5 km/h (2 Bft) S-SW 209 ° 0 min 0 W/m² 8,8 °C 9,9 °C 9,7 km/h (2 Bft)
25.12.2023 16:21 22,7 °C 9,9 °C 66 % 93 % 1006,8 hPa 0,2 l/m² 6,1 km/h (2 Bft) S-SW 207 ° 0 min 0 W/m² 8,8 °C 9,9 °C 8,0 km/h (2 Bft)
25.12.2023 16:23 22,7 °C 9,9 °C 66 % 93 % 1006,9 hPa 0,0 l/m² 6,4 km/h (2 Bft) S-SW 213 ° 0 min 0 W/m² 8,8 °C 9,9 °C 8,0 km/h (2 Bft)
25.12.2023 16:24 22,7 °C 9,9 °C 66 % 93 % 1007,0 hPa 0,0 l/m² 6,5 km/h (2 Bft) S-SW 202 ° 0 min 0 W/m² 8,8 °C 9,9 °C 8,0 km/h (2 Bft)
25.12.2023 16:25 22,7 °C 9,8 °C 66 % 93 % 1006,8 hPa 0,0 l/m² 6,9 km/h (2 Bft) S-SW 193 ° 0 min 0 W/m² 8,7 °C 9,4 °C 9,7 km/h (2 Bft)
25.12.2023 16:26 22,7 °C 9,8 °C 66 % 93 % 1006,7 hPa 0,0 l/m² 9,0 km/h (2 Bft) S-SW 201 ° 0 min 0 W/m² 8,7 °C 8,0 °C 9,7 km/h (2 Bft)
25.12.2023 16:27 22,7 °C 9,8 °C 66 % 93 % 1006,7 hPa 0,0 l/m² 7,9 km/h (2 Bft) S-SW 201 ° 0 min 0 W/m² 8,7 °C 8,7 °C 9,7 km/h (2 Bft)
25.12.2023 16:28 22,7 °C 9,8 °C 66 % 94 % 1006,8 hPa 0,0 l/m² 11,3 km/h (2 Bft) S-SW 212 ° 0 min 0 W/m² 8,9 °C 6,6 °C 12,9 km/h (3 Bft)
25.12.2023 16:29 22,7 °C 9,8 °C 66 % 94 % 1007,0 hPa 0,0 l/m² 10,2 km/h (2 Bft) S-SW 200 ° 0 min 0 W/m² 8,9 °C 7,3 °C 12,9 km/h (3 Bft)
25.12.2023 16:31 22,7 °C 9,8 °C 66 % 94 % 1007,1 hPa 0,0 l/m² 9,1 km/h (2 Bft) SW 214 ° 0 min 0 W/m² 8,9 °C 7,9 °C 12,9 km/h (3 Bft)
25.12.2023 16:33 22,7 °C 9,8 °C 66 % 94 % 1007,0 hPa 0,0 l/m² 7,1 km/h (2 Bft) SW 215 ° 0 min 0 W/m² 8,9 °C 9,3 °C 9,7 km/h (2 Bft)
25.12.2023 16:34 22,7 °C 9,8 °C 66 % 94 % 1007,0 hPa 0,0 l/m² 7,6 km/h (2 Bft) S-SW 201 ° 0 min 0 W/m² 8,9 °C 8,9 °C 9,7 km/h (2 Bft)
25.12.2023 16:35 22,7 °C 9,8 °C 66 % 94 % 1007,0 hPa 0,2 l/m² 5,5 km/h (2 Bft) S-SW 205 ° 0 min 0 W/m² 8,9 °C 9,8 °C 8,0 km/h (2 Bft)
25.12.2023 16:36 22,7 °C 9,8 °C 66 % 94 % 1006,9 hPa 0,0 l/m² 5,9 km/h (2 Bft) S-SW 193 ° 0 min 0 W/m² 8,9 °C 9,8 °C 8,0 km/h (2 Bft)
25.12.2023 16:37 22,7 °C 9,8 °C 66 % 94 % 1007,0 hPa 0,0 l/m² 8,0 km/h (2 Bft) S-SW 201 ° 0 min 0 W/m² 8,9 °C 8,6 °C 9,7 km/h (2 Bft)
25.12.2023 16:38 22,7 °C 9,8 °C 66 % 94 % 1007,0 hPa 0,0 l/m² 7,7 km/h (2 Bft) S-SW 200 ° 0 min 0 W/m² 8,9 °C 8,9 °C 9,7 km/h (2 Bft)
25.12.2023 16:39 22,7 °C 9,8 °C 66 % 94 % 1006,9 hPa 0,0 l/m² 10,1 km/h (2 Bft) S-SW 195 ° 0 min 0 W/m² 8,9 °C 7,3 °C 14,5 km/h (3 Bft)
25.12.2023 16:41 22,7 °C 9,7 °C 66 % 93 % 1006,9 hPa 0,0 l/m² 9,7 km/h (2 Bft) S-SW 200 ° 0 min 0 W/m² 8,6 °C 7,4 °C 12,9 km/h (3 Bft)
25.12.2023 16:43 22,8 °C 9,7 °C 66 % 93 % 1006,9 hPa 0,0 l/m² 10,6 km/h (2 Bft) S 188 ° 0 min 0 W/m² 8,6 °C 6,9 °C 14,5 km/h (3 Bft)
25.12.2023 16:44 22,7 °C 9,7 °C 66 % 93 % 1006,9 hPa 0,0 l/m² 10,9 km/h (2 Bft) S-SW 200 ° 0 min 0 W/m² 8,6 °C 6,8 °C 14,5 km/h (3 Bft)
25.12.2023 16:45 22,7 °C 9,7 °C 66 % 93 % 1006,9 hPa 0,0 l/m² 10,4 km/h (2 Bft) S 190 ° 0 min 0 W/m² 8,6 °C 7,0 °C 14,5 km/h (3 Bft)
25.12.2023 16:46 22,7 °C 9,7 °C 66 % 94 % 1006,9 hPa 0,0 l/m² 12,1 km/h (2 Bft) S-SW 211 ° 0 min 0 W/m² 8,8 °C 6,1 °C 16,1 km/h (3 Bft)
25.12.2023 16:47 22,7 °C 9,7 °C 66 % 93 % 1007,0 hPa 0,0 l/m² 10,5 km/h (2 Bft) S-SW 207 ° 0 min 0 W/m² 8,6 °C 7,0 °C 12,9 km/h (3 Bft)
25.12.2023 16:48 22,7 °C 9,7 °C 66 % 94 % 1007,1 hPa 0,0 l/m² 9,4 km/h (2 Bft) S-SW 202 ° 0 min 0 W/m² 8,8 °C 7,6 °C 11,3 km/h (2 Bft)
25.12.2023 16:49 22,7 °C 9,7 °C 66 % 94 % 1007,0 hPa 0,0 l/m² 9,7 km/h (2 Bft) S-SW 201 ° 0 min 0 W/m² 8,8 °C 7,4 °C 14,5 km/h (3 Bft)
25.12.2023 16:51 22,8 °C 9,7 °C 66 % 93 % 1007,0 hPa 0,0 l/m² 9,7 km/h (2 Bft) S-SW 205 ° 0 min 0 W/m² 8,6 °C 7,4 °C 12,9 km/h (3 Bft)
25.12.2023 16:53 22,8 °C 9,7 °C 66 % 94 % 1007,2 hPa 0,0 l/m² 11,6 km/h (2 Bft) S 190 ° 0 min 0 W/m² 8,8 °C 6,4 °C 14,5 km/h (3 Bft)
25.12.2023 16:54 22,8 °C 9,7 °C 66 % 94 % 1007,1 hPa 0,0 l/m² 7,7 km/h (2 Bft) SW 217 ° 0 min 0 W/m² 8,8 °C 8,7 °C 9,7 km/h (2 Bft)
25.12.2023 16:55 22,8 °C 9,7 °C 66 % 94 % 1007,1 hPa 0,0 l/m² 9,9 km/h (2 Bft) S-SW 207 ° 0 min 0 W/m² 8,8 °C 7,3 °C 12,9 km/h (3 Bft)
25.12.2023 16:56 22,8 °C 9,7 °C 66 % 94 % 1007,1 hPa 0,0 l/m² 7,6 km/h (2 Bft) S-SW 211 ° 0 min 0 W/m² 8,8 °C 8,8 °C 9,7 km/h (2 Bft)
25.12.2023 16:57 22,8 °C 9,6 °C 66 % 94 % 1007,1 hPa 0,0 l/m² 5,8 km/h (2 Bft) S-SW 206 ° 0 min 0 W/m² 8,7 °C 9,6 °C 8,0 km/h (2 Bft)
25.12.2023 16:58 22,8 °C 9,6 °C 66 % 94 % 1007,2 hPa 0,0 l/m² 7,0 km/h (2 Bft) S-SW 200 ° 0 min 0 W/m² 8,7 °C 9,2 °C 11,3 km/h (2 Bft)
25.12.2023 16:59 22,8 °C 9,6 °C 65 % 94 % 1007,0 hPa 0,0 l/m² 5,8 km/h (2 Bft) S-SW 200 ° 0 min 0 W/m² 8,7 °C 9,6 °C 8,0 km/h (2 Bft)
25.12.2023 17:01 22,8 °C 9,6 °C 61 % 94 % 1006,9 hPa 0,0 l/m² 6,7 km/h (2 Bft) S-SW 197 ° 0 min 0 W/m² 8,7 °C 9,4 °C 11,3 km/h (2 Bft)
25.12.2023 17:03 22,8 °C 9,6 °C 61 % 94 % 1006,8 hPa 0,0 l/m² 7,5 km/h (2 Bft) S-SW 194 ° 0 min 0 W/m² 8,7 °C 8,8 °C 11,3 km/h (2 Bft)
25.12.2023 17:04 22,8 °C 9,6 °C 61 % 94 % 1006,8 hPa 0,0 l/m² 8,7 km/h (2 Bft) S-SW 203 ° 0 min 0 W/m² 8,7 °C 8,0 °C 12,9 km/h (3 Bft)
25.12.2023 17:05 22,8 °C 9,6 °C 61 % 94 % 1006,9 hPa 0,0 l/m² 9,6 km/h (2 Bft) S-SW 204 ° 0 min 0 W/m² 8,7 °C 7,4 °C 12,9 km/h (3 Bft)
25.12.2023 17:06 22,8 °C 9,6 °C 62 % 94 % 1006,9 hPa 0,2 l/m² 10,5 km/h (2 Bft) S-SW 194 ° 0 min 0 W/m² 8,7 °C 6,9 °C 14,5 km/h (3 Bft)
25.12.2023 17:07 22,8 °C 9,6 °C 62 % 94 % 1007,0 hPa 0,0 l/m² 11,9 km/h (2 Bft) S-SW 199 ° 0 min 0 W/m² 8,7 °C 6,1 °C 14,5 km/h (3 Bft)
25.12.2023 17:08 22,8 °C 9,6 °C 62 % 94 % 1006,9 hPa 0,0 l/m² 10,2 km/h (2 Bft) S 190 ° 0 min 0 W/m² 8,7 °C 7,0 °C 12,9 km/h (3 Bft)
25.12.2023 17:09 22,8 °C 9,6 °C 62 % 94 % 1006,9 hPa 0,0 l/m² 10,3 km/h (2 Bft) S 190 ° 0 min 0 W/m² 8,7 °C 7,0 °C 12,9 km/h (3 Bft)
25.12.2023 17:11 22,8 °C 9,6 °C 62 % 94 % 1006,9 hPa 0,0 l/m² 12,4 km/h (2 Bft) S-SW 207 ° 0 min 0 W/m² 8,7 °C 5,9 °C 17,7 km/h (3 Bft)
25.12.2023 17:13 22,8 °C 9,6 °C 61 % 94 % 1007,0 hPa 0,0 l/m² 13,2 km/h (3 Bft) S-SW 198 ° 0 min 0 W/m² 8,7 °C 5,5 °C 16,1 km/h (3 Bft)
25.12.2023 17:14 22,8 °C 9,5 °C 61 % 94 % 1007,0 hPa 0,0 l/m² 13,8 km/h (3 Bft) S-SW 208 ° 0 min 0 W/m² 8,6 °C 5,1 °C 17,7 km/h (3 Bft)
25.12.2023 17:15 22,7 °C 9,5 °C 60 % 94 % 1007,0 hPa 0,0 l/m² 14,3 km/h (3 Bft) S-SW 201 ° 0 min 0 W/m² 8,6 °C 4,8 °C 17,7 km/h (3 Bft)
25.12.2023 17:16 22,7 °C 9,5 °C 59 % 94 % 1007,1 hPa 0,0 l/m² 15,5 km/h (3 Bft) SW 215 ° 0 min 0 W/m² 8,6 °C 4,3 °C 22,5 km/h (4 Bft)
25.12.2023 17:17 22,7 °C 9,5 °C 58 % 94 % 1007,1 hPa 0,0 l/m² 13,1 km/h (3 Bft) S-SW 206 ° 0 min 0 W/m² 8,6 °C 5,4 °C 17,7 km/h (3 Bft)
25.12.2023 17:18 22,7 °C 9,5 °C 58 % 94 % 1007,0 hPa 0,0 l/m² 15,9 km/h (3 Bft) SW 220 ° 0 min 0 W/m² 8,6 °C 4,2 °C 19,3 km/h (3 Bft)
25.12.2023 17:19 22,7 °C 9,5 °C 58 % 94 % 1007,0 hPa 0,0 l/m² 17,3 km/h (3 Bft) S-SW 207 ° 0 min 0 W/m² 8,6 °C 3,6 °C 19,3 km/h (3 Bft)
25.12.2023 17:21 22,6 °C 9,5 °C 58 % 94 % 1007,1 hPa 0,0 l/m² 13,0 km/h (3 Bft) S-SW 213 ° 0 min 0 W/m² 8,6 °C 5,4 °C 16,1 km/h (3 Bft)
25.12.2023 17:23 22,6 °C 9,5 °C 58 % 94 % 1007,1 hPa 0,0 l/m² 13,4 km/h (3 Bft) S-SW 205 ° 0 min 0 W/m² 8,6 °C 5,2 °C 19,3 km/h (3 Bft)
25.12.2023 17:24 22,6 °C 9,5 °C 59 % 94 % 1007,1 hPa 0,0 l/m² 12,2 km/h (2 Bft) S-SW 202 ° 0 min 0 W/m² 8,6 °C 5,8 °C 19,3 km/h (3 Bft)
25.12.2023 17:25 22,6 °C 9,5 °C 59 % 94 % 1007,1 hPa 0,0 l/m² 11,6 km/h (2 Bft) SW 221 ° 0 min 0 W/m² 8,6 °C 6,1 °C 14,5 km/h (3 Bft)
25.12.2023 17:27 22,6 °C 9,5 °C 60 % 94 % 1007,1 hPa 0,0 l/m² 11,9 km/h (2 Bft) SW 219 ° 0 min 0 W/m² 8,6 °C 6,0 °C 17,7 km/h (3 Bft)
25.12.2023 17:28 22,6 °C 9,5 °C 60 % 94 % 1007,1 hPa 0,0 l/m² 12,3 km/h (2 Bft) S-SW 213 ° 0 min 0 W/m² 8,6 °C 5,8 °C 14,5 km/h (3 Bft)
25.12.2023 17:29 22,6 °C 9,5 °C 60 % 94 % 1007,0 hPa 0,0 l/m² 13,7 km/h (3 Bft) SW 222 ° 0 min 0 W/m² 8,6 °C 5,1 °C 17,7 km/h (3 Bft)
25.12.2023 17:31 22,6 °C 9,5 °C 60 % 94 % 1007,1 hPa 0,0 l/m² 8,7 km/h (2 Bft) SW 222 ° 0 min 0 W/m² 8,6 °C 7,9 °C 11,3 km/h (2 Bft)
25.12.2023 17:33 22,6 °C 9,5 °C 60 % 94 % 1007,2 hPa 0,0 l/m² 12,1 km/h (2 Bft) S-SW 208 ° 0 min 0 W/m² 8,6 °C 5,9 °C 14,5 km/h (3 Bft)
25.12.2023 17:34 22,6 °C 9,5 °C 60 % 94 % 1007,2 hPa 0,0 l/m² 15,5 km/h (3 Bft) SW 217 ° 0 min 0 W/m² 8,6 °C 4,3 °C 19,3 km/h (3 Bft)
25.12.2023 17:35 22,6 °C 9,4 °C 60 % 94 % 1007,2 hPa 0,0 l/m² 12,2 km/h (2 Bft) SW 219 ° 0 min 0 W/m² 8,5 °C 5,7 °C 16,1 km/h (3 Bft)
25.12.2023 17:37 22,6 °C 9,5 °C 60 % 94 % 1007,2 hPa 0,0 l/m² 10,8 km/h (2 Bft) SW 221 ° 0 min 0 W/m² 8,6 °C 6,6 °C 16,1 km/h (3 Bft)
25.12.2023 17:38 22,6 °C 9,5 °C 60 % 94 % 1007,2 hPa 0,0 l/m² 10,5 km/h (2 Bft) SW 219 ° 0 min 0 W/m² 8,6 °C 6,8 °C 14,5 km/h (3 Bft)
25.12.2023 17:39 22,6 °C 9,5 °C 60 % 94 % 1007,2 hPa 0,0 l/m² 8,0 km/h (2 Bft) SW 220 ° 0 min 0 W/m² 8,6 °C 8,3 °C 12,9 km/h (3 Bft)
25.12.2023 17:41 22,6 °C 9,4 °C 61 % 94 % 1007,1 hPa 0,0 l/m² 11,5 km/h (2 Bft) SW 224 ° 0 min 0 W/m² 8,5 °C 6,1 °C 16,1 km/h (3 Bft)
25.12.2023 17:42 22,6 °C 9,4 °C 61 % 94 % 1007,1 hPa 0,0 l/m² 10,8 km/h (2 Bft) SW 228 ° 0 min 0 W/m² 8,5 °C 6,5 °C 14,5 km/h (3 Bft)
25.12.2023 17:43 22,6 °C 9,4 °C 61 % 94 % 1007,1 hPa 0,0 l/m² 11,8 km/h (2 Bft) S-SW 201 ° 0 min 0 W/m² 8,5 °C 5,9 °C 12,9 km/h (3 Bft)
25.12.2023 17:44 22,6 °C 9,4 °C 61 % 94 % 1007,0 hPa 0,0 l/m² 13,6 km/h (3 Bft) S-SW 205 ° 0 min 0 W/m² 8,5 °C 5,0 °C 16,1 km/h (3 Bft)
25.12.2023 17:45 22,6 °C 9,5 °C 61 % 94 % 1007,1 hPa 0,0 l/m² 11,4 km/h (2 Bft) SW 215 ° 0 min 0 W/m² 8,6 °C 6,3 °C 14,5 km/h (3 Bft)
25.12.2023 17:46 22,6 °C 9,4 °C 61 % 94 % 1007,0 hPa 0,0 l/m² 10,2 km/h (2 Bft) S-SW 194 ° 0 min 0 W/m² 8,5 °C 6,8 °C 12,9 km/h (3 Bft)
25.12.2023 17:47 22,6 °C 9,4 °C 61 % 94 % 1007,0 hPa 0,0 l/m² 14,3 km/h (3 Bft) S 189 ° 0 min 0 W/m² 8,5 °C 4,7 °C 17,7 km/h (3 Bft)
25.12.2023 17:48 22,6 °C 9,4 °C 61 % 94 % 1007,0 hPa 0,0 l/m² 13,1 km/h (3 Bft) S-SW 203 ° 0 min 0 W/m² 8,5 °C 5,3 °C 16,1 km/h (3 Bft)
25.12.2023 17:49 22,6 °C 9,4 °C 61 % 94 % 1007,0 hPa 0,0 l/m² 15,4 km/h (3 Bft) S-SW 209 ° 0 min 0 W/m² 8,5 °C 4,2 °C 20,9 km/h (4 Bft)
25.12.2023 17:51 22,5 °C 9,4 °C 60 % 94 % 1006,9 hPa 0,0 l/m² 17,7 km/h (3 Bft) S 188 ° 0 min 0 W/m² 8,5 °C 3,3 °C 24,1 km/h (4 Bft)
25.12.2023 17:53 22,5 °C 9,5 °C 59 % 94 % 1007,0 hPa 0,0 l/m² 16,8 km/h (3 Bft) SW 217 ° 0 min 0 W/m² 8,6 °C 3,8 °C 22,5 km/h (4 Bft)
25.12.2023 17:54 22,5 °C 9,5 °C 59 % 94 % 1007,0 hPa 0,0 l/m² 17,9 km/h (3 Bft) SW 216 ° 0 min 0 W/m² 8,6 °C 3,4 °C 20,9 km/h (4 Bft)
25.12.2023 17:55 22,4 °C 9,5 °C 59 % 94 % 1007,1 hPa 0,0 l/m² 14,3 km/h (3 Bft) SW 215 ° 0 min 0 W/m² 8,6 °C 4,8 °C 19,3 km/h (3 Bft)
25.12.2023 17:56 22,4 °C 9,4 °C 60 % 94 % 1007,1 hPa 0,0 l/m² 10,5 km/h (2 Bft) SW 224 ° 0 min 0 W/m² 8,5 °C 6,6 °C 12,9 km/h (3 Bft)
25.12.2023 17:57 22,4 °C 9,4 °C 60 % 94 % 1007,2 hPa 0,0 l/m² 13,0 km/h (3 Bft) SW 235 ° 0 min 0 W/m² 8,5 °C 5,3 °C 17,7 km/h (3 Bft)
25.12.2023 17:58 22,4 °C 9,5 °C 60 % 94 % 1007,2 hPa 0,0 l/m² 10,0 km/h (2 Bft) SW 221 ° 0 min 0 W/m² 8,6 °C 7,0 °C 12,9 km/h (3 Bft)
25.12.2023 17:59 22,4 °C 9,5 °C 60 % 94 % 1007,2 hPa 0,0 l/m² 15,0 km/h (3 Bft) S-SW 207 ° 0 min 0 W/m² 8,6 °C 4,5 °C 19,3 km/h (3 Bft)
25.12.2023 18:01 22,4 °C 9,5 °C 60 % 94 % 1007,3 hPa 0,0 l/m² 14,7 km/h (3 Bft) SW 219 ° 0 min 0 W/m² 8,6 °C 4,7 °C 20,9 km/h (4 Bft)
25.12.2023 18:03 22,4 °C 9,5 °C 60 % 94 % 1007,4 hPa 0,0 l/m² 17,6 km/h (3 Bft) S-SW 209 ° 0 min 0 W/m² 8,6 °C 3,5 °C 22,5 km/h (4 Bft)
25.12.2023 18:04 22,4 °C 9,5 °C 60 % 94 % 1007,5 hPa 0,0 l/m² 15,0 km/h (3 Bft) SW 228 ° 0 min 0 W/m² 8,6 °C 4,5 °C 19,3 km/h (3 Bft)
25.12.2023 18:05 22,4 °C 9,4 °C 61 % 94 % 1007,6 hPa 0,0 l/m² 10,5 km/h (2 Bft) S-SW 213 ° 0 min 0 W/m² 8,5 °C 6,6 °C 12,9 km/h (3 Bft)
25.12.2023 18:06 22,4 °C 9,5 °C 61 % 94 % 1007,5 hPa 0,0 l/m² 14,2 km/h (3 Bft) S-SW 204 ° 0 min 0 W/m² 8,6 °C 4,9 °C 17,7 km/h (3 Bft)
25.12.2023 18:07 22,4 °C 9,5 °C 61 % 94 % 1007,5 hPa 0,0 l/m² 15,8 km/h (3 Bft) S-SW 213 ° 0 min 0 W/m² 8,6 °C 4,2 °C 19,3 km/h (3 Bft)
25.12.2023 18:08 22,4 °C 9,4 °C 61 % 94 % 1007,5 hPa 0,0 l/m² 13,2 km/h (3 Bft) S-SW 207 ° 0 min 0 W/m² 8,5 °C 5,2 °C 17,7 km/h (3 Bft)
25.12.2023 18:09 22,4 °C 9,4 °C 61 % 94 % 1007,5 hPa 0,0 l/m² 18,4 km/h (3 Bft) S-SW 211 ° 0 min 0 W/m² 8,5 °C 3,1 °C 20,9 km/h (4 Bft)
25.12.2023 18:11 22,4 °C 9,4 °C 61 % 94 % 1007,4 hPa 0,0 l/m² 12,9 km/h (3 Bft) S-SW 196 ° 0 min 0 W/m² 8,5 °C 5,4 °C 19,3 km/h (3 Bft)
25.12.2023 18:13 22,4 °C 9,4 °C 61 % 94 % 1007,5 hPa 0,0 l/m² 13,1 km/h (3 Bft) SW 214 ° 0 min 0 W/m² 8,5 °C 5,3 °C 19,3 km/h (3 Bft)
25.12.2023 18:14 22,4 °C 9,5 °C 61 % 94 % 1007,4 hPa 0,0 l/m² 12,9 km/h (3 Bft) S-SW 202 ° 0 min 0 W/m² 8,6 °C 5,5 °C 16,1 km/h (3 Bft)
25.12.2023 18:15 22,4 °C 9,4 °C 61 % 94 % 1007,5 hPa 0,0 l/m² 10,5 km/h (2 Bft) SW 214 ° 0 min 0 W/m² 8,5 °C 6,6 °C 14,5 km/h (3 Bft)
25.12.2023 18:16 22,4 °C 9,4 °C 61 % 94 % 1007,5 hPa 0,0 l/m² 13,2 km/h (3 Bft) S-SW 205 ° 0 min 0 W/m² 8,5 °C 5,2 °C 17,7 km/h (3 Bft)
25.12.2023 18:17 22,4 °C 9,4 °C 61 % 94 % 1007,5 hPa 0,0 l/m² 14,5 km/h (3 Bft) S-SW 202 ° 0 min 0 W/m² 8,5 °C 4,6 °C 19,3 km/h (3 Bft)
25.12.2023 18:18 22,4 °C 9,4 °C 61 % 94 % 1007,6 hPa 0,0 l/m² 14,9 km/h (3 Bft) SW 215 ° 0 min 0 W/m² 8,5 °C 4,5 °C 20,9 km/h (4 Bft)
25.12.2023 18:19 22,4 °C 9,4 °C 61 % 94 % 1007,5 hPa 0,0 l/m² 15,7 km/h (3 Bft) SW 218 ° 0 min 0 W/m² 8,5 °C 4,1 °C 19,3 km/h (3 Bft)
25.12.2023 18:21 22,4 °C 9,4 °C 61 % 94 % 1007,6 hPa 0,0 l/m² 13,2 km/h (3 Bft) S-SW 211 ° 0 min 0 W/m² 8,5 °C 5,2 °C 17,7 km/h (3 Bft)
25.12.2023 18:23 22,4 °C 9,4 °C 61 % 94 % 1007,6 hPa 0,0 l/m² 15,7 km/h (3 Bft) SW 218 ° 0 min 0 W/m² 8,5 °C 4,1 °C 19,3 km/h (3 Bft)
25.12.2023 18:24 22,4 °C 9,4 °C 61 % 94 % 1007,6 hPa 0,0 l/m² 12,6 km/h (3 Bft) S-SW 213 ° 0 min 0 W/m² 8,5 °C 5,5 °C 16,1 km/h (3 Bft)
25.12.2023 18:25 22,4 °C 9,4 °C 61 % 94 % 1007,6 hPa 0,0 l/m² 12,3 km/h (2 Bft) S-SW 197 ° 0 min 0 W/m² 8,5 °C 5,7 °C 14,5 km/h (3 Bft)
25.12.2023 18:26 22,4 °C 9,4 °C 61 % 94 % 1007,7 hPa 0,0 l/m² 15,8 km/h (3 Bft) S-SW 206 ° 0 min 0 W/m² 8,5 °C 4,1 °C 19,3 km/h (3 Bft)
25.12.2023 18:27 22,4 °C 9,4 °C 61 % 94 % 1007,5 hPa 0,0 l/m² 15,2 km/h (3 Bft) SW 227 ° 0 min 0 W/m² 8,5 °C 4,3 °C 19,3 km/h (3 Bft)
25.12.2023 18:28 22,4 °C 9,4 °C 61 % 94 % 1007,6 hPa 0,0 l/m² 13,0 km/h (3 Bft) S-SW 207 ° 0 min 0 W/m² 8,5 °C 5,3 °C 16,1 km/h (3 Bft)
25.12.2023 18:29 22,4 °C 9,4 °C 61 % 94 % 1007,6 hPa 0,0 l/m² 14,5 km/h (3 Bft) S-SW 208 ° 0 min 0 W/m² 8,5 °C 4,6 °C 17,7 km/h (3 Bft)
25.12.2023 18:31 22,4 °C 9,4 °C 61 % 94 % 1007,5 hPa 0,0 l/m² 12,8 km/h (3 Bft) S-SW 195 ° 0 min 0 W/m² 8,5 °C 5,4 °C 16,1 km/h (3 Bft)
25.12.2023 18:33 22,4 °C 9,4 °C 61 % 94 % 1007,5 hPa 0,2 l/m² 15,0 km/h (3 Bft) S-SW 196 ° 0 min 0 W/m² 8,5 °C 4,4 °C 20,9 km/h (4 Bft)
25.12.2023 18:34 22,4 °C 9,4 °C 61 % 94 % 1007,6 hPa 0,0 l/m² 15,4 km/h (3 Bft) S-SW 200 ° 0 min 0 W/m² 8,5 °C 4,2 °C 19,3 km/h (3 Bft)
25.12.2023 18:35 22,4 °C 9,4 °C 62 % 94 % 1007,5 hPa 0,0 l/m² 15,2 km/h (3 Bft) S-SW 192 ° 0 min 0 W/m² 8,5 °C 4,3 °C 19,3 km/h (3 Bft)
25.12.2023 18:36 22,4 °C 9,4 °C 62 % 94 % 1007,5 hPa 0,0 l/m² 13,7 km/h (3 Bft) S-SW 200 ° 0 min 0 W/m² 8,5 °C 5,0 °C 16,1 km/h (3 Bft)
25.12.2023 18:37 22,4 °C 9,4 °C 62 % 94 % 1007,6 hPa 0,0 l/m² 14,8 km/h (3 Bft) S-SW 204 ° 0 min 0 W/m² 8,5 °C 4,5 °C 17,7 km/h (3 Bft)
25.12.2023 18:38 22,4 °C 9,4 °C 62 % 94 % 1007,6 hPa 0,0 l/m² 13,8 km/h (3 Bft) S-SW 213 ° 0 min 0 W/m² 8,5 °C 4,9 °C 16,1 km/h (3 Bft)
25.12.2023 18:39 22,4 °C 9,4 °C 62 % 94 % 1007,6 hPa 0,0 l/m² 13,8 km/h (3 Bft) S-SW 197 ° 0 min 0 W/m² 8,5 °C 4,9 °C 16,1 km/h (3 Bft)
25.12.2023 18:41 22,4 °C 9,4 °C 62 % 94 % 1007,7 hPa 0,0 l/m² 13,8 km/h (3 Bft) SW 217 ° 0 min 0 W/m² 8,5 °C 4,9 °C 16,1 km/h (3 Bft)
25.12.2023 18:43 22,4 °C 9,4 °C 62 % 94 % 1007,8 hPa 0,0 l/m² 11,9 km/h (2 Bft) S-SW 197 ° 0 min 0 W/m² 8,5 °C 5,9 °C 16,1 km/h (3 Bft)
25.12.2023 18:46 22,4 °C 9,4 °C 62 % 94 % 1007,8 hPa 0,0 l/m² 13,3 km/h (3 Bft) S-SW 201 ° 0 min 0 W/m² 8,5 °C 5,2 °C 17,7 km/h (3 Bft)
25.12.2023 18:47 22,4 °C 9,4 °C 62 % 94 % 1007,8 hPa 0,0 l/m² 13,3 km/h (3 Bft) S-SW 213 ° 0 min 0 W/m² 8,5 °C 5,2 °C 19,3 km/h (3 Bft)
25.12.2023 18:48 22,4 °C 9,4 °C 62 % 94 % 1007,7 hPa 0,0 l/m² 14,4 km/h (3 Bft) S-SW 198 ° 0 min 0 W/m² 8,5 °C 4,7 °C 17,7 km/h (3 Bft)
25.12.2023 18:49 22,4 °C 9,4 °C 62 % 94 % 1007,6 hPa 0,0 l/m² 12,7 km/h (3 Bft) S 175 ° 0 min 0 W/m² 8,5 °C 5,5 °C 16,1 km/h (3 Bft)
25.12.2023 18:51 22,4 °C 9,4 °C 62 % 94 % 1007,6 hPa 0,0 l/m² 13,4 km/h (3 Bft) S-SW 195 ° 0 min 0 W/m² 8,5 °C 5,1 °C 16,1 km/h (3 Bft)
25.12.2023 18:53 22,4 °C 9,4 °C 62 % 94 % 1007,6 hPa 0,0 l/m² 14,1 km/h (3 Bft) S-SW 207 ° 0 min 0 W/m² 8,5 °C 4,8 °C 17,7 km/h (3 Bft)
25.12.2023 18:54 22,4 °C 9,4 °C 62 % 94 % 1007,6 hPa 0,0 l/m² 14,9 km/h (3 Bft) S-SW 205 ° 0 min 0 W/m² 8,5 °C 4,5 °C 17,7 km/h (3 Bft)
25.12.2023 18:55 22,4 °C 9,4 °C 62 % 94 % 1007,8 hPa 0,0 l/m² 13,9 km/h (3 Bft) S-SW 199 ° 0 min 0 W/m² 8,5 °C 4,9 °C 17,7 km/h (3 Bft)
25.12.2023 18:56 22,4 °C 9,4 °C 62 % 94 % 1007,7 hPa 0,0 l/m² 13,4 km/h (3 Bft) S-SW 200 ° 0 min 0 W/m² 8,5 °C 5,1 °C 16,1 km/h (3 Bft)
25.12.2023 18:57 22,4 °C 9,4 °C 62 % 94 % 1007,7 hPa 0,0 l/m² 11,3 km/h (2 Bft) S-SW 196 ° 0 min 0 W/m² 8,5 °C 6,2 °C 12,9 km/h (3 Bft)
25.12.2023 18:58 22,4 °C 9,4 °C 62 % 94 % 1007,6 hPa 0,0 l/m² 11,8 km/h (2 Bft) SW 219 ° 0 min 0 W/m² 8,5 °C 5,9 °C 19,3 km/h (3 Bft)
25.12.2023 18:59 22,4 °C 9,5 °C 62 % 94 % 1007,6 hPa 0,0 l/m² 12,6 km/h (3 Bft) S-SW 206 ° 0 min 0 W/m² 8,6 °C 5,6 °C 14,5 km/h (3 Bft)
25.12.2023 19:01 22,4 °C 9,4 °C 62 % 94 % 1007,7 hPa 0,0 l/m² 11,9 km/h (2 Bft) S-SW 211 ° 0 min 0 W/m² 8,5 °C 5,9 °C 20,9 km/h (4 Bft)
25.12.2023 19:03 22,4 °C 9,4 °C 62 % 94 % 1007,8 hPa 0,0 l/m² 16,5 km/h (3 Bft) S-SW 201 ° 0 min 0 W/m² 8,5 °C 3,8 °C 24,1 km/h (4 Bft)
25.12.2023 19:04 22,5 °C 9,4 °C 62 % 94 % 1007,7 hPa 0,0 l/m² 15,2 km/h (3 Bft) S-SW 192 ° 0 min 0 W/m² 8,5 °C 4,3 °C 19,3 km/h (3 Bft)
25.12.2023 19:05 22,5 °C 9,4 °C 61 % 94 % 1007,8 hPa 0,0 l/m² 15,0 km/h (3 Bft) S-SW 198 ° 0 min 0 W/m² 8,5 °C 4,4 °C 19,3 km/h (3 Bft)
25.12.2023 19:07 22,6 °C 9,5 °C 61 % 94 % 1007,8 hPa 0,0 l/m² 16,1 km/h (3 Bft) S-SW 203 ° 0 min 0 W/m² 8,6 °C 4,1 °C 20,9 km/h (4 Bft)
25.12.2023 19:08 22,6 °C 9,5 °C 61 % 94 % 1007,8 hPa 0,0 l/m² 15,0 km/h (3 Bft) S-SW 205 ° 0 min 0 W/m² 8,6 °C 4,5 °C 17,7 km/h (3 Bft)
25.12.2023 19:09 22,5 °C 9,5 °C 61 % 94 % 1007,9 hPa 0,0 l/m² 14,6 km/h (3 Bft) S-SW 209 ° 0 min 0 W/m² 8,6 °C 4,7 °C 17,7 km/h (3 Bft)
25.12.2023 19:11 22,6 °C 9,5 °C 61 % 94 % 1007,9 hPa 0,0 l/m² 15,1 km/h (3 Bft) S-SW 202 ° 0 min 0 W/m² 8,6 °C 4,5 °C 20,9 km/h (4 Bft)
25.12.2023 19:13 22,6 °C 9,5 °C 61 % 94 % 1007,8 hPa 0,0 l/m² 16,4 km/h (3 Bft) S-SW 213 ° 0 min 0 W/m² 8,6 °C 3,9 °C 20,9 km/h (4 Bft)
25.12.2023 19:14 22,6 °C 9,5 °C 61 % 94 % 1007,9 hPa 0,0 l/m² 15,2 km/h (3 Bft) S-SW 205 ° 0 min 0 W/m² 8,6 °C 4,4 °C 17,7 km/h (3 Bft)
25.12.2023 19:15 22,6 °C 9,5 °C 61 % 94 % 1007,8 hPa 0,0 l/m² 13,2 km/h (3 Bft) S-SW 194 ° 0 min 0 W/m² 8,6 °C 5,3 °C 16,1 km/h (3 Bft)
25.12.2023 19:16 22,6 °C 9,6 °C 61 % 94 % 1007,9 hPa 0,0 l/m² 17,3 km/h (3 Bft) S-SW 206 ° 0 min 0 W/m² 8,7 °C 3,7 °C 19,3 km/h (3 Bft)
25.12.2023 19:17 22,6 °C 9,5 °C 61 % 94 % 1007,8 hPa 0,0 l/m² 16,2 km/h (3 Bft) S-SW 211 ° 0 min 0 W/m² 8,6 °C 4,0 °C 19,3 km/h (3 Bft)
25.12.2023 19:18 22,6 °C 9,6 °C 61 % 94 % 1007,8 hPa 0,0 l/m² 17,5 km/h (3 Bft) S-SW 213 ° 0 min 0 W/m² 8,7 °C 3,6 °C 20,9 km/h (4 Bft)
25.12.2023 19:19 22,6 °C 9,5 °C 61 % 94 % 1007,9 hPa 0,0 l/m² 18,0 km/h (3 Bft) S-SW 209 ° 0 min 0 W/m² 8,6 °C 3,3 °C 22,5 km/h (4 Bft)
25.12.2023 19:21 22,6 °C 9,6 °C 61 % 94 % 1007,8 hPa 0,0 l/m² 15,0 km/h (3 Bft) SW 221 ° 0 min 0 W/m² 8,7 °C 4,6 °C 19,3 km/h (3 Bft)
25.12.2023 19:23 22,7 °C 9,6 °C 61 % 94 % 1007,8 hPa 0,0 l/m² 14,4 km/h (3 Bft) S-SW 210 ° 0 min 0 W/m² 8,7 °C 4,9 °C 19,3 km/h (3 Bft)
25.12.2023 19:24 22,7 °C 9,6 °C 61 % 94 % 1007,8 hPa 0,0 l/m² 15,8 km/h (3 Bft) SW 215 ° 0 min 0 W/m² 8,7 °C 4,3 °C 19,3 km/h (3 Bft)
25.12.2023 19:25 22,7 °C 9,5 °C 61 % 94 % 1007,8 hPa 0,0 l/m² 14,8 km/h (3 Bft) S-SW 210 ° 0 min 0 W/m² 8,6 °C 4,6 °C 19,3 km/h (3 Bft)
25.12.2023 19:27 22,7 °C 9,5 °C 61 % 94 % 1007,8 hPa 0,0 l/m² 13,1 km/h (3 Bft) SW 224 ° 0 min 0 W/m² 8,6 °C 5,4 °C 17,7 km/h (3 Bft)
25.12.2023 19:28 22,7 °C 9,5 °C 61 % 94 % 1007,8 hPa 0,0 l/m² 12,7 km/h (3 Bft) S-SW 208 ° 0 min 0 W/m² 8,6 °C 5,6 °C 14,5 km/h (3 Bft)
25.12.2023 19:29 22,7 °C 9,6 °C 61 % 94 % 1007,9 hPa 0,0 l/m² 13,5 km/h (3 Bft) S-SW 213 ° 0 min 0 W/m² 8,7 °C 5,3 °C 17,7 km/h (3 Bft)
25.12.2023 19:31 22,7 °C 9,6 °C 61 % 94 % 1007,9 hPa 0,0 l/m² 12,6 km/h (3 Bft) S-SW 202 ° 0 min 0 W/m² 8,7 °C 5,8 °C 17,7 km/h (3 Bft)
25.12.2023 19:33 22,7 °C 9,5 °C 61 % 94 % 1008,0 hPa 0,0 l/m² 13,5 km/h (3 Bft) SW 218 ° 0 min 0 W/m² 8,6 °C 5,2 °C 17,7 km/h (3 Bft)
25.12.2023 19:34 22,7 °C 9,5 °C 61 % 94 % 1008,0 hPa 0,0 l/m² 11,8 km/h (2 Bft) SW 217 ° 0 min 0 W/m² 8,6 °C 6,0 °C 12,9 km/h (3 Bft)
25.12.2023 19:35 22,7 °C 9,5 °C 61 % 94 % 1008,1 hPa 0,0 l/m² 14,2 km/h (3 Bft) SW 223 ° 0 min 0 W/m² 8,6 °C 4,9 °C 17,7 km/h (3 Bft)
25.12.2023 19:36 22,7 °C 9,5 °C 61 % 94 % 1008,1 hPa 0,0 l/m² 11,3 km/h (2 Bft) S-SW 211 ° 0 min 0 W/m² 8,6 °C 6,3 °C 16,1 km/h (3 Bft)
25.12.2023 19:37 22,7 °C 9,5 °C 61 % 94 % 1008,1 hPa 0,0 l/m² 14,2 km/h (3 Bft) S-SW 211 ° 0 min 0 W/m² 8,6 °C 4,9 °C 17,7 km/h (3 Bft)
25.12.2023 19:38 22,7 °C 9,5 °C 61 % 94 % 1008,0 hPa 0,0 l/m² 12,6 km/h (3 Bft) S-SW 198 ° 0 min 0 W/m² 8,6 °C 5,6 °C 16,1 km/h (3 Bft)
25.12.2023 19:39 22,7 °C 9,5 °C 61 % 94 % 1008,0 hPa 0,0 l/m² 13,1 km/h (3 Bft) S-SW 203 ° 0 min 0 W/m² 8,6 °C 5,4 °C 17,7 km/h (3 Bft)
25.12.2023 19:41 22,7 °C 9,5 °C 61 % 94 % 1007,9 hPa 0,0 l/m² 12,8 km/h (3 Bft) S-SW 205 ° 0 min 0 W/m² 8,6 °C 5,5 °C 17,7 km/h (3 Bft)
25.12.2023 19:43 22,7 °C 9,5 °C 61 % 94 % 1008,0 hPa 0,0 l/m² 11,4 km/h (2 Bft) S-SW 209 ° 0 min 0 W/m² 8,6 °C 6,3 °C 16,1 km/h (3 Bft)
25.12.2023 19:44 22,8 °C 9,5 °C 61 % 94 % 1008,0 hPa 0,0 l/m² 7,8 km/h (2 Bft) S-SW 199 ° 0 min 0 W/m² 8,6 °C 8,5 °C 9,7 km/h (2 Bft)
25.12.2023 19:45 22,8 °C 9,5 °C 61 % 94 % 1008,0 hPa 0,0 l/m² 12,2 km/h (2 Bft) SW 224 ° 0 min 0 W/m² 8,6 °C 5,8 °C 16,1 km/h (3 Bft)
25.12.2023 19:46 22,8 °C 9,5 °C 61 % 94 % 1008,1 hPa 0,0 l/m² 11,2 km/h (2 Bft) S-SW 206 ° 0 min 0 W/m² 8,6 °C 6,4 °C 16,1 km/h (3 Bft)
25.12.2023 19:47 22,8 °C 9,5 °C 61 % 94 % 1008,0 hPa 0,0 l/m² 14,4 km/h (3 Bft) S-SW 213 ° 0 min 0 W/m² 8,6 °C 4,8 °C 20,9 km/h (4 Bft)
25.12.2023 19:48 22,8 °C 9,4 °C 61 % 94 % 1008,0 hPa 0,0 l/m² 16,1 km/h (3 Bft) S-SW 208 ° 0 min 0 W/m² 8,5 °C 3,9 °C 20,9 km/h (4 Bft)
25.12.2023 19:49 22,8 °C 9,5 °C 61 % 94 % 1008,1 hPa 0,0 l/m² 12,5 km/h (2 Bft) S-SW 201 ° 0 min 0 W/m² 8,6 °C 5,7 °C 14,5 km/h (3 Bft)
25.12.2023 19:51 22,8 °C 9,5 °C 61 % 94 % 1008,1 hPa 0,0 l/m² 13,2 km/h (3 Bft) S-SW 197 ° 0 min 0 W/m² 8,6 °C 5,3 °C 19,3 km/h (3 Bft)
25.12.2023 19:53 22,8 °C 9,5 °C 61 % 94 % 1008,1 hPa 0,0 l/m² 14,2 km/h (3 Bft) S-SW 211 ° 0 min 0 W/m² 8,6 °C 4,9 °C 16,1 km/h (3 Bft)
25.12.2023 19:54 22,8 °C 9,5 °C 61 % 94 % 1008,1 hPa 0,0 l/m² 11,6 km/h (2 Bft) S-SW 207 ° 0 min 0 W/m² 8,6 °C 6,1 °C 14,5 km/h (3 Bft)
25.12.2023 19:55 22,8 °C 9,5 °C 61 % 94 % 1008,0 hPa 0,0 l/m² 13,6 km/h (3 Bft) S-SW 209 ° 0 min 0 W/m² 8,6 °C 5,2 °C 20,9 km/h (4 Bft)
25.12.2023 19:56 22,8 °C 9,5 °C 61 % 94 % 1008,1 hPa 0,0 l/m² 14,7 km/h (3 Bft) S 189 ° 0 min 0 W/m² 8,6 °C 4,7 °C 16,1 km/h (3 Bft)
25.12.2023 19:57 22,8 °C 9,5 °C 61 % 94 % 1008,1 hPa 0,0 l/m² 15,8 km/h (3 Bft) S-SW 206 ° 0 min 0 W/m² 8,6 °C 4,2 °C 19,3 km/h (3 Bft)
25.12.2023 19:58 22,8 °C 9,5 °C 61 % 94 % 1008,1 hPa 0,0 l/m² 13,7 km/h (3 Bft) S-SW 211 ° 0 min 0 W/m² 8,6 °C 5,1 °C 16,1 km/h (3 Bft)
25.12.2023 19:59 22,8 °C 9,5 °C 61 % 94 % 1008,1 hPa 0,0 l/m² 13,8 km/h (3 Bft) SW 229 ° 0 min 0 W/m² 8,6 °C 5,1 °C 17,7 km/h (3 Bft)
25.12.2023 20:01 22,8 °C 9,4 °C 61 % 94 % 1008,0 hPa 0,0 l/m² 14,0 km/h (3 Bft) S-SW 201 ° 0 min 0 W/m² 8,5 °C 4,9 °C 19,3 km/h (3 Bft)
25.12.2023 20:03 22,8 °C 9,5 °C 61 % 94 % 1007,9 hPa 0,0 l/m² 13,9 km/h (3 Bft) S-SW 207 ° 0 min 0 W/m² 8,6 °C 5,0 °C 20,9 km/h (4 Bft)
25.12.2023 20:04 22,8 °C 9,5 °C 61 % 94 % 1007,9 hPa 0,0 l/m² 17,4 km/h (3 Bft) S-SW 208 ° 0 min 0 W/m² 8,6 °C 3,6 °C 22,5 km/h (4 Bft)
25.12.2023 20:05 22,9 °C 9,5 °C 61 % 94 % 1007,9 hPa 0,0 l/m² 16,6 km/h (3 Bft) S-SW 205 ° 0 min 0 W/m² 8,6 °C 3,9 °C 20,9 km/h (4 Bft)
25.12.2023 20:06 22,9 °C 9,5 °C 61 % 94 % 1007,9 hPa 0,0 l/m² 15,3 km/h (3 Bft) S-SW 205 ° 0 min 0 W/m² 8,6 °C 4,4 °C 17,7 km/h (3 Bft)
25.12.2023 20:07 22,9 °C 9,5 °C 61 % 94 % 1007,8 hPa 0,0 l/m² 13,9 km/h (3 Bft) S 190 ° 0 min 0 W/m² 8,6 °C 5,0 °C 16,1 km/h (3 Bft)
25.12.2023 20:08 22,9 °C 9,5 °C 61 % 94 % 1007,7 hPa 0,0 l/m² 13,5 km/h (3 Bft) S-SW 193 ° 0 min 0 W/m² 8,6 °C 5,2 °C 17,7 km/h (3 Bft)
25.12.2023 20:09 22,9 °C 9,5 °C 61 % 94 % 1007,7 hPa 0,0 l/m² 12,4 km/h (2 Bft) S-SW 196 ° 0 min 0 W/m² 8,6 °C 5,7 °C 16,1 km/h (3 Bft)
25.12.2023 20:11 22,9 °C 9,4 °C 61 % 94 % 1007,7 hPa 0,0 l/m² 15,4 km/h (3 Bft) S-SW 194 ° 0 min 0 W/m² 8,5 °C 4,2 °C 20,9 km/h (4 Bft)
25.12.2023 20:13 22,9 °C 9,5 °C 61 % 94 % 1007,7 hPa 0,0 l/m² 13,9 km/h (3 Bft) S 188 ° 0 min 0 W/m² 8,6 °C 5,0 °C 19,3 km/h (3 Bft)
25.12.2023 20:14 22,9 °C 9,5 °C 61 % 94 % 1007,7 hPa 0,0 l/m² 15,3 km/h (3 Bft) S-SW 198 ° 0 min 0 W/m² 8,6 °C 4,4 °C 19,3 km/h (3 Bft)
25.12.2023 20:15 22,9 °C 9,5 °C 61 % 94 % 1007,8 hPa 0,0 l/m² 17,8 km/h (3 Bft) S-SW 197 ° 0 min 0 W/m² 8,6 °C 3,4 °C 22,5 km/h (4 Bft)
25.12.2023 20:16 22,9 °C 9,5 °C 61 % 94 % 1007,8 hPa 0,0 l/m² 15,0 km/h (3 Bft) S-SW 207 ° 0 min 0 W/m² 8,6 °C 4,5 °C 20,9 km/h (4 Bft)
25.12.2023 20:17 22,9 °C 9,5 °C 61 % 94 % 1007,9 hPa 0,0 l/m² 14,1 km/h (3 Bft) SW 219 ° 0 min 0 W/m² 8,6 °C 4,9 °C 19,3 km/h (3 Bft)
25.12.2023 20:18 22,9 °C 9,5 °C 61 % 94 % 1007,9 hPa 0,0 l/m² 16,1 km/h (3 Bft) S-SW 200 ° 0 min 0 W/m² 8,6 °C 4,1 °C 20,9 km/h (4 Bft)
25.12.2023 20:19 22,9 °C 9,5 °C 61 % 94 % 1008,0 hPa 0,0 l/m² 12,2 km/h (2 Bft) SW 221 ° 0 min 0 W/m² 8,6 °C 5,8 °C 14,5 km/h (3 Bft)
25.12.2023 20:21 23,0 °C 9,5 °C 61 % 94 % 1008,0 hPa 0,0 l/m² 12,8 km/h (3 Bft) S-SW 212 ° 0 min 0 W/m² 8,6 °C 5,5 °C 17,7 km/h (3 Bft)
25.12.2023 20:23 22,9 °C 9,5 °C 61 % 94 % 1008,0 hPa 0,0 l/m² 11,6 km/h (2 Bft) SW 217 ° 0 min 0 W/m² 8,6 °C 6,1 °C 16,1 km/h (3 Bft)
25.12.2023 20:24 22,9 °C 9,5 °C 61 % 94 % 1008,0 hPa 0,0 l/m² 11,7 km/h (2 Bft) S-SW 213 ° 0 min 0 W/m² 8,6 °C 6,1 °C 16,1 km/h (3 Bft)
25.12.2023 20:25 22,9 °C 9,5 °C 61 % 94 % 1008,0 hPa 0,0 l/m² 10,2 km/h (2 Bft) S-SW 194 ° 0 min 0 W/m² 8,6 °C 6,9 °C 12,9 km/h (3 Bft)
25.12.2023 20:26 22,9 °C 9,5 °C 61 % 94 % 1008,0 hPa 0,0 l/m² 11,6 km/h (2 Bft) S-SW 206 ° 0 min 0 W/m² 8,6 °C 6,1 °C 14,5 km/h (3 Bft)
25.12.2023 20:27 22,9 °C 9,5 °C 61 % 94 % 1008,0 hPa 0,0 l/m² 13,8 km/h (3 Bft) SW 220 ° 0 min 0 W/m² 8,6 °C 5,1 °C 17,7 km/h (3 Bft)
25.12.2023 20:28 23,0 °C 9,4 °C 61 % 94 % 1008,0 hPa 0,0 l/m² 14,6 km/h (3 Bft) S-SW 202 ° 0 min 0 W/m² 8,5 °C 4,6 °C 19,3 km/h (3 Bft)
25.12.2023 20:29 22,9 °C 9,5 °C 61 % 94 % 1008,1 hPa 0,0 l/m² 15,0 km/h (3 Bft) S-SW 209 ° 0 min 0 W/m² 8,6 °C 4,5 °C 16,1 km/h (3 Bft)
25.12.2023 20:31 22,9 °C 9,4 °C 61 % 94 % 1008,0 hPa 0,0 l/m² 14,8 km/h (3 Bft) SW 227 ° 0 min 0 W/m² 8,5 °C 4,5 °C 19,3 km/h (3 Bft)
25.12.2023 20:33 23,0 °C 9,4 °C 61 % 94 % 1008,0 hPa 0,0 l/m² 14,2 km/h (3 Bft) S-SW 211 ° 0 min 0 W/m² 8,5 °C 4,8 °C 19,3 km/h (3 Bft)
25.12.2023 20:34 23,0 °C 9,5 °C 61 % 94 % 1008,0 hPa 0,0 l/m² 15,6 km/h (3 Bft) S-SW 198 ° 0 min 0 W/m² 8,6 °C 4,3 °C 19,3 km/h (3 Bft)
25.12.2023 20:35 23,0 °C 9,5 °C 61 % 94 % 1007,9 hPa 0,0 l/m² 16,4 km/h (3 Bft) S-SW 202 ° 0 min 0 W/m² 8,6 °C 3,9 °C 19,3 km/h (3 Bft)
25.12.2023 20:36 23,0 °C 9,5 °C 61 % 94 % 1007,9 hPa 0,0 l/m² 17,6 km/h (3 Bft) S-SW 202 ° 0 min 0 W/m² 8,6 °C 3,5 °C 20,9 km/h (4 Bft)
25.12.2023 20:37 23,0 °C 9,5 °C 61 % 94 % 1007,9 hPa 0,0 l/m² 18,4 km/h (3 Bft) S-SW 200 ° 0 min 0 W/m² 8,6 °C 3,2 °C 24,1 km/h (4 Bft)
25.12.2023 20:38 23,0 °C 9,5 °C 61 % 94 % 1007,9 hPa 0,0 l/m² 20,0 km/h (4 Bft) S-SW 204 ° 0 min 0 W/m² 8,6 °C 2,6 °C 24,1 km/h (4 Bft)
25.12.2023 20:39 23,0 °C 9,5 °C 61 % 94 % 1007,9 hPa 0,0 l/m² 16,2 km/h (3 Bft) S-SW 209 ° 0 min 0 W/m² 8,6 °C 4,0 °C 19,3 km/h (3 Bft)
25.12.2023 20:41 23,0 °C 9,5 °C 61 % 94 % 1008,0 hPa 0,0 l/m² 18,0 km/h (3 Bft) S-SW 194 ° 0 min 0 W/m² 8,6 °C 3,3 °C 22,5 km/h (4 Bft)
25.12.2023 20:43 23,0 °C 9,5 °C 61 % 94 % 1007,9 hPa 0,0 l/m² 18,6 km/h (3 Bft) S-SW 205 ° 0 min 0 W/m² 8,6 °C 3,1 °C 24,1 km/h (4 Bft)
25.12.2023 20:44 23,0 °C 9,5 °C 61 % 94 % 1008,0 hPa 0,0 l/m² 16,8 km/h (3 Bft) S-SW 208 ° 0 min 0 W/m² 8,6 °C 3,8 °C 20,9 km/h (4 Bft)
25.12.2023 20:45 23,0 °C 9,6 °C 61 % 94 % 1007,9 hPa 0,0 l/m² 18,1 km/h (3 Bft) S-SW 199 ° 0 min 0 W/m² 8,7 °C 3,4 °C 22,5 km/h (4 Bft)
25.12.2023 20:46 23,1 °C 9,6 °C 61 % 94 % 1007,9 hPa 0,0 l/m² 15,3 km/h (3 Bft) S-SW 202 ° 0 min 0 W/m² 8,7 °C 4,5 °C 19,3 km/h (3 Bft)
25.12.2023 20:47 23,0 °C 9,6 °C 61 % 94 % 1007,9 hPa 0,0 l/m² 15,2 km/h (3 Bft) S-SW 200 ° 0 min 0 W/m² 8,7 °C 4,6 °C 17,7 km/h (3 Bft)
25.12.2023 20:48 23,0 °C 9,6 °C 61 % 94 % 1007,9 hPa 0,0 l/m² 14,5 km/h (3 Bft) S-SW 198 ° 0 min 0 W/m² 8,7 °C 4,9 °C 16,1 km/h (3 Bft)
25.12.2023 20:49 23,0 °C 9,6 °C 61 % 94 % 1007,9 hPa 0,0 l/m² 15,0 km/h (3 Bft) S-SW 195 ° 0 min 0 W/m² 8,7 °C 4,6 °C 17,7 km/h (3 Bft)
25.12.2023 20:51 23,0 °C 9,6 °C 61 % 94 % 1007,9 hPa 0,0 l/m² 12,6 km/h (3 Bft) S 182 ° 0 min 0 W/m² 8,7 °C 5,8 °C 16,1 km/h (3 Bft)
25.12.2023 20:53 23,0 °C 9,6 °C 61 % 94 % 1008,0 hPa 0,0 l/m² 13,5 km/h (3 Bft) S-SW 200 ° 0 min 0 W/m² 8,7 °C 5,3 °C 19,3 km/h (3 Bft)
25.12.2023 20:54 23,0 °C 9,6 °C 61 % 94 % 1008,0 hPa 0,0 l/m² 14,4 km/h (3 Bft) S 186 ° 0 min 0 W/m² 8,7 °C 4,9 °C 17,7 km/h (3 Bft)
25.12.2023 20:55 23,0 °C 9,6 °C 61 % 94 % 1007,9 hPa 0,0 l/m² 16,0 km/h (3 Bft) S-SW 196 ° 0 min 0 W/m² 8,7 °C 4,2 °C 19,3 km/h (3 Bft)
25.12.2023 20:56 23,0 °C 9,6 °C 61 % 94 % 1008,0 hPa 0,0 l/m² 14,5 km/h (3 Bft) SW 218 ° 0 min 0 W/m² 8,7 °C 4,9 °C 17,7 km/h (3 Bft)
25.12.2023 20:57 23,0 °C 9,6 °C 61 % 94 % 1007,9 hPa 0,0 l/m² 11,0 km/h (2 Bft) S-SW 210 ° 0 min 0 W/m² 8,7 °C 6,6 °C 12,9 km/h (3 Bft)
25.12.2023 20:58 23,0 °C 9,6 °C 61 % 94 % 1008,0 hPa 0,0 l/m² 11,0 km/h (2 Bft) S-SW 194 ° 0 min 0 W/m² 8,7 °C 6,6 °C 14,5 km/h (3 Bft)
25.12.2023 20:59 23,0 °C 9,6 °C 61 % 94 % 1007,9 hPa 0,0 l/m² 12,2 km/h (2 Bft) S-SW 199 ° 0 min 0 W/m² 8,7 °C 6,0 °C 17,7 km/h (3 Bft)
25.12.2023 21:01 23,0 °C 9,6 °C 61 % 94 % 1007,9 hPa 0,0 l/m² 11,9 km/h (2 Bft) S-SW 205 ° 0 min 0 W/m² 8,7 °C 6,1 °C 17,7 km/h (3 Bft)
25.12.2023 21:03 23,0 °C 9,6 °C 61 % 94 % 1008,0 hPa 0,0 l/m² 12,6 km/h (3 Bft) S-SW 194 ° 0 min 0 W/m² 8,7 °C 5,8 °C 17,7 km/h (3 Bft)
25.12.2023 21:04 23,1 °C 9,6 °C 61 % 94 % 1007,9 hPa 0,0 l/m² 12,0 km/h (2 Bft) S-SW 193 ° 0 min 0 W/m² 8,7 °C 6,1 °C 16,1 km/h (3 Bft)
25.12.2023 21:05 23,0 °C 9,6 °C 61 % 94 % 1008,0 hPa 0,0 l/m² 12,9 km/h (3 Bft) S-SW 198 ° 0 min 0 W/m² 8,7 °C 5,6 °C 16,1 km/h (3 Bft)
25.12.2023 21:06 23,1 °C 9,6 °C 61 % 94 % 1007,9 hPa 0,0 l/m² 16,1 km/h (3 Bft) S-SW 193 ° 0 min 0 W/m² 8,7 °C 4,2 °C 22,5 km/h (4 Bft)
25.12.2023 21:07 23,0 °C 9,6 °C 61 % 94 % 1007,9 hPa 0,0 l/m² 14,3 km/h (3 Bft) S-SW 192 ° 0 min 0 W/m² 8,7 °C 5,0 °C 16,1 km/h (3 Bft)
25.12.2023 21:08 23,1 °C 9,6 °C 61 % 94 % 1007,9 hPa 0,0 l/m² 13,8 km/h (3 Bft) S-SW 213 ° 0 min 0 W/m² 8,7 °C 5,2 °C 17,7 km/h (3 Bft)
25.12.2023 21:09 23,1 °C 9,6 °C 61 % 94 % 1007,8 hPa 0,0 l/m² 13,5 km/h (3 Bft) S 188 ° 0 min 0 W/m² 8,7 °C 5,3 °C 17,7 km/h (3 Bft)
25.12.2023 21:11 23,0 °C 9,6 °C 61 % 94 % 1007,8 hPa 0,0 l/m² 13,6 km/h (3 Bft) S-SW 201 ° 0 min 0 W/m² 8,7 °C 5,3 °C 19,3 km/h (3 Bft)
25.12.2023 21:13 23,1 °C 9,6 °C 61 % 94 % 1007,9 hPa 0,0 l/m² 13,1 km/h (3 Bft) S-SW 196 ° 0 min 0 W/m² 8,7 °C 5,5 °C 16,1 km/h (3 Bft)
25.12.2023 21:14 23,1 °C 9,6 °C 61 % 94 % 1007,8 hPa 0,0 l/m² 13,3 km/h (3 Bft) S-SW 199 ° 0 min 0 W/m² 8,7 °C 5,4 °C 16,1 km/h (3 Bft)
25.12.2023 21:15 23,1 °C 9,6 °C 61 % 94 % 1007,8 hPa 0,0 l/m² 15,5 km/h (3 Bft) S 179 ° 0 min 0 W/m² 8,7 °C 4,4 °C 19,3 km/h (3 Bft)
25.12.2023 21:16 23,1 °C 9,6 °C 61 % 94 % 1007,8 hPa 0,0 l/m² 13,1 km/h (3 Bft) S 184 ° 0 min 0 W/m² 8,7 °C 5,5 °C 16,1 km/h (3 Bft)
25.12.2023 21:17 23,1 °C 9,6 °C 61 % 94 % 1007,9 hPa 0,0 l/m² 15,7 km/h (3 Bft) S-SW 203 ° 0 min 0 W/m² 8,7 °C 4,4 °C 24,1 km/h (4 Bft)
25.12.2023 21:18 23,1 °C 9,6 °C 61 % 94 % 1007,7 hPa 0,0 l/m² 16,1 km/h (3 Bft) S 186 ° 0 min 0 W/m² 8,7 °C 4,2 °C 20,9 km/h (4 Bft)
25.12.2023 21:19 23,1 °C 9,6 °C 61 % 94 % 1007,8 hPa 0,0 l/m² 17,1 km/h (3 Bft) S-SW 194 ° 0 min 0 W/m² 8,7 °C 3,8 °C 20,9 km/h (4 Bft)
25.12.2023 21:21 23,1 °C 9,6 °C 61 % 94 % 1007,7 hPa 0,0 l/m² 15,6 km/h (3 Bft) S 187 ° 0 min 0 W/m² 8,7 °C 4,4 °C 20,9 km/h (4 Bft)
25.12.2023 21:23 23,1 °C 9,6 °C 61 % 94 % 1007,7 hPa 0,0 l/m² 15,5 km/h (3 Bft) S-SW 209 ° 0 min 0 W/m² 8,7 °C 4,4 °C 19,3 km/h (3 Bft)
25.12.2023 21:24 23,1 °C 9,6 °C 61 % 94 % 1007,7 hPa 0,0 l/m² 17,6 km/h (3 Bft) S-SW 207 ° 0 min 0 W/m² 8,7 °C 3,6 °C 20,9 km/h (4 Bft)
25.12.2023 21:25 23,1 °C 9,6 °C 61 % 94 % 1007,8 hPa 0,0 l/m² 14,7 km/h (3 Bft) S-SW 207 ° 0 min 0 W/m² 8,7 °C 4,8 °C 17,7 km/h (3 Bft)
25.12.2023 21:26 23,1 °C 9,6 °C 61 % 94 % 1007,9 hPa 0,0 l/m² 17,9 km/h (3 Bft) S-SW 203 ° 0 min 0 W/m² 8,7 °C 3,5 °C 22,5 km/h (4 Bft)
25.12.2023 21:27 23,1 °C 9,6 °C 61 % 94 % 1007,8 hPa 0,0 l/m² 18,3 km/h (3 Bft) S-SW 203 ° 0 min 0 W/m² 8,7 °C 3,4 °C 22,5 km/h (4 Bft)
25.12.2023 21:28 23,1 °C 9,6 °C 61 % 94 % 1007,8 hPa 0,0 l/m² 19,2 km/h (3 Bft) S-SW 196 ° 0 min 0 W/m² 8,7 °C 3,0 °C 24,1 km/h (4 Bft)
25.12.2023 21:29 23,1 °C 9,6 °C 61 % 94 % 1007,9 hPa 0,0 l/m² 19,1 km/h (3 Bft) S-SW 193 ° 0 min 0 W/m² 8,7 °C 3,1 °C 22,5 km/h (4 Bft)
25.12.2023 21:31 23,1 °C 9,6 °C 61 % 94 % 1007,8 hPa 0,0 l/m² 17,4 km/h (3 Bft) S-SW 207 ° 0 min 0 W/m² 8,7 °C 3,7 °C 25,7 km/h (4 Bft)
25.12.2023 21:33 23,1 °C 9,6 °C 61 % 94 % 1007,8 hPa 0,2 l/m² 13,5 km/h (3 Bft) S-SW 205 ° 0 min 0 W/m² 8,7 °C 5,3 °C 19,3 km/h (3 Bft)
25.12.2023 21:34 23,1 °C 9,6 °C 61 % 94 % 1007,7 hPa 0,0 l/m² 16,0 km/h (3 Bft) S 186 ° 0 min 0 W/m² 8,7 °C 4,2 °C 19,3 km/h (3 Bft)
25.12.2023 21:35 23,1 °C 9,6 °C 61 % 94 % 1007,6 hPa 0,0 l/m² 15,9 km/h (3 Bft) S 180 ° 0 min 0 W/m² 8,7 °C 4,3 °C 20,9 km/h (4 Bft)
25.12.2023 21:36 23,1 °C 9,6 °C 61 % 94 % 1007,6 hPa 0,0 l/m² 15,6 km/h (3 Bft) S 178 ° 0 min 0 W/m² 8,7 °C 4,4 °C 17,7 km/h (3 Bft)
25.12.2023 21:37 23,1 °C 9,6 °C 61 % 94 % 1007,7 hPa 0,0 l/m² 16,2 km/h (3 Bft) S 190 ° 0 min 0 W/m² 8,7 °C 4,2 °C 20,9 km/h (4 Bft)
25.12.2023 21:38 23,1 °C 9,6 °C 61 % 94 % 1007,7 hPa 0,0 l/m² 12,6 km/h (3 Bft) S 182 ° 0 min 0 W/m² 8,7 °C 5,8 °C 16,1 km/h (3 Bft)
25.12.2023 21:39 23,1 °C 9,6 °C 61 % 94 % 1007,6 hPa 0,0 l/m² 11,6 km/h (2 Bft) S 187 ° 0 min 0 W/m² 8,7 °C 6,3 °C 17,7 km/h (3 Bft)
25.12.2023 21:41 23,1 °C 9,6 °C 61 % 94 % 1007,6 hPa 0,0 l/m² 11,9 km/h (2 Bft) S 180 ° 0 min 0 W/m² 8,7 °C 6,1 °C 16,1 km/h (3 Bft)
25.12.2023 21:43 23,1 °C 9,6 °C 61 % 94 % 1007,7 hPa 0,0 l/m² 9,7 km/h (2 Bft) S 186 ° 0 min 0 W/m² 8,7 °C 7,3 °C 16,1 km/h (3 Bft)
25.12.2023 21:45 23,1 °C 9,6 °C 61 % 94 % 1007,7 hPa 0,0 l/m² 10,7 km/h (2 Bft) S-SW 196 ° 0 min 0 W/m² 8,7 °C 6,8 °C 16,1 km/h (3 Bft)
25.12.2023 21:46 23,1 °C 9,6 °C 61 % 94 % 1007,8 hPa 0,0 l/m² 8,6 km/h (2 Bft) S-SW 202 ° 0 min 0 W/m² 8,7 °C 8,0 °C 9,7 km/h (2 Bft)
25.12.2023 21:47 23,1 °C 9,6 °C 61 % 94 % 1007,8 hPa 0,0 l/m² 9,9 km/h (2 Bft) S 191 ° 0 min 0 W/m² 8,7 °C 7,2 °C 12,9 km/h (3 Bft)
25.12.2023 21:48 23,1 °C 9,6 °C 61 % 94 % 1007,8 hPa 0,0 l/m² 8,3 km/h (2 Bft) S-SW 196 ° 0 min 0 W/m² 8,7 °C 8,2 °C 11,3 km/h (2 Bft)
25.12.2023 21:49 23,1 °C 9,6 °C 61 % 94 % 1007,8 hPa 0,0 l/m² 7,1 km/h (2 Bft) S-SW 197 ° 0 min 0 W/m² 8,7 °C 9,1 °C 9,7 km/h (2 Bft)
25.12.2023 21:51 23,1 °C 9,6 °C 61 % 94 % 1007,9 hPa 0,0 l/m² 7,6 km/h (2 Bft) S-SW 195 ° 0 min 0 W/m² 8,7 °C 8,7 °C 11,3 km/h (2 Bft)
25.12.2023 21:53 23,1 °C 9,6 °C 61 % 94 % 1007,8 hPa 0,0 l/m² 6,3 km/h (2 Bft) S-SW 199 ° 0 min 0 W/m² 8,7 °C 9,6 °C 9,7 km/h (2 Bft)
25.12.2023 21:54 23,1 °C 9,6 °C 61 % 94 % 1007,8 hPa 0,0 l/m² 8,8 km/h (2 Bft) S-SW 195 ° 0 min 0 W/m² 8,7 °C 7,9 °C 11,3 km/h (2 Bft)
25.12.2023 21:55 23,1 °C 9,6 °C 61 % 94 % 1007,8 hPa 0,0 l/m² 9,4 km/h (2 Bft) S 188 ° 0 min 0 W/m² 8,7 °C 7,5 °C 14,5 km/h (3 Bft)
25.12.2023 21:56 23,1 °C 9,6 °C 61 % 94 % 1007,8 hPa 0,0 l/m² 9,3 km/h (2 Bft) S 190 ° 0 min 0 W/m² 8,7 °C 7,6 °C 12,9 km/h (3 Bft)
25.12.2023 21:57 23,1 °C 9,6 °C 61 % 94 % 1007,7 hPa 0,0 l/m² 6,9 km/h (2 Bft) S-SW 193 ° 0 min 0 W/m² 8,7 °C 9,2 °C 12,9 km/h (3 Bft)
25.12.2023 21:58 23,1 °C 9,6 °C 61 % 94 % 1007,7 hPa 0,0 l/m² 8,2 km/h (2 Bft) S-SW 213 ° 0 min 0 W/m² 8,7 °C 8,3 °C 11,3 km/h (2 Bft)
25.12.2023 21:59 23,1 °C 9,6 °C 61 % 94 % 1007,7 hPa 0,0 l/m² 9,6 km/h (2 Bft) S 182 ° 0 min 0 W/m² 8,7 °C 7,4 °C 11,3 km/h (2 Bft)
25.12.2023 22:01 23,1 °C 9,6 °C 61 % 94 % 1007,6 hPa 0,0 l/m² 7,3 km/h (2 Bft) S 188 ° 0 min 0 W/m² 8,7 °C 8,9 °C 11,3 km/h (2 Bft)
25.12.2023 22:03 23,1 °C 9,6 °C 61 % 94 % 1007,6 hPa 0,0 l/m² 5,0 km/h (1 Bft) S-SW 198 ° 0 min 0 W/m² 8,7 °C 9,6 °C 6,4 km/h (2 Bft)
25.12.2023 22:04 23,1 °C 9,6 °C 61 % 94 % 1007,6 hPa 0,0 l/m² 6,2 km/h (2 Bft) S-SW 195 ° 0 min 0 W/m² 8,7 °C 9,6 °C 9,7 km/h (2 Bft)
25.12.2023 22:05 23,1 °C 9,6 °C 61 % 94 % 1007,5 hPa 0,0 l/m² 6,6 km/h (2 Bft) S-SW 196 ° 0 min 0 W/m² 8,7 °C 9,5 °C 9,7 km/h (2 Bft)
25.12.2023 22:06 23,1 °C 9,6 °C 61 % 94 % 1007,5 hPa 0,0 l/m² 8,0 km/h (2 Bft) S-SW 202 ° 0 min 0 W/m² 8,7 °C 8,4 °C 9,7 km/h (2 Bft)
25.12.2023 22:07 23,1 °C 9,6 °C 61 % 94 % 1007,5 hPa 0,0 l/m² 7,6 km/h (2 Bft) S-SW 201 ° 0 min 0 W/m² 8,7 °C 8,7 °C 9,7 km/h (2 Bft)
25.12.2023 22:08 23,1 °C 9,6 °C 61 % 94 % 1007,5 hPa 0,0 l/m² 6,5 km/h (2 Bft) S-SW 206 ° 0 min 0 W/m² 8,7 °C 9,6 °C 9,7 km/h (2 Bft)
25.12.2023 22:09 23,1 °C 9,6 °C 61 % 94 % 1007,5 hPa 0,0 l/m² 5,6 km/h (2 Bft) S 189 ° 0 min 0 W/m² 8,7 °C 9,6 °C 8,0 km/h (2 Bft)
25.12.2023 22:11 23,1 °C 9,6 °C 61 % 94 % 1007,5 hPa 0,0 l/m² 5,1 km/h (1 Bft) S 189 ° 0 min 0 W/m² 8,7 °C 9,6 °C 8,0 km/h (2 Bft)
25.12.2023 22:13 23,1 °C 9,6 °C 61 % 94 % 1007,3 hPa 0,0 l/m² 4,4 km/h (1 Bft) S 188 ° 0 min 0 W/m² 8,7 °C 9,6 °C 8,0 km/h (2 Bft)
25.12.2023 22:14 23,1 °C 9,6 °C 61 % 94 % 1007,3 hPa 0,0 l/m² 4,1 km/h (1 Bft) S 189 ° 0 min 0 W/m² 8,7 °C 9,6 °C 8,0 km/h (2 Bft)
25.12.2023 22:15 23,1 °C 9,6 °C 61 % 94 % 1007,3 hPa 0,0 l/m² 5,4 km/h (2 Bft) S 190 ° 0 min 0 W/m² 8,7 °C 9,6 °C 8,0 km/h (2 Bft)
25.12.2023 22:16 23,1 °C 9,6 °C 61 % 94 % 1007,4 hPa 0,0 l/m² 6,5 km/h (2 Bft) S-SW 197 ° 0 min 0 W/m² 8,7 °C 9,6 °C 8,0 km/h (2 Bft)
25.12.2023 22:17 23,1 °C 9,6 °C 61 % 94 % 1007,3 hPa 0,0 l/m² 6,7 km/h (2 Bft) S-SW 197 ° 0 min 0 W/m² 8,7 °C 9,4 °C 9,7 km/h (2 Bft)
25.12.2023 22:18 23,1 °C 9,6 °C 61 % 94 % 1007,3 hPa 0,0 l/m² 5,9 km/h (2 Bft) S-SW 194 ° 0 min 0 W/m² 8,7 °C 9,6 °C 8,0 km/h (2 Bft)
25.12.2023 22:19 23,1 °C 9,6 °C 61 % 94 % 1007,3 hPa 0,0 l/m² 7,2 km/h (2 Bft) S-SW 198 ° 0 min 0 W/m² 8,7 °C 9,0 °C 9,7 km/h (2 Bft)
25.12.2023 22:21 23,1 °C 9,6 °C 61 % 94 % 1007,3 hPa 0,0 l/m² 7,7 km/h (2 Bft) S-SW 202 ° 0 min 0 W/m² 8,7 °C 8,6 °C 9,7 km/h (2 Bft)
25.12.2023 22:23 23,1 °C 9,6 °C 61 % 94 % 1007,3 hPa 0,0 l/m² 9,7 km/h (2 Bft) SW 219 ° 0 min 0 W/m² 8,7 °C 7,3 °C 14,5 km/h (3 Bft)
25.12.2023 22:24 23,1 °C 9,6 °C 61 % 94 % 1007,2 hPa 0,0 l/m² 8,7 km/h (2 Bft) S-SW 198 ° 0 min 0 W/m² 8,7 °C 8,0 °C 12,9 km/h (3 Bft)
25.12.2023 22:25 23,1 °C 9,6 °C 61 % 94 % 1007,2 hPa 0,0 l/m² 8,8 km/h (2 Bft) S-SW 207 ° 0 min 0 W/m² 8,7 °C 7,9 °C 11,3 km/h (2 Bft)
25.12.2023 22:26 23,1 °C 9,6 °C 60 % 94 % 1007,2 hPa 0,0 l/m² 7,1 km/h (2 Bft) SW 215 ° 0 min 0 W/m² 8,7 °C 9,1 °C 9,7 km/h (2 Bft)
25.12.2023 22:27 23,1 °C 9,6 °C 60 % 94 % 1007,2 hPa 0,0 l/m² 11,4 km/h (2 Bft) S-SW 198 ° 0 min 0 W/m² 8,7 °C 6,4 °C 16,1 km/h (3 Bft)
25.12.2023 22:28 23,1 °C 9,6 °C 60 % 94 % 1007,2 hPa 0,0 l/m² 10,4 km/h (2 Bft) S-SW 213 ° 0 min 0 W/m² 8,7 °C 6,9 °C 14,5 km/h (3 Bft)
25.12.2023 22:29 23,1 °C 9,6 °C 60 % 94 % 1007,1 hPa 0,0 l/m² 8,3 km/h (2 Bft) S-SW 211 ° 0 min 0 W/m² 8,7 °C 8,2 °C 11,3 km/h (2 Bft)
25.12.2023 22:31 23,1 °C 9,6 °C 60 % 94 % 1007,1 hPa 0,0 l/m² 9,3 km/h (2 Bft) SW 218 ° 0 min 0 W/m² 8,7 °C 7,6 °C 11,3 km/h (2 Bft)
25.12.2023 22:33 23,1 °C 9,7 °C 60 % 94 % 1007,1 hPa 0,0 l/m² 10,2 km/h (2 Bft) S-SW 213 ° 0 min 0 W/m² 8,8 °C 7,1 °C 14,5 km/h (3 Bft)
25.12.2023 22:34 23,0 °C 9,7 °C 60 % 94 % 1007,0 hPa 0,0 l/m² 9,4 km/h (2 Bft) S-SW 209 ° 0 min 0 W/m² 8,8 °C 7,6 °C 11,3 km/h (2 Bft)
25.12.2023 22:35 23,0 °C 9,7 °C 60 % 94 % 1007,0 hPa 0,0 l/m² 8,9 km/h (2 Bft) S-SW 209 ° 0 min 0 W/m² 8,8 °C 7,9 °C 11,3 km/h (2 Bft)
25.12.2023 22:36 23,0 °C 9,7 °C 60 % 94 % 1007,0 hPa 0,0 l/m² 8,2 km/h (2 Bft) S-SW 207 ° 0 min 0 W/m² 8,8 °C 8,4 °C 11,3 km/h (2 Bft)
25.12.2023 22:37 23,0 °C 9,7 °C 60 % 94 % 1006,9 hPa 0,0 l/m² 10,3 km/h (2 Bft) S-SW 207 ° 0 min 0 W/m² 8,8 °C 7,1 °C 12,9 km/h (3 Bft)
25.12.2023 22:38 23,0 °C 9,7 °C 60 % 94 % 1006,9 hPa 0,0 l/m² 9,6 km/h (2 Bft) S-SW 211 ° 0 min 0 W/m² 8,8 °C 7,5 °C 12,9 km/h (3 Bft)
25.12.2023 22:39 23,1 °C 9,7 °C 60 % 94 % 1006,9 hPa 0,0 l/m² 10,1 km/h (2 Bft) S-SW 209 ° 0 min 0 W/m² 8,8 °C 7,2 °C 14,5 km/h (3 Bft)
25.12.2023 22:41 23,0 °C 9,7 °C 60 % 94 % 1007,0 hPa 0,0 l/m² 9,5 km/h (2 Bft) S-SW 211 ° 0 min 0 W/m² 8,8 °C 7,6 °C 12,9 km/h (3 Bft)
25.12.2023 22:43 23,0 °C 9,8 °C 60 % 94 % 1006,9 hPa 0,0 l/m² 10,4 km/h (2 Bft) SW 214 ° 0 min 0 W/m² 8,9 °C 7,1 °C 12,9 km/h (3 Bft)
25.12.2023 22:44 23,0 °C 9,8 °C 60 % 94 % 1006,8 hPa 0,0 l/m² 11,1 km/h (2 Bft) S-SW 207 ° 0 min 0 W/m² 8,9 °C 6,8 °C 14,5 km/h (3 Bft)
25.12.2023 22:45 23,0 °C 9,8 °C 60 % 94 % 1006,9 hPa 0,0 l/m² 10,9 km/h (2 Bft) S-SW 211 ° 0 min 0 W/m² 8,9 °C 6,9 °C 17,7 km/h (3 Bft)
25.12.2023 22:46 23,0 °C 9,8 °C 60 % 94 % 1006,8 hPa 0,0 l/m² 9,7 km/h (2 Bft) S-SW 210 ° 0 min 0 W/m² 8,9 °C 7,6 °C 12,9 km/h (3 Bft)
25.12.2023 22:47 23,0 °C 9,8 °C 60 % 94 % 1006,8 hPa 0,0 l/m² 12,4 km/h (2 Bft) S 189 ° 0 min 0 W/m² 8,9 °C 6,1 °C 16,1 km/h (3 Bft)
25.12.2023 22:48 23,0 °C 9,8 °C 60 % 94 % 1006,8 hPa 0,0 l/m² 12,5 km/h (2 Bft) S-SW 198 ° 0 min 0 W/m² 8,9 °C 6,0 °C 16,1 km/h (3 Bft)
25.12.2023 22:49 23,0 °C 9,8 °C 60 % 94 % 1006,8 hPa 0,0 l/m² 9,7 km/h (2 Bft) S-SW 199 ° 0 min 0 W/m² 8,9 °C 7,6 °C 12,9 km/h (3 Bft)
25.12.2023 22:51 23,0 °C 9,8 °C 60 % 94 % 1006,7 hPa 0,0 l/m² 10,6 km/h (2 Bft) SW 217 ° 0 min 0 W/m² 8,9 °C 7,0 °C 12,9 km/h (3 Bft)
25.12.2023 22:53 23,0 °C 9,8 °C 60 % 94 % 1006,7 hPa 0,0 l/m² 10,8 km/h (2 Bft) SW 215 ° 0 min 0 W/m² 8,9 °C 6,9 °C 16,1 km/h (3 Bft)
25.12.2023 22:54 23,0 °C 9,8 °C 60 % 94 % 1006,8 hPa 0,0 l/m² 10,5 km/h (2 Bft) S-SW 204 ° 0 min 0 W/m² 8,9 °C 7,1 °C 12,9 km/h (3 Bft)
25.12.2023 22:55 23,0 °C 9,8 °C 60 % 94 % 1006,7 hPa 0,0 l/m² 9,7 km/h (2 Bft) S-SW 212 ° 0 min 0 W/m² 8,9 °C 7,6 °C 14,5 km/h (3 Bft)
25.12.2023 22:56 22,9 °C 9,9 °C 60 % 94 % 1006,6 hPa 0,0 l/m² 11,3 km/h (2 Bft) S-SW 203 ° 0 min 0 W/m² 9,0 °C 6,8 °C 14,5 km/h (3 Bft)
25.12.2023 22:57 23,0 °C 9,9 °C 60 % 94 % 1006,5 hPa 0,0 l/m² 15,6 km/h (3 Bft) S-SW 204 ° 0 min 0 W/m² 9,0 °C 4,8 °C 19,3 km/h (3 Bft)
25.12.2023 22:58 22,9 °C 9,9 °C 60 % 94 % 1006,5 hPa 0,0 l/m² 10,1 km/h (2 Bft) S 191 ° 0 min 0 W/m² 9,0 °C 7,4 °C 14,5 km/h (3 Bft)
25.12.2023 22:59 23,0 °C 9,9 °C 60 % 94 % 1006,5 hPa 0,0 l/m² 10,4 km/h (2 Bft) S-SW 213 ° 0 min 0 W/m² 9,0 °C 7,3 °C 17,7 km/h (3 Bft)
25.12.2023 23:01 22,9 °C 9,9 °C 60 % 94 % 1006,5 hPa 0,0 l/m² 12,1 km/h (2 Bft) S-SW 197 ° 0 min 0 W/m² 9,0 °C 6,3 °C 14,5 km/h (3 Bft)
25.12.2023 23:03 22,9 °C 9,9 °C 60 % 94 % 1006,5 hPa 0,0 l/m² 12,7 km/h (3 Bft) S-SW 202 ° 0 min 0 W/m² 9,0 °C 6,1 °C 17,7 km/h (3 Bft)
25.12.2023 23:04 22,9 °C 10,0 °C 60 % 94 % 1006,5 hPa 0,0 l/m² 12,6 km/h (3 Bft) SW 215 ° 0 min 0 W/m² 9,1 °C 6,2 °C 14,5 km/h (3 Bft)
25.12.2023 23:05 22,9 °C 10,0 °C 60 % 94 % 1006,5 hPa 0,0 l/m² 13,7 km/h (3 Bft) S-SW 200 ° 0 min 0 W/m² 9,1 °C 5,7 °C 19,3 km/h (3 Bft)
25.12.2023 23:06 22,9 °C 10,0 °C 60 % 94 % 1006,4 hPa 0,0 l/m² 14,0 km/h (3 Bft) S-SW 196 ° 0 min 0 W/m² 9,1 °C 5,6 °C 16,1 km/h (3 Bft)
25.12.2023 23:07 22,9 °C 10,0 °C 60 % 94 % 1006,4 hPa 0,0 l/m² 11,7 km/h (2 Bft) S-SW 198 ° 0 min 0 W/m² 9,1 °C 6,7 °C 14,5 km/h (3 Bft)
25.12.2023 23:08 22,9 °C 10,0 °C 60 % 94 % 1006,4 hPa 0,0 l/m² 13,0 km/h (3 Bft) S-SW 207 ° 0 min 0 W/m² 9,1 °C 6,0 °C 16,1 km/h (3 Bft)
25.12.2023 23:09 22,8 °C 10,1 °C 60 % 93 % 1006,4 hPa 0,0 l/m² 10,3 km/h (2 Bft) S-SW 201 ° 0 min 0 W/m² 9,0 °C 7,5 °C 12,9 km/h (3 Bft)
25.12.2023 23:11 22,8 °C 10,1 °C 60 % 94 % 1006,4 hPa 0,0 l/m² 13,1 km/h (3 Bft) S-SW 203 ° 0 min 0 W/m² 9,2 °C 6,1 °C 17,7 km/h (3 Bft)
25.12.2023 23:13 22,8 °C 10,1 °C 60 % 94 % 1006,3 hPa 0,0 l/m² 14,7 km/h (3 Bft) S-SW 200 ° 0 min 0 W/m² 9,2 °C 5,4 °C 20,9 km/h (4 Bft)
25.12.2023 23:14 22,8 °C 10,1 °C 60 % 93 % 1006,3 hPa 0,0 l/m² 14,3 km/h (3 Bft) S-SW 202 ° 0 min 0 W/m² 9,0 °C 5,6 °C 17,7 km/h (3 Bft)
25.12.2023 23:15 22,8 °C 10,1 °C 60 % 93 % 1006,3 hPa 0,0 l/m² 15,9 km/h (3 Bft) S-SW 202 ° 0 min 0 W/m² 9,0 °C 4,9 °C 20,9 km/h (4 Bft)
25.12.2023 23:16 22,8 °C 10,2 °C 60 % 93 % 1006,3 hPa 0,0 l/m² 14,5 km/h (3 Bft) S-SW 202 ° 0 min 0 W/m² 9,1 °C 5,6 °C 17,7 km/h (3 Bft)
25.12.2023 23:17 22,8 °C 10,2 °C 60 % 93 % 1006,2 hPa 0,0 l/m² 16,1 km/h (3 Bft) S-SW 202 ° 0 min 0 W/m² 9,1 °C 4,9 °C 20,9 km/h (4 Bft)
25.12.2023 23:23 22,7 °C 10,3 °C 60 % 93 % 1006,3 hPa 0,0 l/m² 18,0 km/h (3 Bft) S-SW 207 ° 0 min 0 W/m² 9,2 °C 4,3 °C 25,7 km/h (4 Bft)
25.12.2023 23:25 22,7 °C 10,3 °C 60 % 93 % 1006,2 hPa 0,0 l/m² 19,4 km/h (3 Bft) S-SW 192 ° 0 min 0 W/m² 9,2 °C 3,9 °C 24,1 km/h (4 Bft)
25.12.2023 23:26 22,7 °C 10,3 °C 60 % 93 % 1006,2 hPa 0,0 l/m² 18,0 km/h (3 Bft) S-SW 204 ° 0 min 0 W/m² 9,2 °C 4,3 °C 20,9 km/h (4 Bft)
25.12.2023 23:28 22,7 °C 10,4 °C 60 % 93 % 1006,3 hPa 0,0 l/m² 17,2 km/h (3 Bft) S-SW 197 ° 0 min 0 W/m² 9,3 °C 4,8 °C 24,1 km/h (4 Bft)
25.12.2023 23:30 22,6 °C 10,4 °C 60 % 92 % 1006,2 hPa 0,0 l/m² 16,1 km/h (3 Bft) S-SW 197 ° 0 min 0 W/m² 9,2 °C 5,2 °C 22,5 km/h (4 Bft)
25.12.2023 23:31 22,6 °C 10,4 °C 60 % 92 % 1006,2 hPa 0,0 l/m² 19,2 km/h (3 Bft) SW 220 ° 0 min 0 W/m² 9,2 °C 4,1 °C 24,1 km/h (4 Bft)
25.12.2023 23:32 22,6 °C 10,4 °C 60 % 92 % 1006,2 hPa 0,0 l/m² 20,2 km/h (4 Bft) S-SW 202 ° 0 min 0 W/m² 9,2 °C 3,7 °C 27,4 km/h (5 Bft)
25.12.2023 23:34 22,6 °C 10,5 °C 60 % 92 % 1006,1 hPa 0,0 l/m² 18,1 km/h (3 Bft) S-SW 208 ° 0 min 0 W/m² 9,3 °C 4,6 °C 29,0 km/h (5 Bft)
25.12.2023 23:35 22,6 °C 10,5 °C 60 % 92 % 1006,1 hPa 0,0 l/m² 21,4 km/h (4 Bft) S-SW 200 ° 0 min 0 W/m² 9,3 °C 3,5 °C 27,4 km/h (5 Bft)
25.12.2023 23:37 22,6 °C 10,6 °C 60 % 92 % 1006,1 hPa 0,0 l/m² 17,3 km/h (3 Bft) S-SW 213 ° 0 min 0 W/m² 9,4 °C 5,0 °C 25,7 km/h (4 Bft)
25.12.2023 23:39 22,6 °C 10,6 °C 60 % 92 % 1006,1 hPa 0,0 l/m² 18,1 km/h (3 Bft) S-SW 205 ° 0 min 0 W/m² 9,4 °C 4,7 °C 24,1 km/h (4 Bft)
25.12.2023 23:40 22,6 °C 10,6 °C 60 % 91 % 1006,1 hPa 0,0 l/m² 15,6 km/h (3 Bft) S-SW 192 ° 0 min 0 W/m² 9,2 °C 5,6 °C 20,9 km/h (4 Bft)
25.12.2023 23:41 22,6 °C 10,6 °C 60 % 91 % 1006,1 hPa 0,0 l/m² 14,4 km/h (3 Bft) S-SW 202 ° 0 min 0 W/m² 9,2 °C 6,1 °C 17,7 km/h (3 Bft)
25.12.2023 23:42 22,6 °C 10,6 °C 60 % 91 % 1006,1 hPa 0,0 l/m² 15,3 km/h (3 Bft) S-SW 205 ° 0 min 0 W/m² 9,2 °C 5,7 °C 22,5 km/h (4 Bft)
25.12.2023 23:44 22,6 °C 10,6 °C 60 % 91 % 1006,0 hPa 0,0 l/m² 16,7 km/h (3 Bft) S-SW 205 ° 0 min 0 W/m² 9,2 °C 5,2 °C 24,1 km/h (4 Bft)
25.12.2023 23:45 22,6 °C 10,6 °C 60 % 91 % 1006,1 hPa 0,0 l/m² 16,0 km/h (3 Bft) SW 215 ° 0 min 0 W/m² 9,2 °C 5,5 °C 20,9 km/h (4 Bft)
25.12.2023 23:47 22,6 °C 10,6 °C 60 % 91 % 1006,1 hPa 0,0 l/m² 15,4 km/h (3 Bft) SW 215 ° 0 min 0 W/m² 9,2 °C 5,7 °C 20,9 km/h (4 Bft)
25.12.2023 23:49 22,5 °C 10,6 °C 60 % 91 % 1006,1 hPa 0,0 l/m² 17,0 km/h (3 Bft) S-SW 200 ° 0 min 0 W/m² 9,2 °C 5,1 °C 24,1 km/h (4 Bft)
25.12.2023 23:50 22,5 °C 10,7 °C 60 % 91 % 1006,0 hPa 0,0 l/m² 15,9 km/h (3 Bft) S-SW 207 ° 0 min 0 W/m² 9,3 °C 5,6 °C 20,9 km/h (4 Bft)
25.12.2023 23:51 22,5 °C 10,7 °C 60 % 91 % 1006,0 hPa 0,0 l/m² 15,8 km/h (3 Bft) S-SW 207 ° 0 min 0 W/m² 9,3 °C 5,7 °C 19,3 km/h (3 Bft)
25.12.2023 23:52 22,5 °C 10,7 °C 60 % 91 % 1006,0 hPa 0,0 l/m² 15,3 km/h (3 Bft) SW 223 ° 0 min 0 W/m² 9,3 °C 5,9 °C 19,3 km/h (3 Bft)
25.12.2023 23:53 22,5 °C 10,7 °C 60 % 91 % 1006,0 hPa 0,0 l/m² 13,9 km/h (3 Bft) S-SW 207 ° 0 min 0 W/m² 9,3 °C 6,4 °C 20,9 km/h (4 Bft)
25.12.2023 23:54 22,5 °C 10,7 °C 60 % 90 % 1006,0 hPa 0,0 l/m² 15,1 km/h (3 Bft) S-SW 193 ° 0 min 0 W/m² 9,1 °C 5,9 °C 20,9 km/h (4 Bft)
25.12.2023 23:56 22,5 °C 10,7 °C 60 % 90 % 1006,1 hPa 0,0 l/m² 16,7 km/h (3 Bft) SW 227 ° 0 min 0 W/m² 9,1 °C 5,3 °C 24,1 km/h (4 Bft)
25.12.2023 23:58 22,4 °C 10,7 °C 60 % 90 % 1006,1 hPa 0,0 l/m² 13,1 km/h (3 Bft) S-SW 213 ° 0 min 0 W/m² 9,1 °C 6,8 °C 17,7 km/h (3 Bft)
25.12.2023 23:59 22,4 °C 10,7 °C 60 % 90 % 1006,1 hPa 0,0 l/m² 12,9 km/h (3 Bft) SW 214 ° 0 min 0 W/m² 9,1 °C 6,9 °C 17,7 km/h (3 Bft)
_ Min-Zeit 06:50 20:33 10:29 02:43 00:33 - 12:39 - - - - 20:33 00:45 22:03
Minimum _ 21,3 °C 9,4 °C 56 % 87 % 1000,6 hPa - 3,9 km/h (1 Bft) - - - - 8,5 °C -0,1 °C 6,4 km/h (2 Bft)
_ Max-Zeit 22:39 02:47 12:41 23:13 20:29 21:33 00:45 - - 13:21 09:38 12:56 13:03 05:38
Maximum _ 23,1 °C 11,3 °C 68 % 94 % 1008,1 hPa 0,2 l/m² 40,2 km/h
S-SW (6 Bft)
- - 2 min 86 W/m² 9,7 °C 10,8 °C 48,3 km/h
SW (6 Bft)
Durchschnitt _ 22,1 °C 10,3 °C 60 % 92 % 1004,7 hPa #3,6 l/m² 16,1 km/h (3 Bft) SW - #1:10 h 10 W/m² 9,1 °C 5,6 °C 22,1 km/h (4 Bft)
© 2009 Mathias Hoßbach